[[{"header":{"parameterUnit":"m.s-1","parameterCategory":1,"la1":30.6,"la2":29.2853,"lo1":-89.7004,"lo2":-87.6739,"dy":0.0162,"dx":0.0183,"nx":112,"ny":82,"refTime":"2023-10-18T18:00:00:Z","depth":0,"parameterNumber":2,"parameterNumberName":"U-component_of_WINDS"},"data":[0.0,0.0,0.0,0.0,0.0,0.0,0.0,0.0,0.0,0.0,0.0,0.0,0.0,0.0,0.0,0.0,0.0,0.0,0.0,0.0,0.0,0.0,0.0,0.0,0.0,0.0,0.0,0.0,0.0,0.0,0.0,0.0,0.0,0.0,0.0,0.0,0.0,0.0,0.0,0.0,0.0,0.0,0.0,0.0,0.0,0.0,0.0,0.0,0.0,0.0,0.0,0.0,0.0,0.0,0.0,0.0,0.0,0.0,0.0,0.0,0.0,0.0,0.0,0.0,0.0,0.0,0.0,0.0,0.0,0.0,0.0,0.0,0.0,0.0,0.0,0.0,0.0,0.0,0.0,0.0,0.0,0.0,0.0,0.0,0.0,0.0,0.0,0.0,0.0,0.0,0.0,-2.493,-2.4181,-2.3228,-2.1892,-2.0727,-1.9495,-1.8052,0.0,0.0,0.0,0.0,0.0,0.0,0.0,0.0,0.0,0.0,0.0,0.0,0.0,0.0,0.0,0.0,0.0,0.0,0.0,0.0,0.0,0.0,0.0,0.0,0.0,0.0,0.0,0.0,0.0,0.0,0.0,0.0,0.0,0.0,0.0,0.0,0.0,0.0,0.0,0.0,0.0,0.0,0.0,0.0,0.0,0.0,0.0,0.0,0.0,0.0,0.0,0.0,0.0,0.0,0.0,0.0,0.0,0.0,0.0,0.0,0.0,0.0,0.0,0.0,0.0,0.0,0.0,0.0,0.0,0.0,0.0,0.0,0.0,0.0,0.0,0.0,0.0,0.0,0.0,0.0,0.0,0.0,0.0,0.0,0.0,0.0,0.0,0.0,0.0,0.0,0.0,0.0,0.0,0.0,0.0,0.0,0.0,0.0,0.0,0.0,0.0,0.0,0.0,0.0,-2.4343,-2.4387,-2.3885,-2.3042,-2.1815,-2.0382,-1.8943,-1.7504,0.0,0.0,0.0,0.0,0.0,0.0,0.0,0.0,0.0,0.0,0.0,0.0,0.0,0.0,0.0,0.0,0.0,0.0,0.0,0.0,0.0,0.0,0.0,0.0,0.0,0.0,0.0,0.0,0.0,0.0,0.0,0.0,0.0,0.0,0.0,0.0,0.0,0.0,0.0,0.0,0.0,0.0,0.0,0.0,0.0,0.0,0.0,0.0,0.0,0.0,0.0,0.0,0.0,0.0,0.0,0.0,0.0,0.0,0.0,0.0,0.0,0.0,0.0,0.0,0.0,0.0,0.0,0.0,0.0,0.0,0.0,0.0,0.0,0.0,0.0,0.0,0.0,0.0,0.0,0.0,0.0,0.0,0.0,0.0,0.0,0.0,0.0,0.0,0.0,0.0,0.0,0.0,0.0,0.0,0.0,0.0,0.0,0.0,0.0,0.0,0.0,0.0,0.0,-2.3325,-2.3542,-2.3976,-2.3708,-2.2897,-2.1381,-2.0115,-1.8668,-1.698,-1.7867,0.0,0.0,0.0,0.0,0.0,0.0,0.0,0.0,0.0,0.0,0.0,0.0,0.0,0.0,0.0,0.0,0.0,0.0,0.0,0.0,0.0,0.0,0.0,0.0,0.0,0.0,0.0,0.0,0.0,0.0,0.0,0.0,0.0,0.0,0.0,0.0,0.0,0.0,0.0,0.0,0.0,0.0,0.0,0.0,0.0,0.0,0.0,0.0,0.0,0.0,0.0,0.0,0.0,0.0,0.0,0.0,0.0,0.0,0.0,0.0,0.0,0.0,0.0,0.0,0.0,0.0,0.0,0.0,0.0,0.0,0.0,0.0,0.0,0.0,0.0,0.0,0.0,0.0,0.0,0.0,0.0,0.0,0.0,0.0,0.0,0.0,0.0,0.0,0.0,0.0,0.0,0.0,0.0,0.0,0.0,0.0,0.0,0.0,0.0,0.0,0.0,0.0,-2.2859,-2.2958,-2.3715,-2.3574,-2.2787,-2.1214,-2.0036,-1.8668,-1.698,-1.7666,0.0,0.0,0.0,0.0,0.0,0.0,0.0,0.0,0.0,0.0,0.0,0.0,0.0,0.0,0.0,0.0,0.0,0.0,0.0,0.0,0.0,0.0,0.0,0.0,0.0,0.0,0.0,0.0,0.0,0.0,0.0,0.0,0.0,0.0,0.0,0.0,0.0,0.0,0.0,0.0,0.0,0.0,0.0,0.0,0.0,0.0,0.0,0.0,0.0,0.0,0.0,0.0,0.0,0.0,0.0,0.0,0.0,0.0,0.0,0.0,0.0,0.0,0.0,0.0,0.0,0.0,0.0,0.0,0.0,0.0,0.0,0.0,0.0,0.0,0.0,0.0,0.0,0.0,0.0,0.0,0.0,0.0,0.0,0.0,0.0,0.0,0.0,0.0,0.0,0.0,0.0,0.0,0.0,0.0,0.0,0.0,0.0,0.0,0.0,0.0,0.0,0.0,-2.2135,-2.245,-2.3675,-2.3453,-2.2786,-2.1727,-2.0257,-1.898,-1.8052,-1.8066,0.0,0.0,0.0,0.0,0.0,0.0,0.0,0.0,0.0,0.0,0.0,0.0,0.0,0.0,0.0,0.0,0.0,0.0,0.0,0.0,0.0,0.0,0.0,0.0,0.0,0.0,0.0,0.0,0.0,0.0,0.0,0.0,0.0,0.0,0.0,0.0,0.0,0.0,0.0,0.0,0.0,0.0,0.0,0.0,0.0,0.0,0.0,0.0,0.0,0.0,0.0,0.0,0.0,0.0,0.0,0.0,0.0,0.0,0.0,0.0,0.0,0.0,0.0,0.0,0.0,0.0,0.0,0.0,0.0,0.0,0.0,0.0,0.0,0.0,0.0,0.0,0.0,0.0,0.0,0.0,0.0,0.0,0.0,0.0,0.0,0.0,0.0,0.0,0.0,0.0,0.0,0.0,0.0,0.0,0.0,0.0,0.0,0.0,0.0,0.0,0.0,0.0,-2.2062,-2.2406,0.0,-2.3645,-2.316,-2.227,-2.099,-1.9741,-1.8617,0.0,0.0,0.0,0.0,0.0,0.0,0.0,0.0,0.0,0.0,0.0,0.0,0.0,0.0,0.0,0.0,0.0,0.0,0.0,0.0,0.0,0.0,0.0,0.0,0.0,0.0,0.0,0.0,0.0,0.0,0.0,0.0,0.0,0.0,0.0,0.0,0.0,0.0,0.0,0.0,0.0,0.0,0.0,0.0,0.0,0.0,0.0,0.0,0.0,0.0,0.0,0.0,0.0,0.0,0.0,0.0,0.0,0.0,0.0,0.0,0.0,0.0,0.0,0.0,0.0,0.0,0.0,0.0,0.0,0.0,0.0,0.0,0.0,0.0,0.0,0.0,0.0,0.0,0.0,0.0,0.0,0.0,0.0,0.0,0.0,0.0,0.0,0.0,0.0,0.0,0.0,0.0,0.0,0.0,0.0,0.0,0.0,0.0,0.0,0.0,0.0,0.0,-2.1974,-2.1973,-2.2423,0.0,-2.377,-2.3431,-2.2795,-2.1591,-2.0495,-1.9546,0.0,0.0,0.0,0.0,0.0,0.0,0.0,0.0,0.0,0.0,0.0,0.0,0.0,0.0,0.0,0.0,0.0,0.0,0.0,0.0,0.0,0.0,0.0,0.0,0.0,0.0,0.0,0.0,0.0,0.0,0.0,0.0,0.0,0.0,0.0,0.0,0.0,0.0,0.0,0.0,0.0,0.0,0.0,0.0,0.0,0.0,0.0,0.0,0.0,0.0,0.0,0.0,0.0,0.0,0.0,0.0,0.0,0.0,0.0,0.0,0.0,0.0,0.0,0.0,0.0,0.0,0.0,0.0,0.0,0.0,0.0,0.0,0.0,0.0,0.0,0.0,0.0,0.0,0.0,0.0,0.0,0.0,0.0,0.0,0.0,0.0,0.0,0.0,0.0,0.0,0.0,0.0,0.0,0.0,0.0,0.0,0.0,0.0,0.0,0.0,0.0,0.0,-2.1568,-2.1786,-2.238,-2.366,-2.3746,-2.3578,-2.3247,-2.2056,-2.1217,0.0,0.0,0.0,0.0,0.0,0.0,0.0,0.0,0.0,0.0,0.0,0.0,0.0,0.0,0.0,0.0,0.0,0.0,0.0,0.0,0.0,0.0,0.0,0.0,0.0,0.0,0.0,0.0,0.0,0.0,0.0,0.0,0.0,0.0,0.0,0.0,0.0,0.0,0.0,0.0,0.0,0.0,0.0,0.0,0.0,0.0,0.0,0.0,0.0,0.0,0.0,0.0,0.0,0.0,0.0,0.0,0.0,0.0,0.0,0.0,0.0,0.0,0.0,0.0,0.0,0.0,0.0,0.0,0.0,0.0,0.0,0.0,0.0,0.0,0.0,0.0,0.0,0.0,0.0,0.0,0.0,0.0,0.0,0.0,0.0,0.0,0.0,0.0,0.0,0.0,0.0,0.0,0.0,0.0,0.0,0.0,0.0,0.0,0.0,0.0,0.0,0.0,0.0,-2.2032,-2.199,-2.2412,-2.3717,-2.4108,-2.4196,-2.4058,-2.3041,-2.2245,-2.1795,0.0,0.0,0.0,0.0,0.0,0.0,0.0,0.0,0.0,0.0,0.0,0.0,0.0,0.0,0.0,0.0,0.0,0.0,0.0,0.0,0.0,0.0,0.0,0.0,0.0,0.0,0.0,0.0,0.0,0.0,0.0,0.0,0.0,0.0,0.0,0.0,0.0,0.0,0.0,0.0,0.0,0.0,0.0,0.0,0.0,0.0,0.0,0.0,0.0,0.0,0.0,0.0,0.0,0.0,0.0,0.0,0.0,0.0,0.0,0.0,0.0,0.0,0.0,0.0,0.0,0.0,0.0,0.0,0.0,0.0,0.0,0.0,0.0,0.0,0.0,0.0,0.0,0.0,0.0,0.0,0.0,0.0,0.0,0.0,0.0,0.0,0.0,0.0,0.0,0.0,0.0,0.0,0.0,0.0,0.0,0.0,0.0,0.0,0.0,0.0,0.0,0.0,-2.1986,-2.1945,-2.2407,-2.3713,-2.4248,-2.4452,-2.4366,-2.3717,-2.2916,-2.1969,0.0,0.0,0.0,0.0,0.0,0.0,0.0,0.0,0.0,0.0,0.0,0.0,0.0,0.0,0.0,0.0,0.0,0.0,0.0,0.0,0.0,0.0,0.0,0.0,0.0,0.0,0.0,0.0,0.0,0.0,0.0,0.0,0.0,0.0,0.0,0.0,0.0,0.0,0.0,0.0,0.0,0.0,0.0,0.0,0.0,0.0,0.0,0.0,0.0,0.0,0.0,0.0,0.0,0.0,0.0,0.0,0.0,0.0,0.0,0.0,0.0,0.0,0.0,0.0,0.0,0.0,0.0,0.0,0.0,0.0,0.0,0.0,0.0,0.0,0.0,0.0,0.0,0.0,0.0,0.0,0.0,0.0,0.0,0.0,0.0,0.0,0.0,0.0,0.0,0.0,0.0,0.0,0.0,0.0,0.0,0.0,0.0,0.0,0.0,0.0,0.0,0.0,-2.1658,-2.1769,-2.2315,-2.3671,-2.4235,-2.4472,-2.4374,-2.4157,-2.3388,-2.186,0.0,0.0,0.0,0.0,0.0,0.0,0.0,0.0,0.0,0.0,0.0,0.0,0.0,0.0,0.0,0.0,0.0,0.0,0.0,0.0,0.0,0.0,0.0,0.0,0.0,0.0,0.0,0.0,0.0,0.0,0.0,0.0,0.0,0.0,0.0,0.0,0.0,0.0,0.0,0.0,0.0,0.0,0.0,0.0,0.0,0.0,0.0,0.0,0.0,0.0,0.0,0.0,0.0,0.0,0.0,0.0,0.0,0.0,0.0,0.0,-3.6194,0.0,0.0,0.0,0.0,0.0,0.0,0.0,0.0,0.0,0.0,0.0,0.0,0.0,0.0,0.0,0.0,0.0,0.0,0.0,0.0,0.0,0.0,0.0,0.0,0.0,0.0,0.0,0.0,0.0,0.0,0.0,0.0,0.0,0.0,0.0,0.0,0.0,0.0,0.0,0.0,0.0,-2.2157,-2.1632,-2.1917,-2.3633,-2.4358,-2.4771,-2.4849,-2.452,-2.3964,-2.3153,0.0,0.0,0.0,0.0,0.0,0.0,0.0,0.0,0.0,0.0,0.0,0.0,0.0,0.0,0.0,0.0,0.0,0.0,0.0,0.0,0.0,0.0,0.0,0.0,0.0,0.0,0.0,0.0,0.0,0.0,0.0,0.0,0.0,0.0,0.0,0.0,0.0,0.0,0.0,0.0,0.0,0.0,0.0,0.0,0.0,0.0,0.0,0.0,0.0,0.0,0.0,0.0,0.0,0.0,0.0,0.0,0.0,0.0,0.0,0.0,0.0,-3.7647,0.0,0.0,0.0,0.0,0.0,0.0,0.0,0.0,0.0,0.0,0.0,0.0,0.0,0.0,0.0,0.0,0.0,0.0,0.0,0.0,0.0,0.0,0.0,0.0,0.0,0.0,0.0,0.0,0.0,0.0,0.0,0.0,0.0,0.0,0.0,0.0,0.0,0.0,0.0,0.0,-2.1741,-2.1217,-2.1407,-2.2665,-2.3488,-2.387,-2.3727,-2.3879,-2.3516,-2.2415,-2.2189,0.0,0.0,0.0,0.0,0.0,0.0,0.0,0.0,0.0,0.0,0.0,0.0,0.0,0.0,0.0,0.0,0.0,0.0,0.0,0.0,0.0,0.0,0.0,0.0,0.0,0.0,0.0,0.0,0.0,0.0,0.0,0.0,0.0,0.0,0.0,0.0,0.0,0.0,0.0,0.0,0.0,0.0,0.0,0.0,0.0,0.0,0.0,0.0,0.0,0.0,0.0,0.0,0.0,0.0,-4.2377,-4.233,-4.1526,-4.0999,-4.0696,-4.0527,-4.0,-3.9163,0.0,0.0,0.0,0.0,0.0,0.0,0.0,0.0,0.0,0.0,0.0,0.0,0.0,0.0,0.0,0.0,0.0,0.0,0.0,0.0,0.0,0.0,0.0,0.0,0.0,-3.0496,-3.0197,0.0,0.0,0.0,0.0,0.0,0.0,0.0,0.0,0.0,0.0,0.0,0.0,-2.0942,-2.0512,-2.058,-2.1371,-2.2189,-2.2574,-2.2317,-2.2896,-2.2683,-2.1351,-2.175,-2.1387,0.0,0.0,0.0,0.0,0.0,0.0,0.0,0.0,0.0,0.0,0.0,0.0,0.0,0.0,0.0,0.0,0.0,0.0,0.0,0.0,0.0,0.0,0.0,0.0,0.0,0.0,0.0,0.0,0.0,0.0,0.0,0.0,-3.6586,-3.6796,0.0,0.0,0.0,0.0,0.0,0.0,0.0,0.0,0.0,0.0,0.0,0.0,0.0,0.0,-4.176,-4.2752,-4.33,-4.34,-4.3457,-4.3464,-4.3363,-4.2509,-4.1629,-4.0837,-4.1529,0.0,-3.9829,-3.7904,0.0,0.0,0.0,0.0,0.0,0.0,0.0,0.0,0.0,0.0,0.0,0.0,0.0,0.0,0.0,0.0,0.0,0.0,0.0,0.0,0.0,0.0,-3.031,-2.8782,-2.844,-2.8296,0.0,-2.8106,-2.8489,-2.8353,0.0,0.0,0.0,0.0,0.0,0.0,0.0,0.0,-2.0238,-1.9229,-1.909,-2.0362,-2.1062,-2.1683,-2.2244,-2.2294,-2.2173,-2.1899,-2.065,-1.9976,-2.0137,-1.9119,0.0,0.0,0.0,0.0,0.0,0.0,0.0,0.0,0.0,0.0,0.0,0.0,0.0,0.0,0.0,0.0,0.0,0.0,0.0,0.0,0.0,0.0,0.0,0.0,0.0,0.0,0.0,0.0,0.0,-3.5998,-3.6998,-3.6306,-3.6695,-3.6356,0.0,0.0,0.0,0.0,0.0,0.0,0.0,0.0,0.0,-4.0904,-4.133,-4.1952,-4.2816,-4.2773,-4.276,-4.274,-4.2334,-4.1599,-4.0638,-4.0761,-4.0034,-3.8721,-3.9633,-3.9671,-3.9071,-3.8988,-3.852,-3.7771,0.0,0.0,0.0,0.0,0.0,-3.6746,-3.6441,0.0,0.0,0.0,0.0,0.0,0.0,0.0,0.0,0.0,0.0,0.0,0.0,0.0,0.0,-2.7935,-2.7569,-2.7354,-2.7267,-2.7258,-2.738,0.0,-2.7694,-2.7659,-2.7851,0.0,0.0,0.0,0.0,0.0,-1.8162,-1.7697,-1.7748,-1.8372,-1.9485,-2.0252,-2.0384,-2.1058,-2.1333,-2.102,-2.0298,-1.9508,-1.8644,-1.8018,-1.7762,0.0,0.0,0.0,0.0,0.0,0.0,0.0,0.0,0.0,0.0,0.0,0.0,0.0,0.0,0.0,0.0,0.0,0.0,0.0,0.0,0.0,0.0,0.0,0.0,0.0,0.0,0.0,0.0,-3.6345,-3.7024,-3.5664,-3.7258,-3.7515,0.0,0.0,0.0,0.0,0.0,0.0,-3.9293,-3.9247,-3.9925,-4.1552,-4.1602,-4.1903,-4.2554,-4.18,-4.131,-4.1096,-4.0298,-3.9104,-3.7689,-3.8376,-3.7848,-3.6405,-3.7359,-3.7608,-3.7478,-3.8935,-3.8786,-3.7604,-3.7436,-3.7209,-3.7023,-3.7245,-3.7047,-3.6668,-3.6802,-3.5751,-3.423,-3.3474,0.0,-3.1639,-3.0097,0.0,0.0,0.0,0.0,-2.8319,-2.7827,0.0,-2.684,-2.6599,-2.6247,-2.5933,-2.5901,-2.5411,-2.5393,0.0,-2.7303,-2.7459,-2.7243,0.0,0.0,0.0,0.0,-1.7685,-1.5724,-1.5685,-1.5838,-1.5919,-1.7353,-1.8378,-1.8407,-1.9579,-2.0149,-1.9732,-1.9395,-1.8451,-1.6734,-1.6307,-1.6006,-1.5703,0.0,0.0,0.0,0.0,0.0,0.0,0.0,0.0,0.0,0.0,0.0,0.0,0.0,0.0,0.0,0.0,0.0,0.0,0.0,0.0,0.0,0.0,0.0,0.0,0.0,0.0,0.0,0.0,0.0,-3.5361,-3.7434,0.0,0.0,0.0,0.0,-3.6386,-3.7224,-3.8051,-3.8784,-3.8529,-3.8928,-4.0157,-4.0215,-4.0234,-4.0272,-3.9785,-3.9138,-3.8393,-3.7588,-3.6748,-3.5936,-3.5975,-3.5488,-3.4675,-3.5611,-3.555,-3.4912,-3.6514,-3.7599,-3.8175,-3.7347,-3.7423,-3.7839,-3.6352,-3.5742,-3.5454,-3.396,-3.2352,-3.1023,-3.1534,-3.0943,-2.986,-2.896,-2.8985,0.0,0.0,-2.7938,-2.7304,-2.5688,-2.5263,-2.5023,-2.4192,-2.3689,-2.3332,-2.3137,-2.223,-2.242,0.0,-2.5424,-2.472,-2.501,0.0,-2.0019,-1.9221,-1.6917,-1.4761,-1.3185,-1.2991,-1.2981,-1.2927,-1.4468,-1.5937,-1.6995,-1.7975,-1.8459,-1.8315,-1.7238,-1.6027,-1.4805,-1.3749,-1.364,-1.4575,-1.5618,0.0,0.0,0.0,0.0,0.0,0.0,0.0,0.0,0.0,0.0,0.0,0.0,0.0,0.0,0.0,0.0,0.0,0.0,0.0,0.0,0.0,0.0,0.0,0.0,0.0,0.0,0.0,0.0,-3.657,-3.823,0.0,0.0,-3.6987,-3.7108,-3.6984,-3.7223,-3.7737,-3.8548,-3.848,-3.8861,-3.9823,-3.9347,-3.8797,-3.8249,-3.6992,-3.5971,-3.5181,-3.4319,-3.3557,-3.2906,-3.2986,-3.2626,-3.1972,-3.2917,-3.2868,-3.2175,-3.3272,-3.459,-3.5934,-3.6189,-3.6073,-3.5684,-3.4959,-3.4319,-3.3686,-3.2358,-3.0807,-2.9301,-2.8708,-2.8237,-2.7766,-2.7125,-2.7028,-2.7079,-2.6622,-2.6036,-2.5342,-2.4492,-2.3869,-2.3336,-2.2702,-2.1781,-2.0998,-2.0914,-1.9909,-1.9269,-2.0146,-2.0747,-2.113,-2.1233,-1.9276,-1.7313,-1.6057,-1.3982,-1.1975,-1.025,-1.0517,-1.0726,-1.037,-1.2148,-1.3899,-1.5225,-1.6588,-1.7447,-1.7617,-1.738,-1.6373,-1.4413,-1.386,-1.3705,-1.4057,-1.5721,-1.7415,0.0,0.0,0.0,0.0,0.0,0.0,0.0,0.0,0.0,0.0,0.0,0.0,0.0,0.0,0.0,0.0,0.0,0.0,0.0,0.0,0.0,0.0,0.0,0.0,0.0,0.0,-3.6872,-3.6058,-3.7299,-3.7713,-3.6329,-3.671,-3.7046,-3.7103,-3.7049,-3.7284,-3.7868,-3.753,-3.7493,-3.7875,-3.7081,-3.6233,-3.5388,-3.4091,-3.3053,-3.2239,-3.1389,-3.0625,-2.9954,-3.0041,-2.9843,-2.9464,-3.0164,-3.0185,-2.9732,-3.0358,-3.1276,-3.2391,-3.3661,-3.3707,-3.2994,-3.254,-3.1971,-3.124,-2.9789,-2.8525,-2.7358,-2.6097,-2.5817,-2.5917,-2.5565,-2.5291,-2.5052,-2.4866,-2.4058,-2.3199,-2.2915,-2.2181,-2.139,-2.0904,-1.9697,-1.861,-1.8438,-1.7255,-1.6099,-1.5606,-1.6889,-1.7928,-1.7528,-1.5872,-1.4026,-1.2404,-1.0641,-0.8944,-0.7217,-0.7637,-0.7923,-0.7462,-0.8821,-1.0738,-1.3164,-1.4765,-1.6108,-1.7174,-1.7734,-1.7068,-1.4924,-1.452,-1.45,-1.4879,-1.7202,-1.9073,-2.0401,0.0,0.0,0.0,0.0,0.0,0.0,0.0,0.0,0.0,0.0,0.0,0.0,0.0,0.0,0.0,0.0,0.0,0.0,0.0,0.0,0.0,0.0,0.0,-3.5293,-3.5509,-3.5054,-3.3707,-3.4618,-3.5027,-3.4123,-3.5448,-3.6423,-3.6559,-3.6547,-3.6528,-3.6528,-3.5486,-3.4684,-3.4204,-3.3361,-3.2542,-3.1763,-3.1205,-3.0503,-2.9727,-2.8933,-2.8102,-2.7289,-2.727,-2.7251,-2.7282,-2.7527,-2.7642,-2.7624,-2.7926,-2.7872,-2.7807,-2.9817,-3.0397,-3.0004,-2.9222,-2.8734,-2.8183,-2.6146,-2.5338,-2.5052,-2.385,-2.3848,-2.4322,-2.4297,-2.3805,-2.3214,-2.3214,-2.2134,-2.0959,-2.0943,-2.0146,-1.9184,-1.8644,-1.7359,-1.6146,-1.5622,-1.4241,-1.2997,-1.2544,-1.4048,-1.502,-1.4024,-1.2065,-1.0074,-0.8263,-0.6978,0.0,-0.4105,-0.4369,-0.454,-0.4187,-0.4445,-0.6341,-1.0606,-1.2363,-1.4299,-1.6728,-1.8027,-1.7924,-1.6218,-1.5594,-1.5861,-1.7116,-1.9909,-2.1968,-2.3216,0.0,0.0,0.0,0.0,0.0,0.0,0.0,0.0,0.0,0.0,0.0,0.0,0.0,0.0,0.0,0.0,0.0,0.0,0.0,0.0,0.0,0.0,-3.3992,-3.4878,-3.4554,-3.4294,-3.4497,-3.4825,-3.493,-3.4677,-3.4055,-3.3707,-3.3713,-3.2964,-3.2484,-3.2484,-3.2433,-3.2334,-3.2201,-3.1402,-3.0867,-3.0646,-2.9646,-2.8864,-2.8341,-2.7834,-2.7387,-2.6987,-2.6408,-2.6212,-2.6348,-2.6446,-2.6146,-2.5646,-2.632,-2.6181,-2.5786,-2.7749,-2.8352,-2.8023,-2.7407,-2.6484,-2.5393,-2.4234,-2.3799,-2.3624,-2.2762,-2.2607,-2.2634,-2.2111,-2.1782,-2.1613,-2.1613,-2.1071,-2.0262,-1.95,-1.8563,-1.7582,-1.6712,-1.5063,-1.3606,-1.3458,-1.2125,-1.0677,-0.9806,-0.9776,-1.0016,-1.0447,-0.8893,-0.7263,-0.6182,0.0,0.0,-0.2053,-0.234,-0.2077,-0.0695,-0.0731,-0.1677,-0.3652,-0.7534,-1.0495,0.0,-1.6139,-1.8154,-1.7452,-1.7295,-1.821,-2.0206,-2.1576,-2.27,0.0,0.0,0.0,0.0,0.0,0.0,0.0,0.0,0.0,0.0,0.0,0.0,0.0,0.0,0.0,0.0,0.0,0.0,0.0,0.0,0.0,0.0,-3.2546,-3.2572,-3.2569,-3.2619,-3.2825,-3.3227,-3.2557,-3.2228,-3.265,-3.1859,-3.1414,-3.1625,-3.1005,-3.0668,-3.0668,-3.0523,-3.0287,-3.0005,-2.9199,-2.8619,-2.8281,-2.7245,-2.6615,-2.6372,-2.5799,-2.5466,-2.5322,-2.488,-2.4722,0.0,-2.4911,-2.4687,-2.4296,-2.4845,-2.4754,0.0,0.0,0.0,0.0,0.0,-2.4595,-2.3808,-2.3203,-2.288,-2.266,-2.2085,-2.177,-2.1516,-2.0863,-2.0552,-2.0302,-1.9802,-1.9313,-1.8767,-1.7899,-1.6801,-1.5617,-1.4586,-1.295,-1.1474,-1.1048,-0.9823,-0.8608,-0.7995,0.0,0.0,-0.6716,-0.5908,-0.4884,-0.3927,-0.2672,-0.1432,0.0,-0.0273,0.022,0.1538,0.1981,0.1398,-0.0575,-0.5105,0.0,0.0,0.0,-1.9808,-2.0066,-2.0348,0.0,0.0,0.0,-2.3394,0.0,0.0,0.0,0.0,-2.5018,-2.504,0.0,0.0,0.0,0.0,0.0,0.0,0.0,0.0,0.0,0.0,0.0,0.0,0.0,0.0,0.0,0.0,-3.1638,-3.0451,-2.944,-3.0104,-3.0661,-3.0588,-2.9104,-2.8452,-2.9265,-2.9316,-2.9447,-2.9735,-2.9897,-2.991,-2.9715,0.0,0.0,0.0,0.0,-2.6233,-2.5628,-2.4746,-2.4375,-2.4382,-2.3642,-2.3253,-2.3189,-2.3147,-2.3124,-2.3147,-2.3316,-2.339,-2.3412,-2.3646,-2.3585,-2.339,-2.3971,-2.4026,-2.3735,-2.3252,-2.3028,0.0,0.0,0.0,0.0,-2.1519,-2.1134,-2.0732,-2.0153,-1.9703,-1.92,-1.8051,-1.7437,-1.6933,-1.6166,-1.4873,-1.3449,-1.236,-1.0925,-0.9582,-0.861,-0.7529,-0.6687,-0.6603,-0.4876,-0.3365,-0.3234,-0.3193,-0.2829,-0.1773,-0.0638,0.0,0.1081,0.1643,0.2268,0.3011,0.0,0.0,0.068,-0.3599,-0.7913,-1.214,-1.8093,-2.1838,-2.2762,-2.355,-2.4037,-2.4126,-2.4019,-2.3805,-2.3488,-2.3159,-2.2334,-2.1128,-2.3074,-2.346,0.0,0.0,0.0,0.0,0.0,0.0,0.0,0.0,0.0,0.0,0.0,0.0,0.0,0.0,0.0,-2.9716,-2.9668,-2.9255,-2.8088,-2.7624,-2.7588,-2.8046,-2.7794,-2.7541,-2.7557,-2.7581,-2.7276,-2.6563,-2.7359,-2.7352,-2.6173,-2.6831,0.0,-2.6082,-2.5275,-2.5098,-2.561,-2.4524,-2.4112,-2.4382,0.0,0.0,-2.3189,-2.2877,-2.2718,-2.2718,-2.275,-2.2783,-2.2807,-2.3188,-2.2933,-2.2452,-2.3141,-2.3029,-2.2435,-2.2337,-2.1938,-2.1411,-2.1366,-2.1274,-2.1086,-2.0268,-1.9924,-1.9713,-1.8783,-1.8454,0.0,-1.7518,-1.6959,-1.6198,-1.4565,-1.3129,-1.1741,-1.0058,-0.8623,-0.7425,-0.6752,-0.5689,-0.4756,-0.4275,-0.3447,-0.2529,-0.156,-0.1383,-0.1163,-0.045,0.0269,0.1297,0.2781,0.312,0.376,0.5341,0.678,0.7055,0.5683,0.1394,-0.2889,-0.6773,-1.5834,-2.0993,-2.0927,-2.2793,-2.3403,-2.2486,-2.29,-2.2811,-2.2167,-2.153,-2.0479,-1.9161,-2.0329,-2.0483,0.0,0.0,0.0,0.0,0.0,0.0,0.0,0.0,0.0,0.0,0.0,-3.1237,0.0,0.0,-2.9032,-2.9173,-2.877,-2.7997,-2.675,-2.568,-2.5241,-2.5816,-2.5582,-2.5345,-2.5159,-2.5167,-2.4944,-2.443,-2.5128,-2.5283,-2.4537,-2.5252,-2.5316,-2.4517,-2.4108,-2.3917,-2.3971,-2.3381,-2.3165,-2.3362,-2.3182,-2.2976,-2.2721,-2.2289,-2.209,-2.209,-2.1876,-2.179,-2.1819,-2.2006,-2.1881,-2.1592,-2.1967,-2.1881,-2.1562,-2.1562,-2.1305,-2.0991,-2.0991,-2.0862,-2.055,-1.9834,-1.9441,-1.8999,-1.7652,-1.7259,-1.6998,-1.5811,-1.5048,-1.4293,-1.2841,-1.1382,-0.9985,-0.864,-0.7418,-0.6386,-0.5839,-0.5024,-0.4204,-0.3632,-0.2568,-0.1508,-0.0624,0.0045,0.0446,0.0446,0.1468,0.2532,0.3369,0.4025,0.486,0.605,0.6877,0.7105,0.6641,0.0975,-0.4552,-0.931,-1.5599,-1.9251,-1.9433,-2.0699,-2.111,-2.0507,-2.082,-2.0433,-1.9299,-1.9259,-1.836,-1.6718,-1.7093,-1.7419,0.0,0.0,0.0,0.0,0.0,0.0,0.0,0.0,-3.1643,-3.1802,-3.0511,-2.9609,-3.0608,-2.8993,-2.7769,-2.8484,-2.7758,-2.6655,-2.5416,-2.4388,-2.3857,-2.4045,-2.3496,-2.2994,-2.2837,-2.2971,-2.3023,-2.2964,-2.3453,-2.3703,-2.3522,-2.3927,-2.3809,-2.3055,-2.3144,-2.2902,-2.231,-2.231,-2.231,-2.231,-2.2209,-2.2163,-2.2152,-2.1598,-2.1399,-2.146,-2.115,-2.0991,-2.0991,-2.0894,-2.0862,-2.0862,-2.0764,-2.0682,-2.0616,-2.0797,-2.0797,-2.0731,-2.0731,-2.0416,-1.9954,-1.9477,-1.891,-1.8143,-1.6676,-1.6176,-1.5728,-1.4064,-1.3215,-1.2493,-1.1217,-0.9834,-0.8518,-0.7406,-0.647,-0.5701,-0.5154,-0.4422,-0.3732,-0.3125,-0.1668,-0.036,0.027,0.1343,0.196,0.1472,0.262,0.3632,0.3982,0.486,0.5696,0.6307,0.6349,0.6118,0.553,-0.0832,-0.6947,-1.2093,-1.5008,-1.6784,-1.7297,-1.7958,-1.8156,-1.7829,-1.8007,-1.7463,-1.6151,-1.661,-1.5972,-1.4251,-1.4093,-1.4631,-3.3747,-3.3093,-3.2166,-3.2755,-3.1998,-3.1473,0.0,0.0,-3.0799,-2.905,-2.8521,-2.7911,-2.6392,-2.592,-2.5518,-2.5135,-2.542,-2.5299,-2.4061,-2.4264,-2.4073,-2.3032,-2.231,-2.1773,-2.1543,-2.2113,-2.2389,-2.2139,-2.2838,-2.2969,-2.2258,-2.2638,-2.2562,-2.182,-2.2195,-2.2395,-2.231,-2.231,-2.231,-2.2282,-2.1899,-2.1688,-2.1658,-2.083,-2.0682,-2.1055,-2.1023,-2.0991,-2.0959,-2.055,-2.0382,-2.0348,-1.9965,-1.9536,-1.9251,-2.0058,-2.0158,-1.9854,-1.9854,-1.95,-1.8954,-1.8444,-1.7545,-1.6549,-1.5872,-1.532,-1.463,-1.3301,-1.287,-1.2201,-0.965,-0.8666,-0.7884,-0.602,-0.518,-0.473,-0.423,-0.3085,-0.19,-0.1323,-0.0144,0.0944,0.1649,0.264,0.3281,0.3234,0.3369,0.4069,0.569,0.6007,0.6307,0.6852,0.6923,0.5831,0.3245,-0.0823,-0.4572,-0.7628,-1.1384,-1.3375,-1.3098,-1.4888,-1.5174,-1.3616,-1.4249,-1.4311,-1.377,-1.3606,-1.314,-1.2412,-1.2139,-1.2425,-3.0251,-2.9948,0.0,0.0,-2.8822,-2.8393,-2.8883,-2.8257,-2.7357,-2.6435,-2.5813,-2.5284,-2.4596,-2.4459,-2.4326,0.0,-2.4141,-2.4091,-2.3224,-2.3022,-2.2731,-2.2163,-2.2203,-2.2074,-2.1576,-2.1105,-2.1103,-2.1772,-2.1978,-2.1953,-2.16,-2.2396,-2.2476,-2.1631,-2.1948,-2.2181,-2.2282,-2.1797,-2.1645,-2.1899,-2.1446,-2.1244,-2.1244,-2.0878,-2.0665,-2.0583,-2.0345,-2.0243,-2.0208,-2.0035,-1.9929,-1.9894,-1.9427,-1.9095,-1.8968,-1.9361,-1.9177,-1.8765,-1.8765,-1.8612,-1.8288,-1.7382,-1.6528,-1.5576,-1.4334,-1.3507,-1.2782,-1.1886,-1.1073,-1.0101,-0.8816,-0.7524,-0.6197,-0.4774,-0.4048,-0.3368,-0.2422,-0.1963,-0.1418,-0.0093,0.0554,0.1234,0.2242,0.3325,0.4164,0.4513,0.486,0.5341,0.6093,0.6184,0.6136,0.6033,0.5679,0.4561,0.2314,-0.0256,-0.2995,-0.5815,-0.8481,-1.0153,-1.0615,-1.1465,-1.1538,-1.0812,-1.0733,-1.0305,-0.9558,-1.009,-1.0166,-0.9731,-0.9857,-1.0335,-2.6952,0.0,0.0,-2.6149,-2.5789,-2.5508,-2.5042,-2.4585,-2.404,-2.3268,-2.2805,-2.2503,-2.2561,-2.2761,0.0,-2.2687,-2.2828,-2.2883,-2.2677,-2.2271,-2.2106,-2.245,-2.2757,-2.2892,-2.2787,-2.1395,-2.0917,-2.1889,-2.1599,-2.1427,-2.1427,-2.2108,-2.2118,-2.126,-2.1552,-2.1778,-2.1961,-2.1323,-2.115,-2.143,-2.1023,-2.0797,-2.0797,-2.0797,-2.0565,-2.0124,-1.9929,-1.9818,-1.969,-1.969,-1.9603,-1.9442,-1.9043,-1.8727,-1.8458,-1.8458,-1.8302,-1.8106,-1.8106,-1.7894,-1.7464,-1.6456,-1.5489,-1.4417,-1.2954,-1.2015,-1.1273,-1.0434,-0.9511,-0.8469,-0.7475,-0.6152,-0.4782,-0.3631,-0.2817,-0.2076,-0.1142,-0.0934,-0.0485,0.0951,0.1489,0.2064,0.3129,0.4272,0.5111,0.5491,0.6145,0.652,0.6447,0.6307,0.5922,0.513,0.4648,0.3716,0.1943,0.0307,-0.1747,-0.4324,-0.6109,-0.7423,-0.8229,-0.819,-0.8103,-0.7943,-0.7148,-0.6386,-0.5658,-0.6544,-0.7007,-0.6979,-0.7756,-0.8495,0.0,0.0,-2.4984,-2.4267,-2.3997,-2.3592,-2.2476,-2.2193,-2.152,-1.9287,-1.9462,-1.9967,-1.9433,-2.0084,-2.0751,-2.102,-2.1174,-2.1591,-2.2506,-2.2635,-2.3138,-2.4373,-2.3969,-2.4073,0.0,-2.3729,-2.2649,-2.2679,-2.2079,-2.1704,-2.1704,-2.1445,-2.1042,-2.0364,-2.078,-2.1023,-2.1039,-2.0991,-2.1007,-2.0991,-2.055,-2.0314,-2.0314,-2.0314,-2.0089,-1.9747,-2.0124,-2.0054,-1.969,-1.969,-1.9406,-1.893,-1.8893,-1.8263,-1.7353,-1.7353,-1.7666,-1.8106,-1.8106,-1.7395,-1.6366,-1.5671,-1.4257,-1.2754,-1.1957,-1.1332,-1.0551,-0.9148,-0.8731,-0.8029,-0.5225,-0.4474,-0.4036,-0.2609,-0.157,-0.1011,-0.1096,0.0108,0.1382,0.2024,0.3024,0.3936,0.4689,0.5773,0.6466,0.622,0.6918,0.7348,0.7018,0.652,0.5744,0.4565,0.4391,0.3683,0.1962,0.0665,-0.0796,-0.2656,-0.4405,-0.5368,-0.5432,-0.5375,-0.5061,-0.4578,-0.3367,-0.2751,-0.2708,-0.3081,-0.3642,-0.4342,-0.5949,-0.7036,-2.1409,0.0,-2.111,-2.0355,-2.0217,-1.9731,-1.7578,-1.7213,-1.6899,-1.5534,-1.5409,-1.583,-1.6788,-1.7835,-1.8542,-1.8816,-1.9783,-2.0514,-2.0411,-2.1727,-2.2852,-2.3283,-2.4682,0.0,0.0,0.0,0.0,-2.4552,-2.3595,-2.2951,-2.2951,-2.2892,-2.2254,-2.0992,-2.1295,-2.131,-2.1007,-2.0447,-2.0261,-2.0516,-2.0089,-2.0035,-2.028,-2.0019,-1.9965,-2.0089,-1.9965,-1.9854,-1.969,-1.969,-1.9369,-1.8855,-1.8496,-1.7947,-1.7229,-1.6446,-1.6009,-1.5862,-1.6268,-1.5915,-1.5118,-1.4025,-1.2944,-1.1751,-1.0199,-0.9252,-0.8547,-0.7587,-0.6602,-0.5612,-0.4641,-0.3657,-0.2558,-0.1113,-0.0497,0.0054,0.1401,0.1812,0.2316,0.3833,0.4106,0.4439,0.5576,0.6211,0.6651,0.6728,0.698,0.6871,0.6002,0.5696,0.5178,0.4012,0.388,0.3476,0.2497,0.1287,0.0,-0.1413,-0.2824,-0.3567,-0.3503,-0.315,-0.2486,-0.1517,-0.0305,0.0803,0.1857,0.0193,-0.0953,-0.1555,-0.446,-0.6919,-1.9255,-1.8839,-1.834,-1.7589,-1.7022,-1.5869,-1.3067,-1.2389,-1.2042,-1.1107,-1.1333,-1.2276,-1.4468,-1.6169,-1.737,-1.7833,-1.9077,-2.0006,-2.0027,-2.1328,-2.2663,-2.3607,-2.5189,0.0,0.0,0.0,0.0,-2.557,-2.4807,-2.4103,-2.3625,-2.3385,-2.2621,-2.114,-2.125,-2.1083,-2.0548,-1.998,-1.9854,-2.0089,-1.9803,-1.9854,-2.0089,-1.9818,-1.9839,-2.0054,-1.9609,-1.953,-1.969,-1.9479,-1.9095,-1.8574,-1.7999,-1.7341,-1.6574,-1.5632,-1.488,-1.4391,-1.4778,-1.4356,-1.347,-1.2396,-1.1405,-1.0343,-0.8783,-0.7688,-0.6779,-0.6023,-0.4747,-0.3476,-0.2984,-0.194,-0.0666,0.0831,0.1385,0.2036,0.3613,0.3865,0.4207,0.5705,0.5622,0.5675,0.676,0.7008,0.7144,0.7477,0.7321,0.6705,0.5443,0.5303,0.4874,0.3711,0.3581,0.335,0.2763,0.1775,0.0797,-0.0177,-0.0969,-0.1403,-0.135,-0.0611,0.0306,0.1448,0.2865,0.4223,0.5555,0.4271,0.2153,-0.0741,-0.3611,-0.7242,-1.8219,-1.7545,-1.656,-1.5879,-1.4315,-1.2131,-0.9168,-0.7816,-0.7013,-0.6238,-0.7398,-0.9384,0.0,0.0,-1.7004,-1.7822,-1.8905,-2.0038,-2.1038,-2.148,-2.2558,0.0,0.0,0.0,0.0,0.0,0.0,-2.5749,0.0,-2.5046,-2.3774,-2.3071,-2.2113,-2.0797,-2.0767,-2.0423,-1.969,-1.969,-1.969,-1.969,-1.969,-1.9639,-1.9639,-1.9639,-1.9639,-1.9603,-1.9132,-1.9169,-1.9566,-1.908,-1.8535,-1.7973,-1.7396,-1.6481,-1.5499,-1.4835,-1.4236,-1.3663,-1.3507,-1.2667,-1.1554,-1.0806,-0.9688,-0.8469,-0.7759,-0.6553,-0.5229,-0.4474,-0.3194,-0.1705,-0.0333,0.0666,0.1659,0.3094,0.3975,0.4743,0.5446,0.6176,0.6897,0.7558,0.7546,0.7652,0.826,0.811,0.8043,0.831,0.791,0.6982,0.5538,0.5318,0.4879,0.3721,0.3585,0.3353,0.2807,0.2222,0.1641,0.1063,0.1054,0.1048,0.1135,0.2186,0.3278,0.4361,0.6118,0.7494,0.8528,0.9097,0.5605,-0.1596,-0.3266,-0.7855,-1.4548,-1.4204,-1.3675,-1.2251,-1.0607,-0.8643,-0.5989,-0.3714,-0.278,-0.4656,-0.5208,-0.6687,0.0,0.0,0.0,-1.6784,-1.8799,0.0,-2.0049,-2.1394,0.0,-2.332,0.0,-2.5966,-2.7016,-2.7859,0.0,0.0,-2.5884,-2.545,-2.5121,-2.3999,-2.2772,-2.1485,-2.1455,-2.0872,-1.969,-1.969,-1.969,-1.969,-1.9281,-1.9095,-1.9095,-1.9095,-1.8893,-1.8535,-1.8779,-1.8727,-1.8496,-1.838,-1.772,-1.6802,-1.6663,-1.5903,-1.4778,-1.3679,-1.285,-1.1997,-1.0487,-1.0436,-1.0839,-0.9592,-0.8214,-0.6818,-0.5617,-0.458,-0.3589,-0.2323,-0.0882,0.033,0.072,0.2526,0.4419,0.4768,0.5828,0.6781,0.6999,0.7641,0.8227,0.8403,0.8847,0.9154,0.9111,0.8637,0.821,0.807,0.7909,0.7308,0.6002,0.551,0.4886,0.3862,0.3643,0.3534,0.3398,0.3202,0.3011,0.2832,0.2819,0.324,0.4085,0.4697,0.6018,0.7989,0.9179,1.0856,1.3034,1.2423,0.8111,0.047,-0.2188,-0.8317,-1.2477,-1.2174,-1.1717,-1.0839,-0.875,-0.6078,-0.3044,-0.0638,0.0361,-0.1568,-0.2423,0.0,0.0,0.0,0.0,0.0,0.0,0.0,-2.0065,-2.1262,-2.2444,0.0,-2.3965,0.0,-2.646,-2.6526,-2.6498,0.0,-2.6243,-2.5794,-2.5211,-2.3924,-2.2742,-2.1724,-2.141,-2.0752,-1.969,-1.9479,-1.9479,-1.969,-1.9406,-1.9132,-1.8893,-1.8893,-1.8612,-1.8106,0.0,-1.8013,-1.7706,-1.7464,-1.6831,-1.5966,-1.5736,-1.4891,-1.3737,-1.2725,-1.172,-1.0588,-0.884,-0.8111,-0.7835,-0.7056,-0.5828,-0.4419,-0.3291,-0.2201,-0.1104,0.0,0.1432,0.2644,0.292,0.4703,0.643,0.6764,0.7699,0.8579,0.8899,0.9563,1.0015,1.0038,1.062,1.0889,1.016,0.9688,0.9285,0.882,0.863,0.7996,0.6457,0.5788,0.5046,0.3922,0.3882,0.3965,0.3965,0.4374,0.466,0.466,0.5302,0.6085,0.7018,0.797,0.9518,1.1675,1.2718,1.4413,1.672,1.5839,1.0155,0.0,-0.4677,-1.1772,-1.1119,-1.0739,-1.0161,-1.0009,-0.7488,-0.418,-0.0764,0.1484,0.257,0.1344,0.0,-0.2797,-0.8432,0.0,-1.3645,-1.5583,0.0,-1.9975,-2.0413,-2.1056,-2.2094,-2.3676,-2.3138,-2.3571,-2.5967,-2.469,-2.4404,-2.6079,-2.6221,-2.5685,-2.4507,-2.3283,-2.2241,-2.1511,-2.0801,-2.0214,-1.969,-1.9095,-1.9095,-1.969,-1.9479,-1.9207,-1.8893,-1.8727,-1.8419,-1.7947,0.0,0.0,-1.6931,-1.6409,-1.5748,-1.5093,-1.4586,-1.357,-1.2308,-1.1522,-1.0394,-0.9034,-0.7425,-0.5584,-0.3911,-0.4041,-0.3066,-0.1647,-0.0875,0.0275,0.155,0.2311,0.3577,0.4805,0.5341,0.6737,0.8187,0.8724,0.9533,1.0436,1.1106,1.1764,1.2262,1.2281,1.2619,1.2512,1.1299,1.0914,1.0618,1.0012,0.9675,0.8832,0.709,0.6224,0.526,0.4055,0.4225,0.4499,0.46,0.5642,0.6374,0.6537,0.8024,0.9209,0.9915,1.1445,1.317,1.4992,1.6222,1.7747,1.9606,1.822,1.1022,-0.1477,-0.8361,-1.6071,-0.8809,-0.8614,-0.8081,-0.6601,-0.4596,-0.2391,-0.0473,0.2057,0.0,0.0,0.0,-0.2581,-0.6798,-1.0218,0.0,-1.5555,0.0,0.0,0.0,0.0,-2.1534,0.0,0.0,0.0,0.0,0.0,0.0,0.0,0.0,0.0,-2.3775,-2.2657,-2.1493,-2.0248,-1.9566,-1.9361,-1.969,-1.8727,-1.8727,-1.969,-1.8341,-1.8145,-1.8855,-1.7987,-1.7544,-1.7435,0.0,0.0,-1.5828,-1.5219,-1.4332,-1.328,-1.3137,-1.1929,-1.0074,-0.8806,-0.7804,-0.6685,-0.4034,-0.2462,-0.1755,-0.2358,-0.1155,0.0663,0.1427,0.2256,0.3097,0.3811,0.5066,0.6108,0.5638,0.7858,1.012,0.9636,1.1338,1.3192,1.3535,1.4427,1.5222,1.5298,1.4316,1.3246,1.2561,1.1548,1.0762,1.0669,1.0112,0.9379,0.8469,0.6957,0.563,0.4808,0.4691,0.4956,0.5754,0.6755,0.7744,0.877,1.0293,1.1634,1.2648,1.4093,1.5453,1.6729,1.8381,1.9878,2.1261,1.5678,0.8196,-0.0997,-0.8457,-1.6653,-0.5982,-0.5576,-0.5046,-0.4792,-0.3873,-0.2963,-0.2594,0.0,0.0,0.0,-0.2194,-0.2913,-0.5894,0.0,0.0,0.0,0.0,0.0,0.0,0.0,0.0,0.0,0.0,0.0,0.0,0.0,0.0,0.0,0.0,0.0,-2.2219,-2.1098,-2.0114,-1.9397,-1.8821,-1.8727,-1.9281,-1.8765,-1.8765,-1.9281,-1.8496,-1.8106,-1.8027,-1.7203,-1.6701,-1.6361,0.0,0.0,-1.4584,-1.3564,-1.2802,-1.219,-1.1455,-1.0335,-0.9016,-0.7553,-0.6095,-0.453,-0.2356,-0.0384,0.1206,0.1206,0.1926,0.3039,0.413,0.474,0.519,0.5905,0.6612,0.7261,0.7623,0.9245,1.0906,1.1206,1.3205,1.511,1.5599,1.6124,1.6522,1.66,1.556,1.446,1.3867,1.3243,1.2619,1.1935,1.1589,1.083,0.9386,0.8464,0.73,0.5658,0.6055,0.6693,0.7303,0.8834,1.0245,1.1419,1.2682,1.3974,1.5325,1.6687,1.808,1.9515,1.7184,1.633,1.7053,1.2167,0.4158,-0.6734,-1.5012,-2.1221,-0.3471,-0.2594,-0.1939,-0.2424,-0.2533,-0.2852,-0.4408,-0.4273,0.0,0.0,-0.4312,-0.3855,-0.5193,0.0,0.0,0.0,0.0,0.0,0.0,0.0,0.0,0.0,0.0,0.0,0.0,0.0,0.0,0.0,0.0,0.0,0.0,-1.974,-1.899,-1.8907,-1.8496,-1.8458,-1.8893,-1.865,-1.8612,-1.8727,-1.8496,-1.8066,-1.7463,-1.6744,-1.6188,-1.5708,0.0,0.0,0.0,-1.2113,-1.1539,-1.1458,-1.0054,-0.8971,-0.8041,-0.644,-0.4653,-0.2806,-0.0991,0.1317,0.3673,0.4732,0.4969,0.5144,0.6416,0.6858,0.6966,0.7711,0.8031,0.8402,0.9488,1.0501,1.163,1.3314,1.5416,1.7221,1.7862,1.8082,1.8158,1.803,1.6952,1.591,1.5306,1.4949,1.4365,1.3348,1.31,1.2347,1.0588,1.0234,0.9256,0.6962,0.7717,0.8592,0.9142,1.0811,1.2446,1.3846,1.4913,1.6249,1.7823,1.9026,1.9714,1.9797,1.4386,1.1211,1.0426,0.5994,-0.1623,-1.2199,-2.096,-2.5203,-0.1791,-0.073,0.0571,0.2217,0.189,0.0197,-0.3702,0.0,0.0,-0.6929,-0.674,-0.5726,-0.4394,-0.6491,-0.9514,0.0,0.0,0.0,0.0,0.0,0.0,0.0,0.0,0.0,0.0,0.0,0.0,0.0,0.0,0.0,0.0,-1.9631,-1.8912,-1.8893,-1.8855,-1.8855,-1.8893,-1.7947,-1.7706,-1.8185,-1.7188,-1.7188,-1.7987,-1.6951,-1.6441,-1.625,0.0,0.0,0.0,-1.1697,-1.0914,-1.0762,-0.9349,-0.7947,-0.6519,-0.4358,-0.3046,-0.1892,0.0945,0.2925,0.4534,0.6615,0.6876,0.6529,0.7343,0.7616,0.7717,0.8429,0.9117,0.9644,0.9695,1.1148,1.3324,1.6039,1.8404,2.0162,2.0778,2.1289,2.1486,2.1012,1.9125,1.7436,1.6952,1.5656,1.4652,1.456,1.4007,1.3365,1.2609,1.1948,1.0912,0.9264,0.9141,0.9778,1.1281,1.1906,1.3193,1.5439,1.6797,1.8321,2.0038,2.0812,1.8821,1.3728,1.054,0.6925,0.2784,-0.5384,-1.0364,-1.2469,-2.0715,-2.4899,0.1818,0.346,0.4896,0.5705,0.5477,0.2841,-0.5436,0.0,-0.7207,-1.1239,-1.0615,-0.8397,-0.5353,-0.7145,-0.9868,0.0,0.0,0.0,0.0,0.0,0.0,0.0,0.0,0.0,0.0,0.0,0.0,0.0,0.0,0.0,0.0,-1.9109,-1.8574,-1.8893,-1.8893,-1.8893,-1.8893,-1.8496,-1.8224,-1.8106,-1.7353,-1.7034,-1.7118,-1.594,-1.5421,-1.5252,0.0,0.0,0.0,-1.0864,-1.0218,-1.0005,-0.8165,-0.6827,-0.5679,-0.3434,-0.161,0.0,0.1615,0.3437,0.5179,0.6058,0.7036,0.8006,0.8764,0.8672,0.8527,0.9176,0.9599,1.0056,1.1265,1.3465,1.5849,1.7775,1.9463,2.0764,2.121,2.1292,2.1081,2.0316,1.895,1.7664,1.6889,1.6709,1.6545,1.6223,1.556,1.491,1.4316,1.3492,1.2069,0.9791,1.0277,1.1125,1.1935,1.3609,1.5465,1.7468,1.8968,1.8027,1.4051,1.5004,1.2303,0.5235,0.0152,-0.3506,-0.5749,-1.3881,-1.8449,-1.9675,-2.3126,-2.5031,0.4561,0.6723,0.8613,0.8901,0.8135,0.4914,0.0,0.0,-1.0442,-1.6605,-1.5229,-1.1655,-0.7573,-0.8902,-1.115,0.0,0.0,-1.7948,0.0,0.0,0.0,0.0,0.0,0.0,0.0,0.0,0.0,0.0,0.0,0.0,0.0,-1.8867,-1.8574,-1.9132,-1.8968,-1.8893,-1.8893,-1.8727,-1.838,-1.7867,-1.7312,-1.6879,-1.6466,-1.5421,-1.488,0.0,0.0,0.0,0.0,-1.0167,-0.9503,-0.928,-0.7331,-0.6131,-0.5237,-0.3,-0.1056,0.061,0.1782,0.366,0.5521,0.5959,0.7292,0.8842,0.9599,0.9614,0.951,1.0218,1.0661,1.1423,1.3293,1.5437,1.7449,1.8802,2.0075,2.105,2.1483,2.1236,2.0799,2.0322,1.9265,1.8201,1.7464,1.7956,1.8321,1.808,1.7653,1.6402,1.3882,1.2972,1.075,0.6002,0.6848,0.8265,0.9437,1.0235,1.1456,1.3353,1.4521,1.2773,0.7485,0.6469,0.344,-0.2081,-0.942,-1.3297,-1.3575,-1.9681,-2.3306,-2.4521,-2.4847,-2.5227,0.568,0.8273,1.0942,1.1905,0.9822,0.619,0.0,0.0,-1.4041,-2.2791,-2.0518,-1.5599,-1.117,-1.1864,-1.3648,-1.5478,-1.694,0.0,0.0,0.0,0.0,0.0,0.0,0.0,0.0,0.0,0.0,0.0,0.0,0.0,0.0,0.0,-1.9132,-1.969,-1.9169,-1.8893,-1.8893,-1.838,-1.7827,-1.7312,-1.6752,-1.6522,-1.6466,-1.5864,0.0,0.0,0.0,0.0,0.0,-0.9614,-0.8778,-0.8574,-0.7165,-0.6145,-0.521,-0.3005,-0.1725,-0.0777,0.1447,0.3591,0.5636,0.711,0.8088,0.8842,0.9599,1.0261,1.0914,1.1616,1.2735,1.4089,1.5684,1.6571,1.7503,1.9016,2.0366,2.1447,2.2046,2.1721,2.1464,2.2062,2.0665,1.937,1.937,1.9385,1.9588,2.0175,2.0241,1.7677,1.058,0.965,0.61,-0.3161,-0.2656,-0.0316,0.2998,-0.0034,-0.122,0.086,0.1063,0.1305,0.1768,-0.4199,-0.7445,-0.7311,-1.6522,-2.0969,-2.0288,-2.2461,-2.3933,-2.4799,-2.5072,-2.5381,0.5409,0.7637,0.945,0.9862,0.8513,0.4535,-0.5296,0.0,-1.4383,-2.204,-2.1829,-1.9065,-1.5082,-1.587,-1.744,-1.8442,-1.9866,0.0,0.0,0.0,0.0,0.0,0.0,0.0,0.0,0.0,0.0,0.0,0.0,0.0,0.0,0.0,-1.838,-1.9639,-1.9169,-1.8893,-1.8893,-1.7987,-1.7463,-1.7312,-1.6752,-1.6522,-1.6466,-1.5466,0.0,0.0,0.0,0.0,0.0,-0.9909,-0.9451,-0.9273,-0.7331,-0.5851,-0.446,-0.227,-0.0333,0.1334,0.2561,0.3779,0.4878,0.5316,0.5941,0.6498,0.6711,0.8022,0.9666,1.0813,1.2366,1.4093,1.5672,1.6885,1.7963,1.8903,1.9588,2.0295,2.1343,2.1583,2.1746,2.2374,2.2014,2.1263,2.0188,2.0479,1.9434,1.5309,1.4083,1.1138,0.4326,0.2526,-0.0111,-0.5311,-0.7363,-0.6442,-0.172,-0.0741,0.0069,0.1138,0.1874,-0.0291,-0.5994,-0.7392,-1.0946,-1.719,-1.9955,-2.1524,-2.1908,-2.3209,-2.4253,-2.5007,-2.529,-2.5454,0.0,0.4349,0.578,0.5578,0.3911,0.0,0.0,0.0,-1.7176,-2.2502,-2.3424,-2.2345,-1.9112,-1.9737,-2.0858,-2.1212,-2.2696,0.0,0.0,0.0,0.0,0.0,0.0,0.0,0.0,0.0,0.0,0.0,0.0,0.0,0.0,0.0,-1.7867,-1.9043,-1.8574,-1.8496,-1.8893,-1.7827,-1.7394,-1.7585,-1.6642,-1.6151,-1.6107,0.0,0.0,0.0,0.0,0.0,0.0,-0.9814,-0.9249,-0.8876,-0.7224,-0.5684,-0.4184,-0.2215,-0.0278,0.1504,0.2286,0.301,0.3677,0.395,0.3944,0.3708,0.3151,0.5263,0.8044,0.8889,1.0961,1.3196,1.4554,1.6178,1.7785,1.9163,1.9617,2.0124,2.1516,2.1729,2.1889,2.2827,2.1933,2.0792,2.0129,1.8651,1.5455,0.9198,0.7968,0.5291,-0.1545,-0.326,-0.5791,-1.0893,-1.2573,-1.2132,-0.9161,-0.7388,-0.6138,-0.541,-0.4898,-0.7141,-1.2727,-1.2469,-1.4876,-2.0606,-2.0825,-2.1256,-2.2051,-2.3547,-2.4572,-2.5111,-2.535,-2.5488,0.0,-0.1612,0.0,0.0,0.0,0.0,0.0,0.0,0.0,-2.4183,-2.5279,-2.518,-2.3042,-2.3288,-2.3769,-2.3766,0.0,0.0,0.0,0.0,0.0,0.0,0.0,0.0,0.0,0.0,0.0,0.0,0.0,0.0,0.0,0.0,0.0,-1.7987,-1.7463,-1.7706,-1.8779,-1.7747,-1.7463,-1.7894,-1.6336,-1.5588,-1.5499,0.0,0.0,0.0,0.0,0.0,0.0,-0.9309,-0.8368,-0.7717,-0.6912,-0.5697,-0.4207,-0.2726,-0.128,0.0111,0.0781,0.1562,0.2284,0.2824,0.1997,0.0576,-0.1034,0.1866,0.5661,0.5663,0.7911,1.0602,1.1764,1.3609,1.589,1.8687,1.9101,1.9367,2.0976,2.0806,2.084,2.2593,2.0137,1.7979,1.8701,1.4206,0.8449,0.2347,0.1597,-0.0667,-0.7287,-0.8139,-1.1041,-1.8578,-1.7692,-1.6925,-1.7851,-1.7877,-1.7472,-1.6544,-1.6933,-1.7397,-1.793,-1.8436,-1.874,-1.8867,-1.9867,-2.0671,-2.1292,-2.3656,-2.4905,-2.513,-2.5313,-2.5428,-1.6376,0.0,-0.8117,-0.8985,-1.1316,-1.4276,0.0,0.0,0.0,0.0,0.0,0.0,0.0,0.0,0.0,0.0,0.0,0.0,0.0,0.0,0.0,0.0,0.0,0.0,0.0,0.0,0.0,0.0,0.0,0.0,0.0,0.0,0.0,-1.6879,-1.633,-1.6532,-1.7666,-1.7034,-1.6514,-1.6176,-1.5796,-1.5365,-1.488,0.0,0.0,0.0,0.0,0.0,-0.9961,-0.9159,-0.8679,-0.8324,-0.7063,-0.5697,-0.4204,-0.2768,-0.1276,0.0,0.0222,0.111,0.1949,0.0441,-0.1226,-0.3074,-0.5498,-0.3899,-0.1383,-0.1617,-0.1438,-0.0334,0.3074,0.3037,0.3434,0.8653,0.762,0.5876,0.7441,0.8442,1.0305,1.4615,1.335,1.1726,1.2102,0.8157,0.3127,-0.2392,-0.8639,-1.34,-1.5273,-1.5556,-1.6452,-1.8772,-1.788,-1.7229,-1.745,-1.745,-1.7156,-1.6539,-1.7354,-1.7733,-1.749,-1.7612,-1.8207,-1.9375,-2.1124,-2.2418,-2.3174,-2.4271,-2.4962,-2.5255,-2.5303,-2.533,-2.3004,-1.9061,-1.5565,-1.6108,-1.8003,-2.039,-2.3101,0.0,0.0,0.0,0.0,0.0,0.0,0.0,0.0,0.0,0.0,0.0,0.0,0.0,0.0,0.0,0.0,0.0,0.0,0.0,0.0,0.0,0.0,0.0,0.0,0.0,0.0,0.0,-1.5776,-1.6145,-1.7312,-1.6213,-1.5776,-1.5971,-1.5174,-1.4595,-1.4283,0.0,0.0,0.0,0.0,0.0,-0.9762,-0.9061,-0.8573,-0.8125,-0.7009,-0.5697,-0.4262,-0.3161,-0.2,-0.1112,-0.176,-0.1426,-0.1206,-0.3735,-0.5491,-0.7127,-1.0098,-1.1087,-1.0718,-0.8418,-0.699,-0.566,-0.353,-0.2868,-0.173,0.2384,0.2315,0.1509,0.2216,0.2599,0.3703,0.6716,0.5048,0.3592,0.4958,0.1346,-0.3729,-0.9778,-1.4676,-1.7868,-1.831,-1.8387,-1.8454,-1.8493,-1.7572,-1.6909,-1.6909,-1.7146,-1.7076,-1.6522,-1.7271,-1.7504,-1.6951,-1.7146,-1.8129,-1.9858,-2.1673,-2.2941,-2.3666,-2.4428,-2.4923,-2.5163,-2.5264,-2.5303,-2.6168,-2.3921,-2.1971,-2.1991,-2.3244,-2.4797,-2.6018,0.0,0.0,0.0,0.0,0.0,0.0,0.0,0.0,0.0,0.0,0.0,0.0,0.0,0.0,0.0,0.0,0.0,0.0,0.0,0.0,0.0,0.0,0.0,0.0,0.0,0.0,0.0,-1.541,-1.584,-1.687,-1.5443,-1.5129,-1.599,-1.4527,-1.3674,-1.3474,-1.2997,0.0,0.0,0.0,0.0,-0.9614,-0.9061,-0.8321,-0.745,-0.6858,-0.5701,-0.4378,-0.3892,-0.3282,-0.2883,-0.4257,-0.4881,-0.5504,-0.8159,-0.9778,-1.133,-1.4411,-1.7744,-1.9531,-1.5052,-1.1952,-0.9988,-1.0293,-0.8211,-0.5532,-0.3592,-0.1951,-0.0847,-0.0891,-0.1452,-0.1817,-0.1441,-0.3565,-0.4721,-0.2637,-0.5674,-1.0418,-1.647,-1.7664,-1.8079,-1.874,-1.8679,-1.8412,-1.793,-1.7079,-1.6522,-1.6522,-1.6993,-1.7076,-1.6522,-1.6993,-1.7118,-1.6637,-1.7244,-1.8422,-2.0172,-2.1832,-2.2952,-2.3515,-2.4362,-2.4877,-2.5027,-2.5214,-2.5322,-2.513,-2.5548,-2.6152,-2.5454,-2.5519,-2.5974,-2.6892,0.0,0.0,0.0,0.0,0.0,0.0,0.0,0.0,0.0,0.0,0.0,0.0,0.0,0.0,0.0,0.0,0.0,0.0,0.0,0.0,0.0,0.0,0.0,0.0,0.0,0.0,0.0,0.0,-1.4411,-1.5096,-1.4835,-1.4514,-1.4226,-1.3956,-1.3236,-1.2101,-1.2021,-1.1266,0.0,0.0,-0.9562,-0.8962,-0.8857,-0.7996,-0.675,-0.6642,-0.5714,-0.4567,-0.4995,-0.5078,-0.5085,-0.6405,-0.7568,-0.8785,-1.0349,-1.2559,-1.5024,-1.7571,-2.0091,-2.2054,-2.2076,-2.1546,-2.1069,-2.1505,-2.0005,-1.7739,-1.5243,-1.3714,-1.26,-1.1666,-1.1116,-1.0827,-1.0814,-1.0623,-1.0573,-1.0772,-1.2166,-1.3972,-1.6076,-1.7356,-1.826,-1.8788,-1.8078,-1.749,-1.7409,-1.6866,-1.6522,-1.6522,-1.6993,-1.7076,-1.6522,-1.6993,-1.7271,-1.7188,-1.8394,-1.9435,-2.0206,-2.2099,-2.3234,-2.3515,-2.4362,-2.4892,-2.5091,-2.5226,-2.533,-2.4194,-2.4553,-2.5257,-2.5568,-2.6205,-2.6694,0.0,0.0,0.0,0.0,0.0,0.0,0.0,0.0,0.0,0.0,0.0,0.0,0.0,0.0,0.0,0.0,0.0,0.0,0.0,0.0,0.0,0.0,0.0,0.0,0.0,0.0,0.0,0.0,0.0,0.0,-1.3752,-1.3321,-1.3369,-1.3815,-1.3467,-1.2774,-1.1814,-1.1814,-1.0847,-0.9221,0.0,-0.919,-0.8262,-0.8646,-0.8156,-0.7182,-0.7182,-0.6529,-0.5764,-0.678,-0.7884,-0.8915,-0.9833,-1.0748,-1.1762,-1.3382,-1.5206,-1.7193,-1.9522,-2.1772,-2.3582,-2.4037,-2.3827,-2.3475,-2.3547,-2.2611,-2.1222,-1.954,-1.7903,-1.643,-1.5239,-1.4141,-1.3246,-1.2852,-1.3032,-1.3403,-1.4029,-1.5112,-1.6254,-1.7464,-1.7905,-1.8185,-1.8458,-1.7787,-1.7312,-1.7312,-1.7076,-1.6909,-1.6909,-1.7146,-1.7312,-1.7353,-1.7312,-1.7679,-1.8517,-1.9373,-2.0175,-2.0943,-2.2426,-2.3298,-2.3515,-2.4362,-2.4885,-2.5056,-2.5215,-2.5322,-2.328,-2.3304,-2.3717,-2.4737,-2.592,0.0,0.0,0.0,0.0,0.0,0.0,0.0,0.0,0.0,0.0,0.0,0.0,0.0,0.0,0.0,0.0,0.0,0.0,0.0,0.0,0.0,0.0,0.0,0.0,0.0,0.0,0.0,0.0,0.0,0.0,0.0,-1.2666,-1.208,-1.2404,-1.36,-1.2793,-1.2098,-1.1566,-1.1199,-1.012,-0.8482,-0.9072,-0.8718,-0.7777,-0.848,-0.8474,-0.7925,-0.7925,-0.7835,-0.7881,-0.9096,-1.082,-1.2626,-1.3413,-1.407,-1.4865,-1.6512,-1.7892,-1.9332,-2.1208,-2.2987,-2.4378,-2.4233,-2.3859,-2.3429,-2.3155,-2.2451,-2.1602,-2.0703,-1.903,-1.7343,-1.6162,-1.5024,-1.4054,-1.3481,-1.4359,-1.5369,-1.5745,-1.6811,-1.7879,-1.8765,-1.8535,-1.8263,-1.8145,-1.7626,-1.7312,-1.7312,-1.7312,-1.7353,-1.7463,-1.7504,-1.7706,-1.8263,-1.7666,-1.7985,-1.9534,-1.9982,-2.0653,-2.1582,-2.266,-2.327,-2.3426,-2.4364,-2.4864,-2.4953,-2.5184,-2.5303,-2.242,-2.2945,-2.3593,-2.3698,-2.4628,0.0,-2.6894,-2.7121,0.0,-2.7815,0.0,0.0,0.0,0.0,0.0,0.0,0.0,0.0,0.0,0.0,0.0,0.0,0.0,0.0,0.0,0.0,0.0,0.0,0.0,0.0,0.0,0.0,0.0,0.0,0.0,0.0,-1.1873,-1.1814,-1.2178,-1.2978,-1.1584,-1.0922,-1.0813,-0.9511,-0.8482,-0.7771,-0.7824,-0.7771,-0.7777,-0.848,-0.8725,-0.8633,-0.8633,-0.9657,-1.1217,-1.1939,-1.3411,-1.5203,-1.6452,-1.745,-1.8375,-1.9391,-2.0819,-2.2278,-2.2974,-2.3747,-2.4278,-2.3727,-2.3528,-2.3415,-2.3092,-2.2061,-2.0814,-1.9752,-1.8337,-1.6959,-1.5847,-1.5576,-1.5431,-1.5316,-1.6268,-1.7107,-1.7083,-1.7997,-1.8803,-1.8893,-1.8855,-1.865,-1.8185,-1.7626,-1.7312,-1.7312,-1.7312,-1.7504,-1.7987,-1.8027,-1.8263,-1.8817,-1.7867,-1.7985,-1.9534,-1.9982,-2.0653,-2.1582,-2.266,-2.3212,-2.3218,-2.4279,-2.4793,-2.4808,-2.5146,-2.533,-2.1784,-2.2131,-2.2468,-2.293,-2.3967,0.0,0.0,-2.5606,-2.571,-2.595,-2.6236,0.0,0.0,0.0,0.0,0.0,0.0,0.0,0.0,0.0,0.0,0.0,0.0,0.0,0.0,0.0,0.0,0.0,0.0,0.0,0.0,0.0,0.0,0.0,0.0,0.0,0.0,-1.0965,-1.0922,-1.1584,-1.1074,-1.0813,-1.0762,-0.9356,-0.8311,-0.7629,-0.7658,-0.745,-0.7128,-0.8771,-0.9399,-0.9481,-1.0257,-1.1907,-1.3902,-1.4182,-1.5227,-1.6661,-1.781,-1.8751,-1.9649,-2.0666,-2.1982,-2.3284,-2.3822,-2.4292,-2.4544,-2.4015,-2.3597,-2.3141,-2.2346,-2.133,-2.0255,-1.9265,-1.8127,-1.7079,-1.6312,-1.6114,-1.6219,-1.6549,-1.7424,-1.8124,-1.8246,-1.9339,-2.0024,-1.9464,-1.9361,-1.9163,-1.865,-1.8145,-1.7947,-1.8263,-1.8302,-1.8521,-1.8985,-1.8468,-1.843,-1.9259,-1.8674,-1.8948,-2.0418,-2.0618,-2.1118,-2.2032,-2.2797,-2.3189,-2.3189,-2.4279,-2.4795,-2.482,-2.5152,-2.5313,-2.0925,-2.1237,-2.1555,-2.2443,0.0,0.0,-2.4394,-2.4762,-2.5098,-2.5503,-2.5402,0.0,0.0,0.0,0.0,0.0,0.0,0.0,0.0,0.0,0.0,0.0,0.0,0.0,0.0,0.0,0.0,0.0,0.0,0.0,0.0,0.0,0.0,0.0,0.0,0.0,0.0,-1.0261,-0.9917,-1.0167,-1.0167,-1.0261,-1.0415,-0.879,-0.7788,-0.7304,-0.7331,-0.7074,-0.6745,-0.8915,-1.0289,-1.1148,-1.2397,-1.4225,-1.617,-1.635,-1.7142,-1.8331,-1.9307,-2.0097,-2.0842,-2.1832,-2.294,-2.3938,-2.4389,-2.465,-2.4694,-2.4204,-2.366,-2.2954,-2.184,-2.1006,-2.0221,-1.9273,-1.8285,-1.7463,-1.7076,-1.6941,-1.7081,-1.7693,-1.8508,-1.9148,-1.9317,-2.0265,-2.0797,-2.0208,-2.0074,-1.9834,-1.92,-1.8812,-1.8698,-1.9089,-1.9383,-1.9692,-2.0008,-1.928,-1.9096,-1.9763,-1.9398,-1.9651,-2.0715,-2.0926,-2.1354,-2.2061,-2.2815,-2.3218,-2.3298,-2.4314,-2.4814,-2.4883,-2.516,-2.5303,-1.9864,-2.0326,-2.1052,0.0,0.0,0.0,-2.3957,-2.492,-2.5877,-2.7158,0.0,0.0,0.0,0.0,0.0,0.0,0.0,0.0,0.0,0.0,0.0,0.0,0.0,0.0,0.0,0.0,0.0,0.0,0.0,0.0,0.0,0.0,0.0,0.0,0.0,0.0,0.0,-0.9814,-0.9465,-0.8804,-0.8804,-0.9159,-0.971,-0.7593,-0.6588,-0.6588,-0.6588,-0.6588,-0.6799,-0.8967,-1.1338,-1.3765,-1.5014,-1.6545,-1.8074,-1.8475,-1.9343,-2.0434,-2.124,-2.1778,-2.2268,-2.3141,-2.386,-2.4463,-2.4727,-2.48,-2.4689,-2.4153,-2.3623,-2.2937,-2.1802,-2.1258,-2.0748,-1.9834,-1.8835,-1.8106,-1.8106,-1.8051,-1.8179,-1.8788,-1.9611,-2.0221,-2.0299,-2.0698,-2.1007,-2.0991,-2.0991,-2.0682,-1.9713,-1.9606,-1.9606,-1.9606,-2.0467,-2.0991,-2.1007,-2.0583,-2.0314,-2.0314,-1.9929,-1.9909,-2.028,-2.0764,-2.1213,-2.1612,-2.266,-2.3298,-2.3515,-2.4379,-2.4864,-2.501,-2.5214,-2.5313,-1.986,-1.9948,0.0,-2.027,0.0,0.0,0.0,-2.287,0.0,0.0,0.0,0.0,0.0,0.0,0.0,0.0,0.0,0.0,0.0,0.0,0.0,0.0,0.0,0.0,0.0,0.0,0.0,0.0,0.0,0.0,0.0,0.0,0.0,0.0,0.0,0.0,0.0,0.0,-0.9008,-0.8804,-0.8262,-0.8672,-0.9762,-0.8137,-0.7331,-0.7304,-0.7331,-0.7331,-0.7553,-1.1062,-1.3928,-1.6168,-1.6557,-1.7875,-1.9576,-1.9367,-2.0073,-2.1209,-2.1749,-2.2375,-2.3079,-2.3835,-2.4434,-2.4852,-2.4976,-2.4904,-2.4743,-2.4456,-2.3787,-2.3052,-2.2418,-2.1632,-2.0682,-1.9419,-1.8598,-1.821,-1.8517,-1.8608,-1.8873,-1.9667,-2.032,-2.0765,-2.0781,-2.1415,-2.1721,-2.1086,-2.1244,-2.1228,-2.0682,-2.0567,-2.0567,-2.0567,-2.0813,-2.1118,-2.1399,-2.1055,-2.091,-2.1197,-2.0829,-2.0665,-2.0797,-2.1148,-2.1678,-2.2361,-2.3285,-2.3794,-2.3855,-2.462,-2.5028,-2.507,-2.5333,-2.5427,-1.8379,-1.8694,0.0,-1.8952,-1.9808,-2.0625,-2.0478,0.0,0.0,0.0,0.0,0.0,0.0,0.0,0.0,0.0,0.0,0.0,0.0,0.0,0.0,0.0,0.0,0.0,0.0,0.0,0.0,0.0,0.0,0.0,0.0,0.0,0.0,0.0,0.0,0.0,0.0,0.0,0.0,-0.8804,-0.8374,-0.8408,-0.8922,-0.7765,-0.7385,-0.7629,-0.796,-0.8802,-1.0182,-1.2862,-1.5374,-1.7572,-1.7995,-1.9038,-2.0314,-2.0369,-2.0942,-2.1819,-2.2427,-2.3084,-2.3732,-2.4454,-2.4846,-2.5057,-2.5176,-2.5034,-2.4775,-2.4654,-2.3929,-2.31,-2.2693,-2.1905,-2.0975,-1.9974,-1.9207,-1.8873,-1.9525,-1.9667,-1.9843,-2.042,-2.1054,-2.1462,-2.1275,-2.1924,-2.2226,-2.1615,-2.1568,-2.1521,-2.1275,-2.1244,-2.1244,-2.1244,-2.1415,-2.1615,-2.1869,-2.1477,-2.1337,-2.1582,-2.1213,-2.1134,-2.1411,-2.1619,-2.1967,-2.2451,-2.3466,-2.4026,-2.4118,-2.4771,-2.5129,-2.5222,-2.542,-2.5451,-1.6038,0.0,0.0,-1.8072,-1.8733,0.0,0.0,0.0,0.0,0.0,0.0,0.0,0.0,0.0,0.0,0.0,0.0,0.0,0.0,0.0,0.0,0.0,0.0,0.0,0.0,0.0,0.0,0.0,0.0,0.0,0.0,0.0,0.0,0.0,0.0,0.0,0.0,0.0,0.0,0.0,-0.8752,-0.8374,-0.767,-0.7074,-0.7182,-0.7931,-0.8678,-1.0781,-1.3719,-1.4451,-1.6063,-1.8204,-1.9251,-1.9939,-2.0483,-2.1321,-2.1874,-2.2337,-2.3236,-2.3804,-2.4268,-2.4895,-2.511,-2.5151,-2.5329,-2.5126,-2.4804,-2.4804,-2.4026,-2.3124,-2.276,-2.2118,-2.1521,-2.1197,-2.0418,-1.9974,-2.0846,-2.0943,-2.0863,-2.107,-2.1721,-2.2106,-2.1718,-2.2231,-2.2573,-2.2349,-2.1928,-2.1658,-2.1658,-2.1658,-2.1658,-2.1658,-2.2061,-2.2338,-2.231,-2.194,-2.1702,-2.1702,-2.1352,-2.1472,-2.2163,-2.2163,-2.2163,-2.2245,-2.3448,-2.4154,-2.4358,-2.4874,-2.523,-2.5394,-2.5488,-2.5477,-1.5323,-1.5371,0.0,0.0,-1.6632,0.0,0.0,0.0,0.0,0.0,0.0,0.0,0.0,0.0,0.0,0.0,0.0,0.0,0.0,0.0,0.0,0.0,0.0,0.0,0.0,0.0,0.0,0.0,0.0,0.0,0.0,0.0,0.0,0.0,0.0,0.0,-0.8804,-0.8804,-0.8804,0.0,-0.8209,-0.783,-0.7723,-0.8156,-0.8679,-0.9392,-1.0572,-1.2272,-1.4451,-1.5985,-1.7424,-1.8812,-1.9763,-2.0449,-2.0943,-2.1694,-2.238,-2.3058,-2.3674,-2.4215,-2.47,-2.4995,-2.5201,-2.5344,-2.5395,-2.5126,-2.4804,-2.4804,-2.4026,-2.3189,-2.31,-2.2344,-2.1658,-2.1945,-2.1337,-2.0846,-2.1368,-2.1197,-2.1165,-2.1886,-2.1869,-2.184,-2.2106,-2.2276,-2.2377,-2.231,-2.2209,-2.2135,-2.2135,-2.2135,-2.2135,-2.2135,-2.2446,-2.2527,-2.2338,-2.2402,-2.2441,-2.2441,-2.2388,-2.253,-2.2954,-2.2659,-2.276,-2.3351,-2.4191,-2.4663,-2.4689,-2.5185,-2.5421,-2.5406,-2.5531,-2.5503,-1.3434,0.0,0.0,-1.5155,0.0,0.0,0.0,0.0,0.0,0.0,0.0,0.0,0.0,0.0,0.0,0.0,0.0,0.0,0.0,0.0,0.0,0.0,0.0,0.0,0.0,0.0,0.0,0.0,0.0,0.0,0.0,0.0,0.0,0.0,0.0,0.0,-0.8804,-0.8804,-0.8804,-0.8804,-0.8427,-0.8209,-0.8262,-0.8567,-0.9481,-1.078,-1.2078,-1.3825,-1.5899,-1.7085,-1.8232,-1.9354,-2.0039,-2.0583,-2.1086,-2.184,-2.2634,-2.3418,-2.3952,-2.4521,-2.5003,-2.5145,-2.5312,-2.5438,-2.5379,-2.5135,-2.4801,-2.4303,-2.3617,-2.289,-2.2418,-2.1755,-2.1267,-2.1361,-2.1321,-2.1415,-2.184,-2.1781,-2.1751,-2.2209,-2.2106,-2.2003,-2.2254,-2.231,-2.2349,-2.2463,-2.2388,-2.231,-2.231,-2.231,-2.231,-2.231,-2.2426,-2.2436,-2.231,-2.2537,-2.2695,-2.2695,-2.2848,-2.3093,-2.3414,-2.3247,-2.331,-2.3692,-2.442,-2.4804,-2.4804,-2.5232,-2.5434,-2.5406,-2.5493,-2.5508,-1.1647,0.0,-1.2772,-1.4332,-1.4275,0.0,0.0,0.0,0.0,0.0,0.0,0.0,0.0,0.0,0.0,0.0,0.0,0.0,0.0,0.0,0.0,0.0,0.0,0.0,0.0,0.0,0.0,0.0,0.0,0.0,0.0,0.0,0.0,0.0,0.0,-0.8752,-0.8593,-0.8752,-0.8752,-0.8593,-0.8593,-0.8699,-0.8804,-0.8856,-0.998,-1.192,-1.3309,-1.521,-1.737,-1.793,-1.876,-1.9747,-2.0227,-2.0682,-2.118,-2.2018,-2.288,-2.366,-2.4238,-2.4764,-2.5194,-2.5297,-2.5396,-2.5445,-2.5181,-2.5069,-2.4764,-2.3612,-2.3039,-2.2612,-2.1728,-2.1161,-2.0793,-2.0703,-2.1181,-2.1764,-2.2101,-2.233,-2.2443,-2.2388,-2.2321,-2.231,-2.231,-2.231,-2.2388,-2.2599,-2.2436,-2.231,-2.231,-2.231,-2.231,-2.231,-2.2349,-2.2349,-2.231,-2.259,-2.2797,-2.2797,-2.3124,-2.3486,-2.3821,-2.3862,-2.3903,-2.3903,-2.4487,-2.4804,-2.4804,-2.5207,-2.5398,-2.5376,-2.5453,-2.5447,0.0,0.0,-1.1137,0.0,-1.2733,0.0,0.0,0.0,0.0,0.0,0.0,0.0,0.0,0.0,0.0,0.0,0.0,0.0,0.0,0.0,0.0,0.0,0.0,0.0,0.0,0.0,0.0,0.0,0.0,0.0,0.0,0.0,-0.8804,-0.8804,-0.8804,0.0,-0.783,-0.848,-0.848,-0.783,-0.783,-0.8156,-0.8804,-0.9356,-1.0589,-1.2493,-1.4428,-1.6266,-1.793,-1.8531,-1.9155,-1.9782,-2.0599,-2.1101,-2.1586,-2.2852,-2.3575,-2.4026,-2.4686,-2.4996,-2.5134,-2.5336,-2.5391,-2.5288,-2.4561,-2.4639,-2.4631,-2.2937,-2.2613,-2.274,-2.2415,-2.1572,-2.096,-2.1625,-2.1873,-2.1895,-2.1742,-2.2419,-2.2972,-2.2712,-2.2463,-2.231,-2.231,-2.231,-2.231,-2.2349,-2.2321,-2.231,-2.231,-2.231,-2.231,-2.231,-2.25,-2.2563,-2.2338,-2.2807,-2.3141,-2.3141,-2.3605,-2.4044,-2.4391,-2.4556,-2.4648,-2.4648,-2.4741,-2.4804,-2.4804,-2.5207,-2.536,-2.5313,-2.5383,-2.5376,-1.1765,-1.026,-0.9991,0.0,0.0,0.0,0.0,0.0,0.0,0.0,0.0,0.0,0.0,0.0,0.0,0.0,0.0,0.0,0.0,0.0,0.0,0.0,0.0,0.0,0.0,0.0,0.0,0.0,0.0,0.0,0.0,-0.8956,-0.8804,-0.8804,-0.8804,0.0,-0.7723,-0.8427,-0.8427,-0.7723,-0.8103,-0.8262,-0.8209,-0.9673,-1.1172,-1.276,-1.4989,-1.6754,-1.8129,-1.8991,-1.9609,-2.0054,-2.0449,-2.1117,-2.1933,-2.2834,-2.3585,-2.4258,-2.4801,-2.5118,-2.5201,-2.4806,-2.4706,-2.4578,-2.3739,-2.3615,-2.3475,-2.2121,-2.1789,-2.1701,-2.1044,-2.0424,-2.0119,-2.0831,-2.1448,-2.1938,-2.2121,-2.2565,-2.2822,-2.2527,-2.2388,-2.231,-2.231,-2.231,-2.231,-2.231,-2.231,-2.2332,-2.25,-2.251,-2.259,-2.2798,-2.2738,-2.266,-2.2537,-2.294,-2.3264,-2.3352,-2.3948,-2.4405,-2.4654,-2.476,-2.4804,-2.4804,-2.4864,-2.4917,-2.4917,-2.5206,-2.5321,-2.5303,-2.533,-2.5321,0.0,0.0,-0.9718,-1.1378,0.0,0.0,0.0,0.0,0.0,0.0,0.0,0.0,0.0,0.0,0.0,0.0,0.0,0.0,0.0,0.0,0.0,0.0,0.0,0.0,0.0,0.0,0.0,0.0,0.0,0.0,-0.8857,-0.8804,-0.8804,-0.8804,-0.8804,-0.8374,-0.745,-0.7771,-0.7883,-0.7723,-0.8049,-0.8049,-0.7771,-0.9673,-1.1297,-1.2847,-1.5122,-1.692,-1.8366,-1.9303,-1.9914,-2.0317,-2.0413,-2.1182,-2.2268,-2.2521,-2.3252,-2.4136,-2.4359,-2.4716,-2.4934,-2.409,-2.3979,-2.3975,-2.2911,-2.2713,-2.2593,-2.1321,-2.1077,-2.0967,-2.0129,-1.9633,-1.954,-2.0134,-2.1059,-2.2025,-2.2826,-2.2914,-2.2764,-2.2571,-2.2388,-2.231,-2.231,-2.231,-2.231,-2.231,-2.2377,-2.249,-2.2669,-2.2772,-2.2923,-2.3165,-2.2972,-2.2822,-2.2822,-2.3177,-2.3476,-2.3617,-2.4262,-2.4678,-2.4842,-2.4896,-2.4936,-2.4949,-2.505,-2.5061,-2.501,-2.5225,-2.5331,-2.534,-2.5329,-2.5346,0.0,-1.2325,0.0,-1.1453,0.0,0.0,0.0,0.0,0.0,0.0,0.0,0.0,0.0,0.0,0.0,0.0,0.0,0.0,0.0,0.0,0.0,0.0,0.0,0.0,0.0,0.0,0.0,0.0,0.0,0.0,-0.8857,-0.8804,-0.8804,-0.8804,-0.8804,-0.8103,-0.6696,-0.5977,-0.6357,-0.767,-0.702,-0.7074,-0.7723,-0.9134,-1.0806,-1.2799,-1.4733,-1.6809,-1.8893,-1.9405,-1.9869,-2.0338,-2.0726,-2.1555,-2.2509,-2.2027,-2.2563,-2.3483,-2.3054,-2.3447,-2.4039,-2.329,-2.3524,-2.382,-2.2249,-2.2347,-2.2588,-2.0629,-2.0699,-2.1292,-2.0838,-2.0159,-1.9731,-2.0333,-2.1161,-2.2226,-2.3767,-2.3613,-2.3165,-2.3159,-2.2686,-2.231,-2.231,-2.231,-2.231,-2.231,-2.2527,-2.2669,-2.2695,-2.2972,-2.3165,-2.3189,-2.3189,-2.3165,-2.3165,-2.3648,-2.3969,-2.3969,-2.4595,-2.4986,-2.4998,-2.5163,-2.5312,-2.5364,-2.5383,-2.5244,-2.501,-2.5272,-2.5398,-2.5406,-2.5471,-2.5479,0.0,0.0,0.0,0.0,0.0,0.0,0.0,0.0,0.0,0.0,0.0,0.0,0.0,0.0,0.0,0.0,0.0,0.0,0.0,0.0,0.0,0.0,0.0,0.0,0.0,0.0,0.0,0.0,0.0,0.0,-0.8857,-0.8804,-0.8804,-0.8804,-0.8321,-0.7616,-0.6588,-0.5869,-0.576,-0.6303,-0.6475,-0.675,-0.7069,-0.8619,-1.054,-1.279,-1.4393,-1.6322,-1.843,-1.8861,-1.9412,-2.0004,-1.9709,-2.0381,-2.1494,-2.1534,-2.2036,-2.2735,-2.2786,-2.3004,-2.3144,-2.2405,-2.2325,-2.2309,-2.1257,-2.1114,-2.1162,-2.0418,-2.0373,-2.0521,-2.0329,-2.0413,-2.0864,-2.2027,-2.2926,-2.36,-2.383,-2.3522,-2.3141,-2.2923,-2.2686,-2.2563,-2.2563,-2.2747,-2.2807,-2.259,-2.2634,-2.2772,-2.2996,-2.3117,-2.3369,-2.3795,-2.3649,-2.3522,-2.3522,-2.3828,-2.4045,-2.417,-2.47,-2.5065,-2.5192,-2.5264,-2.533,-2.5406,-2.5406,-2.5379,-2.5321,-2.5421,-2.5451,-2.5457,-2.5479,-2.5493,-1.8373,0.0,0.0,0.0,0.0,0.0,0.0,0.0,0.0,0.0,0.0,0.0,0.0,0.0,0.0,0.0,0.0,0.0,0.0,0.0,0.0,0.0,0.0,0.0,0.0,0.0,0.0,0.0,0.0,0.0,-0.8804,-0.8804,-0.8699,-0.8427,-0.7498,-0.6853,-0.6588,-0.5655,-0.5273,-0.5487,-0.5982,-0.6367,-0.6686,-0.8459,-1.0653,-1.306,-1.4393,-1.6171,-1.8143,-1.8909,-1.9491,-1.9872,-1.9523,-2.0033,-2.0883,-2.0715,-2.1172,-2.1853,-2.1856,-2.2074,-2.223,-2.1493,-2.1438,-2.1494,-2.0737,-2.0482,-2.0441,-2.0327,-2.0256,-2.0166,-2.0021,-2.0329,-2.1105,-2.288,-2.347,-2.3688,-2.385,-2.3588,-2.3259,-2.2947,-2.2873,-2.2873,-2.2873,-2.3045,-2.3117,-2.2898,-2.2972,-2.3117,-2.3346,-2.3477,-2.3714,-2.4151,-2.3996,-2.3899,-2.3961,-2.4137,-2.4346,-2.4531,-2.4898,-2.5163,-2.5284,-2.5303,-2.5348,-2.5434,-2.5434,-2.5473,-2.5523,-2.5538,-2.552,-2.552,-2.5558,-2.5564,0.0,0.0,0.0,0.0,0.0,0.0,0.0,0.0,0.0,0.0,0.0,0.0,0.0,0.0,0.0,0.0,0.0,0.0,0.0,0.0,0.0,0.0,0.0,0.0,0.0,0.0,0.0,0.0,0.0,-0.8752,-0.8752,-0.8752,-0.8427,-0.767,-0.6249,-0.5814,-0.6534,-0.5171,-0.4842,-0.5487,-0.5487,-0.5923,-0.6691,-0.8795,-1.1126,-1.356,-1.4845,-1.6414,-1.8193,-1.9562,-2.0017,-1.9915,-2.0196,-2.0528,-2.0684,-1.9588,-1.9931,-2.0865,-2.0219,-2.0641,-2.1344,-2.0619,-2.097,-2.1519,-2.074,-2.0542,-2.0563,-2.0357,-2.0347,-2.0352,-2.0103,-1.995,-2.0445,-2.2765,-2.2669,-2.246,-2.3897,-2.3937,-2.361,-2.3277,-2.3212,-2.3212,-2.3212,-2.3212,-2.323,-2.323,-2.35,-2.3692,-2.3692,-2.3996,-2.419,-2.419,-2.4227,-2.4284,-2.4478,-2.4685,-2.4869,-2.4998,-2.5184,-2.5293,-2.5293,-2.5293,-2.5371,-2.5493,-2.5493,-2.5523,-2.5601,-2.5603,-2.5605,-2.5605,-2.5662,-2.5703,-2.0974,0.0,0.0,0.0,0.0,0.0,0.0,0.0,0.0,0.0,0.0,0.0,0.0,0.0,0.0,0.0,0.0,0.0,0.0,0.0,0.0,0.0,0.0,0.0,0.0,0.0,0.0,0.0,0.0,-0.7996,-0.7996,-0.7996,-0.7444,-0.614,-0.5706,-0.5382,-0.5062,-0.468,-0.457,-0.4787,-0.5273,-0.6126,-0.7393,-0.9505,-1.1593,-1.3641,-1.6177,-1.742,-1.768,-1.7974,-1.8691,-1.9442,-1.8518,-1.8467,-1.8933,-1.8914,-1.9227,-1.9727,-1.9928,-2.0184,-2.0419,-2.0395,-2.0562,-2.074,-2.0605,-2.0585,-2.0585,-2.0477,-2.0425,-2.0512,-2.0962,-2.1051,-2.1464,-2.3246,-2.3493,-2.3436,-2.3952,-2.4174,-2.4155,-2.3653,-2.3566,-2.3566,-2.3566,-2.3756,-2.3837,-2.3588,-2.3649,-2.3692,-2.3692,-2.3774,-2.3917,-2.417,-2.4339,-2.4426,-2.4495,-2.478,-2.4962,-2.501,-2.5236,-2.536,-2.5379,-2.5415,-2.5473,-2.5567,-2.5567,-2.558,-2.5601,-2.5597,-2.5574,-2.5534,-2.5607,-2.5633,0.0,0.0,0.0,0.0,0.0,0.0,-1.2893,-1.1655,0.0,0.0,0.0,0.0,0.0,0.0,0.0,0.0,0.0,0.0,0.0,0.0,0.0,0.0,0.0,0.0,0.0,0.0,0.0,0.0,-0.7402,-0.7235,-0.7235,-0.6961,-0.6411,-0.5538,-0.5218,-0.4893,-0.4519,-0.4184,-0.4184,-0.4519,-0.5206,-0.6265,-0.7704,-1.0049,-1.2199,-1.4177,-1.6135,-1.74,-1.8038,-1.7515,-1.7958,-1.8864,-1.8062,-1.7939,-1.8232,-1.8589,-1.9141,-1.9715,-1.9866,-2.0162,-2.048,-2.039,-2.037,-2.0425,-2.0536,-2.0585,-2.0585,-2.0515,-2.0444,-2.0588,-2.1378,-2.1287,-2.1479,-2.3389,-2.3545,-2.3461,-2.4172,-2.4489,-2.4474,-2.3926,-2.3943,-2.406,-2.4155,-2.4319,-2.4374,-2.4079,-2.4118,-2.4118,-2.4041,-2.4118,-2.4229,-2.4426,-2.4561,-2.4654,-2.4708,-2.4905,-2.5086,-2.5157,-2.5345,-2.5447,-2.5441,-2.5488,-2.5539,-2.5601,-2.5601,-2.5585,-2.5558,-2.5595,-2.5564,-2.5493,-2.5564,-2.5601,0.0,0.0,0.0,0.0,0.0,0.0,-1.4015,-1.2326,-1.0815,0.0,0.0,0.0,0.0,0.0,0.0,0.0,0.0,0.0,0.0,0.0,0.0,0.0,0.0,0.0,0.0,0.0,0.0,-0.7456,-0.6853,-0.6421,-0.6367,-0.5819,-0.5429,-0.5265,-0.4673,-0.4349,-0.4236,-0.3566,-0.3622,-0.4239,-0.5027,-0.6225,-0.7852,-1.0501,-1.286,-1.5013,-1.5688,-1.703,-1.8644,-1.778,-1.7782,-1.8323,-1.8326,-1.8259,-1.8187,-1.845,-1.9255,-2.017,-1.9843,-2.0308,-2.0965,-2.0455,-2.0342,-2.0418,-2.0484,-2.0543,-2.0585,-2.0515,-2.0467,-2.0609,-2.1476,-2.1085,-2.1056,-2.3386,-2.3294,-2.3092,-2.4517,-2.4823,-2.4674,-2.4206,-2.4351,-2.4591,-2.4775,-2.4804,-2.4746,-2.4559,-2.4685,-2.4731,-2.4561,-2.4685,-2.4804,-2.4804,-2.4799,-2.4864,-2.5003,-2.509,-2.5213,-2.5394,-2.5463,-2.5503,-2.5503,-2.5526,-2.5551,-2.5605,-2.5609,-2.5566,-2.5493,-2.5554,-2.5551,-2.5484,-2.5558,-2.5598,0.0,0.0,0.0,0.0,0.0,0.0,-1.3643,-1.2169,-1.0902,0.0,0.0,0.0,0.0,0.0,0.0,0.0,0.0,0.0,0.0,0.0,0.0,0.0,0.0,0.0,0.0,0.0,-0.7705,-0.6055,-0.5814,-0.5492,-0.4952,-0.5273,-0.4937,-0.3785,-0.3619,-0.3234,-0.2676,-0.2508,-0.2508,-0.2676,-0.3987,-0.5912,-0.841,-1.093,-1.3361,-1.5654,-1.7452,-1.8008,-1.7625,-1.8029,-1.8251,-1.8359,-1.804,-1.7907,-1.7905,-1.8166,-1.8559,-1.9004,-1.9222,-1.9636,-2.008,-2.019,-2.0298,-2.0425,-2.0541,-2.0586,-2.0585,-2.0515,-2.0484,-2.067,-2.1496,-2.1558,-2.1895,-2.3786,-2.4032,-2.4096,-2.4932,-2.5039,-2.4936,-2.4893,-2.4815,-2.476,-2.479,-2.4804,-2.479,-2.4746,-2.4775,-2.479,-2.4746,-2.4775,-2.4804,-2.4804,-2.4891,-2.4984,-2.507,-2.5232,-2.5374,-2.5463,-2.5547,-2.557,-2.557,-2.5634,-2.5662,-2.5683,-2.5622,-2.5579,-2.5493,-2.5459,-2.5428,-2.5421,-2.5498,-2.5551,0.0,0.0,0.0,-1.8822,0.0,0.0,0.0,-1.3575,-1.2284,0.0,0.0,0.0,0.0,0.0,0.0,0.0,0.0,0.0,0.0,0.0,0.0,0.0,0.0,0.0,0.0,0.0,-0.6592,-0.5132,-0.5003,-0.4838,-0.4515,-0.445,-0.4058,-0.3345,-0.2954,-0.2565,-0.223,-0.1842,-0.1842,-0.223,-0.2938,-0.4861,-0.7808,-1.0127,-1.2641,-1.5338,-1.7096,-1.7711,-1.7539,-1.808,-1.8285,-1.8194,-1.7736,-1.7658,-1.7833,-1.8103,-1.8618,-1.9213,-1.9202,-1.9722,-2.0377,-2.0208,-2.0258,-2.0422,-2.0515,-2.0542,-2.0642,-2.1072,-2.1171,-2.1347,-2.2176,-2.2394,-2.2711,-2.3995,-2.4267,-2.4455,-2.5187,-2.5309,-2.5255,-2.5282,-2.523,-2.5119,-2.5061,-2.5056,-2.5012,-2.4917,-2.4987,-2.5012,-2.4917,-2.5022,-2.5094,-2.5094,-2.5197,-2.5255,-2.5309,-2.5426,-2.5503,-2.5551,-2.5607,-2.5658,-2.5658,-2.5683,-2.5703,-2.5703,-2.5662,-2.5601,-2.5493,-2.5508,-2.5471,-2.5406,-2.5477,-2.5515,0.0,0.0,0.0,0.0,0.0,-1.6967,0.0,0.0,0.0,-1.2581,0.0,0.0,0.0,0.0,0.0,0.0,0.0,0.0,0.0,0.0,0.0,0.0,0.0,0.0,0.0,0.0,-0.53,-0.4529,-0.4519,-0.4519,-0.4519,-0.3735,-0.3289,-0.3178,-0.2397,-0.1898,-0.1786,-0.1174,-0.1174,-0.1786,-0.1944,-0.3755,-0.7113,-0.902,-1.1788,-1.515,-1.6374,-1.7223,-1.782,-1.8177,-1.8263,-1.8171,-1.7665,-1.767,-1.7971,-1.8125,-1.8818,-1.9631,-1.931,-1.9917,-2.0721,-2.0271,-2.0258,-2.0444,-2.0508,-2.0511,-2.0669,-2.1425,-2.1715,-2.1998,-2.2871,-2.322,-2.3562,-2.438,-2.455,-2.4736,-2.5407,-2.5526,-2.5493,-2.5526,-2.5517,-2.5471,-2.5354,-2.5339,-2.5283,-2.5094,-2.5225,-2.5255,-2.5094,-2.5262,-2.5394,-2.5427,-2.5477,-2.5517,-2.5526,-2.5564,-2.5603,-2.5629,-2.5662,-2.5703,-2.5703,-2.5703,-2.5703,-2.5703,-2.5703,-2.5634,-2.5493,-2.5554,-2.5531,-2.5408,-2.5498,-2.5534,0.0,0.0,0.0,0.0,-1.9293,0.0,0.0,0.0,-1.5335,-1.3926,0.0,0.0,0.0,0.0,0.0,0.0,0.0,0.0,0.0,0.0,0.0,0.0,0.0,0.0,0.0,0.0,0.0,-0.4529,-0.4519,-0.4519,-0.4519,-0.379,-0.3065,-0.2343,-0.1619,-0.0895,-0.028,-0.0168,-0.0168,-0.028,-0.0894,-0.3363,-0.7327,-0.855,-1.1687,-1.6161,-1.6876,-1.7518,-1.817,-1.8573,-1.8734,-1.8681,-1.8278,-1.827,-1.8489,-1.827,-1.8643,-1.9264,-1.9219,-1.9587,-2.0117,-2.0159,-2.0367,-2.0585,-2.0585,-2.0541,-2.0533,-2.0702,-2.1265,-2.1998,-2.2871,-2.3672,-2.4472,-2.5332,-2.5499,-2.5488,-2.5641,-2.5573,-2.5526,-2.559,-2.5547,-2.5508,-2.5488,-2.5488,-2.5459,-2.5364,-2.5376,-2.5383,-2.5356,-2.5372,-2.5415,-2.5473,-2.5508,-2.5511,-2.5573,-2.5598,-2.5631,-2.5683,-2.5703,-2.5703,-2.5703,-2.5703,-2.5703,-2.5703,-2.5703,-2.5634,-2.5493,-2.5517,-2.5493,-2.5479,-2.5558,-2.5613,0.0,0.0,0.0,0.0,0.0,0.0,0.0,0.0,-1.7983,0.0,0.0,0.0,0.0,0.0,0.0,0.0,0.0,0.0,0.0,0.0,0.0,0.0,0.0,0.0,0.0,0.0,0.0,0.0,0.0,-0.3846,-0.3846,-0.3121,-0.2343,-0.1563,-0.0838,-0.0336,0.0,0.0,0.0,0.0,-0.0329,-0.2423,-0.6054,-0.7629,-1.0785,-1.5103,-1.6586,-1.7718,-1.8572,-1.8889,-1.9181,-1.9419,-1.907,-1.8865,-1.8699,-1.8681,-1.8886,-1.9228,-1.9327,-1.9677,-2.0084,-2.0318,-2.0488,-2.0605,-2.0605,-2.0543,-2.0611,-2.1191,-2.1578,-2.2115,-2.3496,-2.4121,-2.4629,-2.5488,-2.5683,-2.5661,-2.5683,-2.5659,-2.5611,-2.5659,-2.5634,-2.5627,-2.5627,-2.5554,-2.5479,-2.5465,-2.5465,-2.5465,-2.5465,-2.5484,-2.5531,-2.5554,-2.5598,-2.5633,-2.5659,-2.566,-2.5662,-2.5703,-2.5703,-2.5703,-2.5703,-2.5703,-2.5703,-2.5703,-2.5703,-2.5634,-2.5493,-2.5543,-2.5526,-2.5441,-2.5517,-2.5562,-2.3226,0.0,0.0,0.0,0.0,0.0,0.0,0.0,0.0,0.0,0.0,0.0,0.0,0.0,0.0,0.0,0.0,0.0,0.0,0.0,0.0,0.0,0.0,0.0,0.0,0.0,0.0,0.0,-0.3474,0.0,-0.3065,-0.2343,-0.1675,-0.1118,-0.0392,0.0,0.0,0.0,0.0,0.0,-0.0162,-0.2002,-0.5349,-0.7293,-1.0391,-1.4384,-1.6416,-1.7876,-1.8836,-1.9232,-1.9611,-1.9944,-1.9781,-1.949,-1.9146,-1.9165,-1.9285,-1.9475,-1.9644,-1.9926,-2.0286,-2.072,-2.0892,-2.0996,-2.123,-2.1109,-2.1001,-2.1698,-2.1851,-2.2096,-2.3378,-2.4062,-2.4551,-2.5195,-2.5332,-2.541,-2.5644,-2.5508,-2.541,-2.5644,-2.5703,-2.5703,-2.5703,-2.5629,-2.5551,-2.5539,-2.5535,-2.5535,-2.5535,-2.5564,-2.5605,-2.5631,-2.5662,-2.5703,-2.5703,-2.5703,-2.5703,-2.5703,-2.5703,-2.5703,-2.5703,-2.5703,-2.5703,-2.5703,-2.5683,-2.5627,-2.5493,-2.5539,-2.5493,-2.5379,-2.5488,-2.5531,0.0,0.0,0.0,0.0,0.0,0.0,0.0,0.0,-2.0669,0.0,0.0,0.0,0.0,0.0,0.0,0.0,0.0,0.0,0.0,0.0,0.0,0.0,0.0,0.0,0.0,0.0,0.0,0.0,-0.2784,0.0,-0.2232,-0.1563,-0.1118,-0.1118,-0.0392,0.0,0.0,0.0,0.0,0.0,-0.0586,-0.2615,-0.5867,-0.7847,-1.0946,-1.479,-1.6722,-1.8044,-1.887,-1.9585,-1.9953,-2.0111,-2.0223,-2.0185,-2.0017,-1.9698,-1.9781,-2.0081,-2.0154,-2.0312,-2.0621,-2.1483,-2.1792,-2.2012,-2.2852,-2.2476,-2.1784,-2.1874,-2.1851,-2.1823,-2.1953,-2.3184,-2.4414,-2.4434,-2.4434,-2.4668,-2.5527,-2.5039,-2.4687,-2.5547,-2.5703,-2.5703,-2.5703,-2.5703,-2.5662,-2.5605,-2.5601,-2.5601,-2.5601,-2.5601,-2.5611,-2.5683,-2.5703,-2.5703,-2.5703,-2.5703,-2.5703,-2.5703,-2.5703,-2.5703,-2.5703,-2.5703,-2.5703,-2.5703,-2.5634,-2.5564,-2.5493,-2.5441,-2.536,-2.5303,-2.5513,-2.5601,0.0,0.0,-2.159,-2.1156,0.0,0.0,0.0,0.0,0.0,0.0,0.0,0.0,0.0,0.0,0.0,0.0,0.0,0.0,0.0,0.0,0.0,0.0,0.0,0.0,0.0,0.0,0.0,-0.2673,-0.1909,-0.1452,0.0,-0.1229,-0.067,0.0335,0.0112,0.0224,0.0727,0.0224,-0.022,-0.0585,-0.1543,-0.3742,-0.6937,-0.8984,-1.1825,-1.5242,-1.6897,-1.8111,-1.8987,-1.9624,-2.0054,-2.0308,-2.0354,-2.0347,-2.0282,-2.0119,-2.0055,-2.0052,-2.0204,-2.0371,-2.0643,-2.1522,-2.1464,-2.1191,-2.207,-2.1718,-2.1014,-2.1035,-2.1445,-2.1991,-2.2558,-2.3535,-2.4551,-2.5117,-2.5254,-2.5332,-2.5644,-2.5469,-2.5176,-2.4883,-2.527,-2.5458,-2.4873,-2.5244,-2.564,-2.5662,-2.5661,-2.5661,-2.5661,-2.5625,-2.5602,-2.5634,-2.5598,-2.5593,-2.5633,-2.5662,-2.5703,-2.5703,-2.5703,-2.5703,-2.5703,-2.5703,-2.5703,-2.5703,-2.5683,-2.5607,-2.5493,-2.5488,-2.5401,-2.5293,-2.542,-2.5471,-2.075,-2.1021,0.0,0.0,-2.1218,0.0,0.0,0.0,0.0,0.0,0.0,0.0,0.0,0.0,0.0,0.0,0.0,0.0,0.0,0.0,0.0,0.0,0.0,0.0,0.0,0.0,-0.2354,-0.1937,-0.1138,-0.0737,0.0,0.0,-0.0168,0.1062,0.0392,0.0336,0.1118,0.0166,-0.0702,-0.1502,-0.298,-0.5286,-0.8238,-1.0442,-1.3009,-1.5814,-1.7227,-1.8341,-1.9193,-1.9741,-2.014,-2.0398,-2.0404,-2.0408,-2.0381,-2.0342,-2.025,-2.0155,-2.0291,-2.0394,-2.067,-2.1874,-2.171,-2.1248,-2.2422,-2.1953,-2.1033,-2.1055,-2.123,-2.1522,-2.207,-2.2852,-2.3652,-2.4219,-2.457,-2.4785,-2.4785,-2.5019,-2.5058,-2.4471,-2.5027,-2.5403,-2.482,-2.5191,-2.557,-2.5611,-2.5662,-2.5683,-2.5634,-2.5607,-2.5598,-2.5564,-2.5535,-2.5526,-2.5561,-2.5631,-2.5661,-2.5661,-2.5683,-2.5703,-2.5703,-2.5703,-2.5703,-2.5703,-2.5659,-2.5601,-2.5543,-2.5498,-2.5434,-2.5379,-2.5383,-2.5398]},{"header":{"parameterUnit":"m.s-1","parameterCategory":1,"la1":30.6,"la2":29.2853,"lo1":-89.7004,"lo2":-87.6739,"dy":0.0162,"dx":0.0183,"nx":112,"ny":82,"refTime":"2023-10-18T18:00:00:Z","depth":0,"parameterNumber":3,"parameterNumberName":"V-component_of_WINDS"},"data":[0.0,0.0,0.0,0.0,0.0,0.0,0.0,0.0,0.0,0.0,0.0,0.0,0.0,0.0,0.0,0.0,0.0,0.0,0.0,0.0,0.0,0.0,0.0,0.0,0.0,0.0,0.0,0.0,0.0,0.0,0.0,0.0,0.0,0.0,0.0,0.0,0.0,0.0,0.0,0.0,0.0,0.0,0.0,0.0,0.0,0.0,0.0,0.0,0.0,0.0,0.0,0.0,0.0,0.0,0.0,0.0,0.0,0.0,0.0,0.0,0.0,0.0,0.0,0.0,0.0,0.0,0.0,0.0,0.0,0.0,0.0,0.0,0.0,0.0,0.0,0.0,0.0,0.0,0.0,0.0,0.0,0.0,0.0,0.0,0.0,0.0,0.0,0.0,0.0,0.0,0.0,0.8645,0.095,-0.5737,-1.0034,-1.359,-1.6358,-1.8131,0.0,0.0,0.0,0.0,0.0,0.0,0.0,0.0,0.0,0.0,0.0,0.0,0.0,0.0,0.0,0.0,0.0,0.0,0.0,0.0,0.0,0.0,0.0,0.0,0.0,0.0,0.0,0.0,0.0,0.0,0.0,0.0,0.0,0.0,0.0,0.0,0.0,0.0,0.0,0.0,0.0,0.0,0.0,0.0,0.0,0.0,0.0,0.0,0.0,0.0,0.0,0.0,0.0,0.0,0.0,0.0,0.0,0.0,0.0,0.0,0.0,0.0,0.0,0.0,0.0,0.0,0.0,0.0,0.0,0.0,0.0,0.0,0.0,0.0,0.0,0.0,0.0,0.0,0.0,0.0,0.0,0.0,0.0,0.0,0.0,0.0,0.0,0.0,0.0,0.0,0.0,0.0,0.0,0.0,0.0,0.0,0.0,0.0,0.0,0.0,0.0,0.0,0.0,0.0,1.0333,0.474,-0.0313,-0.5426,-1.0699,-1.4205,-1.6907,-1.8688,0.0,0.0,0.0,0.0,0.0,0.0,0.0,0.0,0.0,0.0,0.0,0.0,0.0,0.0,0.0,0.0,0.0,0.0,0.0,0.0,0.0,0.0,0.0,0.0,0.0,0.0,0.0,0.0,0.0,0.0,0.0,0.0,0.0,0.0,0.0,0.0,0.0,0.0,0.0,0.0,0.0,0.0,0.0,0.0,0.0,0.0,0.0,0.0,0.0,0.0,0.0,0.0,0.0,0.0,0.0,0.0,0.0,0.0,0.0,0.0,0.0,0.0,0.0,0.0,0.0,0.0,0.0,0.0,0.0,0.0,0.0,0.0,0.0,0.0,0.0,0.0,0.0,0.0,0.0,0.0,0.0,0.0,0.0,0.0,0.0,0.0,0.0,0.0,0.0,0.0,0.0,0.0,0.0,0.0,0.0,0.0,0.0,0.0,0.0,0.0,0.0,0.0,0.0,1.2337,0.9511,0.4282,-0.0362,-0.5444,-1.1249,-1.4547,-1.7181,-1.9192,-1.8341,0.0,0.0,0.0,0.0,0.0,0.0,0.0,0.0,0.0,0.0,0.0,0.0,0.0,0.0,0.0,0.0,0.0,0.0,0.0,0.0,0.0,0.0,0.0,0.0,0.0,0.0,0.0,0.0,0.0,0.0,0.0,0.0,0.0,0.0,0.0,0.0,0.0,0.0,0.0,0.0,0.0,0.0,0.0,0.0,0.0,0.0,0.0,0.0,0.0,0.0,0.0,0.0,0.0,0.0,0.0,0.0,0.0,0.0,0.0,0.0,0.0,0.0,0.0,0.0,0.0,0.0,0.0,0.0,0.0,0.0,0.0,0.0,0.0,0.0,0.0,0.0,0.0,0.0,0.0,0.0,0.0,0.0,0.0,0.0,0.0,0.0,0.0,0.0,0.0,0.0,0.0,0.0,0.0,0.0,0.0,0.0,0.0,0.0,0.0,0.0,0.0,0.0,1.209,0.9392,0.4717,0.0,-0.5313,-1.1398,-1.4624,-1.7181,-1.9192,-1.8535,0.0,0.0,0.0,0.0,0.0,0.0,0.0,0.0,0.0,0.0,0.0,0.0,0.0,0.0,0.0,0.0,0.0,0.0,0.0,0.0,0.0,0.0,0.0,0.0,0.0,0.0,0.0,0.0,0.0,0.0,0.0,0.0,0.0,0.0,0.0,0.0,0.0,0.0,0.0,0.0,0.0,0.0,0.0,0.0,0.0,0.0,0.0,0.0,0.0,0.0,0.0,0.0,0.0,0.0,0.0,0.0,0.0,0.0,0.0,0.0,0.0,0.0,0.0,0.0,0.0,0.0,0.0,0.0,0.0,0.0,0.0,0.0,0.0,0.0,0.0,0.0,0.0,0.0,0.0,0.0,0.0,0.0,0.0,0.0,0.0,0.0,0.0,0.0,0.0,0.0,0.0,0.0,0.0,0.0,0.0,0.0,0.0,0.0,0.0,0.0,0.0,0.0,1.2715,1.0409,0.4817,0.0409,-0.4584,-1.0832,-1.4383,-1.6866,-1.8131,-1.8145,0.0,0.0,0.0,0.0,0.0,0.0,0.0,0.0,0.0,0.0,0.0,0.0,0.0,0.0,0.0,0.0,0.0,0.0,0.0,0.0,0.0,0.0,0.0,0.0,0.0,0.0,0.0,0.0,0.0,0.0,0.0,0.0,0.0,0.0,0.0,0.0,0.0,0.0,0.0,0.0,0.0,0.0,0.0,0.0,0.0,0.0,0.0,0.0,0.0,0.0,0.0,0.0,0.0,0.0,0.0,0.0,0.0,0.0,0.0,0.0,0.0,0.0,0.0,0.0,0.0,0.0,0.0,0.0,0.0,0.0,0.0,0.0,0.0,0.0,0.0,0.0,0.0,0.0,0.0,0.0,0.0,0.0,0.0,0.0,0.0,0.0,0.0,0.0,0.0,0.0,0.0,0.0,0.0,0.0,0.0,0.0,0.0,0.0,0.0,0.0,0.0,0.0,1.2802,1.0687,0.0,0.1136,-0.372,-0.9568,-1.318,-1.5844,-1.7437,0.0,0.0,0.0,0.0,0.0,0.0,0.0,0.0,0.0,0.0,0.0,0.0,0.0,0.0,0.0,0.0,0.0,0.0,0.0,0.0,0.0,0.0,0.0,0.0,0.0,0.0,0.0,0.0,0.0,0.0,0.0,0.0,0.0,0.0,0.0,0.0,0.0,0.0,0.0,0.0,0.0,0.0,0.0,0.0,0.0,0.0,0.0,0.0,0.0,0.0,0.0,0.0,0.0,0.0,0.0,0.0,0.0,0.0,0.0,0.0,0.0,0.0,0.0,0.0,0.0,0.0,0.0,0.0,0.0,0.0,0.0,0.0,0.0,0.0,0.0,0.0,0.0,0.0,0.0,0.0,0.0,0.0,0.0,0.0,0.0,0.0,0.0,0.0,0.0,0.0,0.0,0.0,0.0,0.0,0.0,0.0,0.0,0.0,0.0,0.0,0.0,0.0,1.3334,1.2878,1.0876,0.0,0.1662,-0.3085,-0.824,-1.2091,-1.4822,-1.6328,0.0,0.0,0.0,0.0,0.0,0.0,0.0,0.0,0.0,0.0,0.0,0.0,0.0,0.0,0.0,0.0,0.0,0.0,0.0,0.0,0.0,0.0,0.0,0.0,0.0,0.0,0.0,0.0,0.0,0.0,0.0,0.0,0.0,0.0,0.0,0.0,0.0,0.0,0.0,0.0,0.0,0.0,0.0,0.0,0.0,0.0,0.0,0.0,0.0,0.0,0.0,0.0,0.0,0.0,0.0,0.0,0.0,0.0,0.0,0.0,0.0,0.0,0.0,0.0,0.0,0.0,0.0,0.0,0.0,0.0,0.0,0.0,0.0,0.0,0.0,0.0,0.0,0.0,0.0,0.0,0.0,0.0,0.0,0.0,0.0,0.0,0.0,0.0,0.0,0.0,0.0,0.0,0.0,0.0,0.0,0.0,0.0,0.0,0.0,0.0,0.0,0.0,1.3873,1.3155,1.1097,0.684,0.1973,-0.2686,-0.6997,-1.1178,-1.3911,0.0,0.0,0.0,0.0,0.0,0.0,0.0,0.0,0.0,0.0,0.0,0.0,0.0,0.0,0.0,0.0,0.0,0.0,0.0,0.0,0.0,0.0,0.0,0.0,0.0,0.0,0.0,0.0,0.0,0.0,0.0,0.0,0.0,0.0,0.0,0.0,0.0,0.0,0.0,0.0,0.0,0.0,0.0,0.0,0.0,0.0,0.0,0.0,0.0,0.0,0.0,0.0,0.0,0.0,0.0,0.0,0.0,0.0,0.0,0.0,0.0,0.0,0.0,0.0,0.0,0.0,0.0,0.0,0.0,0.0,0.0,0.0,0.0,0.0,0.0,0.0,0.0,0.0,0.0,0.0,0.0,0.0,0.0,0.0,0.0,0.0,0.0,0.0,0.0,0.0,0.0,0.0,0.0,0.0,0.0,0.0,0.0,0.0,0.0,0.0,0.0,0.0,0.0,1.3238,1.2888,1.1296,0.7592,0.3174,-0.1056,-0.4895,-0.9134,-1.2078,-1.329,0.0,0.0,0.0,0.0,0.0,0.0,0.0,0.0,0.0,0.0,0.0,0.0,0.0,0.0,0.0,0.0,0.0,0.0,0.0,0.0,0.0,0.0,0.0,0.0,0.0,0.0,0.0,0.0,0.0,0.0,0.0,0.0,0.0,0.0,0.0,0.0,0.0,0.0,0.0,0.0,0.0,0.0,0.0,0.0,0.0,0.0,0.0,0.0,0.0,0.0,0.0,0.0,0.0,0.0,0.0,0.0,0.0,0.0,0.0,0.0,0.0,0.0,0.0,0.0,0.0,0.0,0.0,0.0,0.0,0.0,0.0,0.0,0.0,0.0,0.0,0.0,0.0,0.0,0.0,0.0,0.0,0.0,0.0,0.0,0.0,0.0,0.0,0.0,0.0,0.0,0.0,0.0,0.0,0.0,0.0,0.0,0.0,0.0,0.0,0.0,0.0,0.0,1.3276,1.2926,1.1478,0.8339,0.3841,-0.0267,-0.3587,-0.7592,-1.0565,-1.2053,0.0,0.0,0.0,0.0,0.0,0.0,0.0,0.0,0.0,0.0,0.0,0.0,0.0,0.0,0.0,0.0,0.0,0.0,0.0,0.0,0.0,0.0,0.0,0.0,0.0,0.0,0.0,0.0,0.0,0.0,0.0,0.0,0.0,0.0,0.0,0.0,0.0,0.0,0.0,0.0,0.0,0.0,0.0,0.0,0.0,0.0,0.0,0.0,0.0,0.0,0.0,0.0,0.0,0.0,0.0,0.0,0.0,0.0,0.0,0.0,0.0,0.0,0.0,0.0,0.0,0.0,0.0,0.0,0.0,0.0,0.0,0.0,0.0,0.0,0.0,0.0,0.0,0.0,0.0,0.0,0.0,0.0,0.0,0.0,0.0,0.0,0.0,0.0,0.0,0.0,0.0,0.0,0.0,0.0,0.0,0.0,0.0,0.0,0.0,0.0,0.0,0.0,1.3732,1.3145,1.174,0.8968,0.4273,0.016,-0.2777,-0.636,-0.9213,-1.0959,0.0,0.0,0.0,0.0,0.0,0.0,0.0,0.0,0.0,0.0,0.0,0.0,0.0,0.0,0.0,0.0,0.0,0.0,0.0,0.0,0.0,0.0,0.0,0.0,0.0,0.0,0.0,0.0,0.0,0.0,0.0,0.0,0.0,0.0,0.0,0.0,0.0,0.0,0.0,0.0,0.0,0.0,0.0,0.0,0.0,0.0,0.0,0.0,0.0,0.0,0.0,0.0,0.0,0.0,0.0,0.0,0.0,0.0,0.0,0.0,-1.0807,0.0,0.0,0.0,0.0,0.0,0.0,0.0,0.0,0.0,0.0,0.0,0.0,0.0,0.0,0.0,0.0,0.0,0.0,0.0,0.0,0.0,0.0,0.0,0.0,0.0,0.0,0.0,0.0,0.0,0.0,0.0,0.0,0.0,0.0,0.0,0.0,0.0,0.0,0.0,0.0,0.0,1.3182,1.3256,1.2149,0.9013,0.5177,0.1624,-0.1302,-0.4877,-0.7844,-0.9887,0.0,0.0,0.0,0.0,0.0,0.0,0.0,0.0,0.0,0.0,0.0,0.0,0.0,0.0,0.0,0.0,0.0,0.0,0.0,0.0,0.0,0.0,0.0,0.0,0.0,0.0,0.0,0.0,0.0,0.0,0.0,0.0,0.0,0.0,0.0,0.0,0.0,0.0,0.0,0.0,0.0,0.0,0.0,0.0,0.0,0.0,0.0,0.0,0.0,0.0,0.0,0.0,0.0,0.0,0.0,0.0,0.0,0.0,0.0,0.0,0.0,-1.1062,0.0,0.0,0.0,0.0,0.0,0.0,0.0,0.0,0.0,0.0,0.0,0.0,0.0,0.0,0.0,0.0,0.0,0.0,0.0,0.0,0.0,0.0,0.0,0.0,0.0,0.0,0.0,0.0,0.0,0.0,0.0,0.0,0.0,0.0,0.0,0.0,0.0,0.0,0.0,0.0,1.3784,1.3911,1.2799,0.9738,0.6294,0.2878,-0.0414,-0.3675,-0.6632,-0.917,-1.0643,0.0,0.0,0.0,0.0,0.0,0.0,0.0,0.0,0.0,0.0,0.0,0.0,0.0,0.0,0.0,0.0,0.0,0.0,0.0,0.0,0.0,0.0,0.0,0.0,0.0,0.0,0.0,0.0,0.0,0.0,0.0,0.0,0.0,0.0,0.0,0.0,0.0,0.0,0.0,0.0,0.0,0.0,0.0,0.0,0.0,0.0,0.0,0.0,0.0,0.0,0.0,0.0,0.0,0.0,-0.2963,-0.3331,-0.3086,-0.3767,-0.5267,-0.7146,-0.9419,-1.1787,0.0,0.0,0.0,0.0,0.0,0.0,0.0,0.0,0.0,0.0,0.0,0.0,0.0,0.0,0.0,0.0,0.0,0.0,0.0,0.0,0.0,0.0,0.0,0.0,0.0,-0.2066,-0.2642,0.0,0.0,0.0,0.0,0.0,0.0,0.0,0.0,0.0,0.0,0.0,0.0,1.4528,1.4631,1.3493,1.0539,0.7424,0.4133,0.0584,-0.2457,-0.5498,-0.8626,-1.0608,-1.241,0.0,0.0,0.0,0.0,0.0,0.0,0.0,0.0,0.0,0.0,0.0,0.0,0.0,0.0,0.0,0.0,0.0,0.0,0.0,0.0,0.0,0.0,0.0,0.0,0.0,0.0,0.0,0.0,0.0,0.0,0.0,0.0,0.312,0.0161,0.0,0.0,0.0,0.0,0.0,0.0,0.0,0.0,0.0,0.0,0.0,0.0,0.0,0.0,0.3103,0.1867,0.1323,0.1231,0.0095,-0.1043,-0.2178,-0.2042,-0.2729,-0.4022,-0.4365,0.0,-0.9378,-1.0068,0.0,0.0,0.0,0.0,0.0,0.0,0.0,0.0,0.0,0.0,0.0,0.0,0.0,0.0,0.0,0.0,0.0,0.0,0.0,0.0,0.0,0.0,0.192,0.1634,0.0993,0.0494,0.0,-0.1043,-0.2869,-0.2855,0.0,0.0,0.0,0.0,0.0,0.0,0.0,0.0,1.4105,1.4755,1.3997,1.0543,0.8296,0.5709,0.2485,-0.0681,-0.426,-0.8297,-1.0409,-1.2665,-1.5175,-1.5276,0.0,0.0,0.0,0.0,0.0,0.0,0.0,0.0,0.0,0.0,0.0,0.0,0.0,0.0,0.0,0.0,0.0,0.0,0.0,0.0,0.0,0.0,0.0,0.0,0.0,0.0,0.0,0.0,0.0,0.6834,0.4461,0.1268,-0.056,-0.1905,0.0,0.0,0.0,0.0,0.0,0.0,0.0,0.0,0.0,0.3939,0.3798,0.3855,0.384,0.3179,0.2803,0.2801,0.2033,0.1362,0.0709,0.0267,-0.0611,-0.1945,-0.2424,-0.3907,-0.6014,-0.6875,-0.7575,-0.8115,0.0,0.0,0.0,0.0,0.0,-0.443,-0.3429,0.0,0.0,0.0,0.0,0.0,0.0,0.0,0.0,0.0,0.0,0.0,0.0,0.0,0.0,0.343,0.3813,0.4332,0.4624,0.4439,0.3301,0.0,0.0242,0.0966,0.2559,0.0,0.0,0.0,0.0,0.0,1.6139,1.6217,1.5158,1.216,0.9768,0.7172,0.424,0.0827,-0.2856,-0.6728,-1.0065,-1.3096,-1.5853,-1.6876,-1.7454,0.0,0.0,0.0,0.0,0.0,0.0,0.0,0.0,0.0,0.0,0.0,0.0,0.0,0.0,0.0,0.0,0.0,0.0,0.0,0.0,0.0,0.0,0.0,0.0,0.0,0.0,0.0,0.0,0.8141,0.6196,0.312,0.1871,0.0573,0.0,0.0,0.0,0.0,0.0,0.0,0.4999,0.5341,0.5434,0.5194,0.5108,0.5052,0.5037,0.4209,0.3796,0.3776,0.326,0.2992,0.2801,0.2179,0.1322,0.0318,-0.0571,-0.1478,-0.2456,-0.4006,-0.5106,-0.5788,-0.5595,-0.4816,-0.3891,-0.3832,-0.2997,-0.1922,-0.1044,-0.0858,-0.0747,-0.0365,0.0,-0.0345,-0.0131,0.0,0.0,0.0,0.0,0.6084,0.6745,0.0,0.5522,0.5533,0.6544,0.7559,0.7734,0.8688,0.8373,0.0,0.3595,0.4165,0.5977,0.0,0.0,0.0,0.0,1.7918,1.793,1.7651,1.6473,1.3899,1.154,0.9013,0.6293,0.2404,-0.163,-0.5658,-0.9989,-1.3778,-1.6881,-1.8431,-1.9331,-1.9653,0.0,0.0,0.0,0.0,0.0,0.0,0.0,0.0,0.0,0.0,0.0,0.0,0.0,0.0,0.0,0.0,0.0,0.0,0.0,0.0,0.0,0.0,0.0,0.0,0.0,0.0,0.0,0.0,0.0,0.6076,0.4596,0.0,0.0,0.0,0.0,0.6334,0.6647,0.7224,0.8421,0.9517,0.9616,0.8536,0.8548,0.8552,0.8468,0.6124,0.4979,0.4799,0.3537,0.2811,0.2671,0.2673,0.2637,0.2501,0.1555,0.1086,0.0838,-0.2233,-0.362,-0.376,-0.3596,-0.2945,-0.1983,-0.1031,0.0,0.1006,0.2077,0.2404,0.2373,0.3036,0.3252,0.327,0.3236,0.4526,0.0,0.0,0.8077,0.9003,0.8845,0.8699,0.8616,0.8508,0.8975,0.9664,1.0362,1.0603,1.0336,0.0,0.9066,0.9613,1.0359,0.0,1.4279,1.5986,1.8221,1.9324,1.84,1.8467,1.7704,1.5338,1.361,1.1526,0.8847,0.4191,-0.0806,-0.5951,-1.0409,-1.4686,-1.8696,-1.9819,-2.0413,-2.0623,-1.9546,0.0,0.0,0.0,0.0,0.0,0.0,0.0,0.0,0.0,0.0,0.0,0.0,0.0,0.0,0.0,0.0,0.0,0.0,0.0,0.0,0.0,0.0,0.0,0.0,0.0,0.0,0.0,0.0,0.794,0.7431,0.0,0.0,0.5941,0.6627,0.7777,0.8423,0.8973,0.9522,0.9952,0.996,0.9653,0.9628,0.9493,0.9183,0.8201,0.7564,0.7238,0.6671,0.6068,0.5359,0.4709,0.4006,0.336,0.2446,0.201,0.1827,0.0799,0.0075,-0.047,-0.0395,0.0236,0.1168,0.2062,0.255,0.2873,0.4548,0.4879,0.4772,0.6037,0.6454,0.6666,0.765,0.8392,0.9061,0.9887,1.0322,1.0627,1.0969,1.0878,1.082,1.1195,1.1704,1.2184,1.2443,1.2806,1.2997,1.2834,1.1798,1.1593,1.3527,1.4791,1.6429,1.9136,2.0061,2.0329,2.0008,1.927,1.8209,1.6758,1.5069,1.3132,1.091,0.6702,0.1795,-0.3825,-0.843,-1.3082,-1.7959,-1.9431,-2.0511,-2.1238,-1.9588,-1.78,0.0,0.0,0.0,0.0,0.0,0.0,0.0,0.0,0.0,0.0,0.0,0.0,0.0,0.0,0.0,0.0,0.0,0.0,0.0,0.0,0.0,0.0,0.0,0.0,0.0,0.0,1.198,1.0084,1.0432,1.0105,0.8387,0.8898,0.9409,0.9423,1.0014,1.034,1.0502,1.0762,1.0751,1.0326,1.0196,0.9963,0.9648,0.9055,0.8548,0.8263,0.8118,0.7636,0.6915,0.6248,0.5531,0.4865,0.3704,0.3173,0.2994,0.2589,0.2393,0.2407,0.1838,0.2357,0.3541,0.4067,0.4493,0.5018,0.64,0.6848,0.7012,0.8228,0.889,0.9369,1.0394,1.0997,1.1483,1.2061,1.2324,1.2531,1.2965,1.2871,1.2789,1.3317,1.3856,1.428,1.4405,1.4802,1.5211,1.5606,1.4298,1.3757,1.5852,1.6872,1.8361,2.1164,2.1342,2.1198,2.1414,2.029,1.9127,1.824,1.6678,1.4916,1.2937,0.8567,0.3682,-0.1578,-0.6498,-1.1404,-1.6286,-1.7772,-1.8982,-2.0017,-1.7352,-1.4702,-1.2198,0.0,0.0,0.0,0.0,0.0,0.0,0.0,0.0,0.0,0.0,0.0,0.0,0.0,0.0,0.0,0.0,0.0,0.0,0.0,0.0,0.0,0.0,0.0,1.1467,1.3276,1.4074,1.2686,1.3636,1.3446,1.1087,1.1177,1.1397,1.1615,1.1523,1.1517,1.1517,1.2305,1.2112,1.0703,1.0519,1.026,0.9939,0.8727,0.8031,0.7757,0.755,0.7333,0.7121,0.7116,0.7111,0.6992,0.5475,0.475,0.4623,0.2997,0.3299,0.4591,0.2937,0.3396,0.4954,0.489,0.5911,0.7486,0.7869,0.8478,0.9118,0.9636,1.0493,1.1341,1.1394,1.2261,1.3268,1.3268,1.3966,1.4744,1.4732,1.4637,1.4654,1.4963,1.5426,1.5866,1.6247,1.6527,1.6861,1.7345,1.6742,1.6463,1.7319,1.8667,2.0206,2.1954,2.1965,0.0,2.242,2.1474,2.0479,1.9697,1.8517,1.6959,1.4938,0.9746,0.4784,0.0584,-0.4788,-0.9681,-1.3791,-1.4863,-1.5792,-1.6746,-1.2806,-0.8765,-0.4723,0.0,0.0,0.0,0.0,0.0,0.0,0.0,0.0,0.0,0.0,0.0,0.0,0.0,0.0,0.0,0.0,0.0,0.0,0.0,0.0,0.0,0.0,1.4692,1.4805,1.5114,1.5268,1.5,1.5323,1.5279,1.463,1.4193,1.3962,1.405,1.2985,1.2388,1.2388,1.1965,1.1609,1.1166,1.0966,1.0779,1.0702,1.0717,1.0292,0.9414,0.9925,0.943,0.8058,0.7948,0.7578,0.6937,0.6471,0.6217,0.6039,0.5715,0.5804,0.5953,0.4581,0.4999,0.6598,0.773,0.899,1.0195,1.0038,1.0164,1.0518,1.1598,1.2147,1.2546,1.3484,1.401,1.4305,1.4305,1.4754,1.5269,1.5235,1.5646,1.6111,1.6209,1.6583,1.6953,1.7071,1.7237,1.7509,1.7967,1.8005,1.8163,1.8751,1.9514,2.051,2.1918,0.0,0.0,2.1818,2.0944,2.0186,1.991,1.9713,1.8694,1.6475,1.279,0.8423,0.0,-0.1306,-0.5942,-1.0695,-1.1556,-1.1657,-1.1085,-0.7587,-0.431,0.0,0.0,0.0,0.0,0.0,0.0,0.0,0.0,0.0,0.0,0.0,0.0,0.0,0.0,0.0,0.0,0.0,0.0,0.0,0.0,0.0,0.0,1.6227,1.6866,1.7868,1.7071,1.6455,1.6657,1.6768,1.651,1.5749,1.5367,1.4984,1.4579,1.3723,1.3176,1.3176,1.2565,1.216,1.1971,1.1723,1.149,1.1283,1.1495,1.1229,1.0588,1.0951,1.0483,0.9404,0.9302,0.8998,0.0,0.8214,0.8021,0.7894,0.7715,0.7746,0.0,0.0,0.0,0.0,0.0,1.044,1.1102,1.1192,1.1408,1.1796,1.288,1.3406,1.3773,1.4744,1.5207,1.5508,1.5893,1.6422,1.6898,1.706,1.7171,1.7345,1.7616,1.7581,1.7584,1.7854,1.8091,1.8355,1.8609,0.0,0.0,1.9645,1.9944,2.0541,2.1718,2.1377,2.1143,0.0,2.0838,2.0194,2.0097,2.0117,1.9383,1.7569,1.4416,0.0,0.0,0.0,-0.2126,-0.6568,-0.6957,0.0,0.0,0.0,0.0459,0.0,0.0,0.0,0.0,0.5546,0.6534,0.0,0.0,0.0,0.0,0.0,0.0,0.0,0.0,0.0,0.0,0.0,0.0,0.0,0.0,0.0,0.0,1.8636,1.8752,2.0233,1.8903,1.7792,1.7839,1.7922,1.7265,1.5643,1.5506,1.5085,1.4103,1.3941,1.3868,1.3778,0.0,0.0,0.0,0.0,1.2094,1.1679,1.1539,1.1366,1.1305,1.1088,1.0905,1.0813,1.0855,1.0906,1.0855,1.0199,0.9929,0.9877,0.9195,0.935,0.9929,0.8489,0.8449,0.929,1.0535,1.1107,0.0,0.0,0.0,0.0,1.3841,1.4457,1.4994,1.5604,1.617,1.6764,1.7661,1.8375,1.8972,1.9351,1.8866,1.8426,1.8941,1.8454,1.8021,1.857,1.8992,1.9284,1.9313,1.9739,2.0111,2.0133,2.0159,2.045,2.1333,2.0869,0.0,2.1516,2.0873,2.0303,2.0147,0.0,0.0,1.8327,1.5285,1.242,1.0052,0.5618,0.1575,-0.1791,-0.144,-0.0524,0.0842,0.2949,0.5332,0.7973,0.8774,1.0474,1.2884,1.0455,1.0691,0.0,0.0,0.0,0.0,0.0,0.0,0.0,0.0,0.0,0.0,0.0,0.0,0.0,0.0,0.0,1.8749,1.9544,2.0295,2.0784,2.0162,1.9407,1.874,1.8659,1.8229,1.697,1.6819,1.6228,1.4724,1.4318,1.3862,1.3121,1.2798,0.0,1.1955,1.1652,1.157,1.1671,1.2094,1.1956,1.1305,0.0,0.0,1.0813,1.1282,1.1513,1.1513,1.1405,1.1297,1.1247,1.0629,1.1123,1.2064,1.073,1.0923,1.2055,1.2318,1.3052,1.3971,1.4075,1.4215,1.4492,1.5552,1.599,1.625,1.7287,1.7666,0.0,1.846,1.9001,1.9476,1.9594,1.9556,1.9445,1.9425,1.9143,1.897,1.9199,1.952,1.9808,1.9898,2.0058,2.0233,2.039,2.0422,2.0475,2.0601,2.0545,2.0467,2.0437,2.0269,2.0041,1.976,1.983,1.9651,1.9033,1.7229,1.5216,1.3011,0.8286,0.475,0.2801,0.4019,0.4974,0.5398,0.7941,1.0037,1.1601,1.2745,1.4339,1.6149,1.3972,1.3816,0.0,0.0,0.0,0.0,0.0,0.0,0.0,0.0,0.0,0.0,0.0,1.8584,0.0,0.0,2.0613,2.0617,2.0711,2.0906,2.1183,2.0519,1.972,1.8929,1.8586,1.7912,1.6732,1.6579,1.6277,1.5489,1.4949,1.445,1.4024,1.3497,1.3039,1.2627,1.2483,1.2384,1.228,1.2563,1.2512,1.2097,1.2521,1.241,1.1891,1.2483,1.2754,1.2754,1.308,1.3223,1.3175,1.2898,1.3148,1.369,1.3004,1.3148,1.3737,1.3737,1.4168,1.4698,1.4698,1.488,1.5276,1.6133,1.6604,1.7107,1.844,1.8835,1.9045,1.9967,2.0523,2.0796,2.0649,2.0533,2.0359,1.999,1.9579,1.9365,1.9557,1.9782,1.9992,2.0084,2.0189,2.0296,2.042,2.0449,2.0444,2.0444,2.0357,2.0253,2.013,2.0009,1.9863,1.9636,1.9693,1.9654,1.9423,1.7864,1.6006,1.3934,1.0923,0.8622,0.7363,0.8258,0.8852,0.897,1.1305,1.2892,1.364,1.532,1.6824,1.8086,1.7623,1.7495,0.0,0.0,0.0,0.0,0.0,0.0,0.0,0.0,1.9869,2.0456,2.1464,2.211,2.1632,2.2147,2.2688,2.2861,2.208,2.1489,2.1516,2.0646,1.9666,1.8871,1.8274,1.7485,1.6214,1.616,1.6121,1.5931,1.5523,1.5247,1.5203,1.452,1.3955,1.3581,1.3429,1.3223,1.2881,1.2881,1.2881,1.2881,1.3017,1.3055,1.3113,1.3826,1.4097,1.4003,1.4468,1.4698,1.4698,1.4835,1.488,1.488,1.5017,1.5096,1.5186,1.4971,1.4971,1.5062,1.5062,1.5454,1.6015,1.6562,1.7177,1.7985,1.9353,1.9798,2.0131,2.135,2.1886,2.2082,2.2014,2.1704,2.1352,2.106,2.0364,1.9882,2.0293,2.0365,2.0384,2.0604,2.0616,2.0602,2.0643,2.0483,2.0355,2.0416,2.0241,2.0084,2.0018,1.9863,1.9701,1.9555,1.9541,1.9553,1.9606,1.8145,1.6466,1.4735,1.3513,1.2419,1.1448,1.183,1.2131,1.2196,1.3942,1.498,1.5327,1.7275,1.8619,1.9437,2.0602,2.0703,0.8024,1.1153,1.4237,1.4927,1.7283,1.9954,0.0,0.0,2.374,2.4811,2.5123,2.5132,2.4936,2.4921,2.4859,2.4272,2.3601,2.2779,2.176,2.1,2.02,1.907,1.8473,1.771,1.6456,1.6739,1.6567,1.5646,1.577,1.5786,1.5441,1.4772,1.4167,1.3768,1.327,1.293,1.2881,1.2881,1.2881,1.2929,1.342,1.3684,1.3732,1.4858,1.5096,1.4606,1.4652,1.4698,1.4744,1.5276,1.5499,1.5543,1.6095,1.6612,1.6883,1.5884,1.582,1.6293,1.6293,1.6655,1.7216,1.7733,1.8569,1.9462,2.0043,2.0516,2.0991,2.1811,2.2068,2.2356,2.3443,2.3179,2.2734,2.3277,2.2217,2.1337,2.2278,2.1952,2.1714,2.2441,2.207,2.162,2.1558,2.0751,2.0145,2.0133,2.013,2.0,1.9682,1.9649,1.9555,1.935,1.9283,1.9376,1.9656,1.8849,1.8003,1.7235,1.6182,1.5184,1.4357,1.4888,1.5374,1.5802,1.6391,1.698,1.7546,1.8988,1.9947,2.0454,2.1788,2.2187,1.2608,1.5177,0.0,0.0,1.9994,2.2787,2.4343,2.5331,2.6188,2.7255,2.7924,2.7958,2.7079,2.7045,2.6664,0.0,2.4141,2.2962,2.1374,2.0638,1.9847,1.8679,1.8631,1.8359,1.755,1.7014,1.6861,1.7086,1.6562,1.617,1.6056,1.5755,1.5018,1.3847,1.4185,1.3928,1.2929,1.3621,1.3789,1.342,1.4061,1.4329,1.4329,1.4824,1.5152,1.5231,1.5611,1.5744,1.5788,1.6008,1.6139,1.6182,1.674,1.7118,1.7229,1.6756,1.6967,1.7422,1.7422,1.7585,1.7894,1.8722,1.9352,2.0027,2.1052,2.1615,2.2029,2.2591,2.2957,2.3231,2.3269,2.3328,2.3332,2.3205,2.2669,2.2207,2.2114,2.1885,2.1633,2.1426,2.1145,2.0921,2.0896,2.0415,2.0021,1.9945,1.9863,1.976,1.9623,1.9614,1.9609,1.958,1.9645,1.9754,1.9925,1.9588,1.9182,1.8727,1.7983,1.7322,1.6743,1.6838,1.7025,1.7219,1.7863,1.8495,1.9066,2.046,2.1313,2.1729,2.2805,2.3213,1.6274,0.0,0.0,2.043,2.2816,2.5508,2.6854,2.7667,2.8398,2.9383,2.999,2.9998,2.8747,2.8614,0.0,2.6214,2.4912,2.349,2.1614,2.0678,1.9904,1.9005,1.9095,1.9208,1.912,1.7953,1.7551,1.8367,1.7491,1.6892,1.6892,1.6584,1.5776,1.434,1.4951,1.469,1.3392,1.4247,1.4468,1.405,1.4652,1.4971,1.4971,1.4971,1.5287,1.5864,1.6139,1.6337,1.6522,1.6522,1.6595,1.6752,1.7146,1.7463,1.7747,1.7747,1.7907,1.8106,1.8106,1.8288,1.8646,1.9439,2.0094,2.0782,2.1883,2.2479,2.286,2.3298,2.3689,2.3916,2.3529,2.3788,2.4041,2.3589,2.3366,2.3149,2.2745,2.252,2.2241,2.1776,2.1296,2.0953,2.0939,2.0537,2.0123,1.98,1.9791,1.9773,1.955,1.9555,1.9675,1.9836,1.9934,2.0049,2.018,2.0115,1.9963,1.9707,1.9229,1.8845,1.8592,1.8396,1.8306,1.8376,1.8992,1.9509,1.9895,2.1405,2.2222,2.2476,2.352,2.3989,0.0,0.0,2.3095,2.3847,2.5959,2.8366,3.0237,3.0687,3.0877,3.1474,3.1298,3.0746,3.0067,2.9636,2.8958,2.7642,2.6382,2.4838,2.2902,2.1574,2.0742,2.0633,2.0112,2.02,0.0,1.9911,1.892,1.8945,1.8445,1.8131,1.8131,1.7058,1.6146,1.5555,1.5028,1.472,1.4663,1.4698,1.4709,1.4698,1.5276,1.5588,1.5588,1.5588,1.5908,1.6423,1.5864,1.5952,1.6522,1.6522,1.6795,1.7271,1.7312,1.7947,1.8855,1.8855,1.8535,1.8106,1.8106,1.8736,1.9591,1.9878,2.0939,2.209,2.2488,2.2853,2.3287,2.3832,2.3988,2.417,2.4847,2.5053,2.5127,2.5354,2.4774,2.4374,2.5113,2.4668,2.4336,2.5016,2.3773,2.2609,2.2545,2.1545,2.0509,1.9726,2.0092,2.0189,1.9415,1.9485,1.9707,1.9973,2.0012,2.0115,2.0374,2.0321,2.0258,2.0177,1.9869,1.9691,1.9755,1.9548,1.9571,1.983,1.9853,1.9889,1.9895,2.1578,2.2362,2.2336,2.3859,2.4538,2.1597,0.0,2.4608,2.5136,2.6951,2.8979,3.0446,3.1213,3.1783,3.2385,3.1947,3.1237,3.06,2.9978,2.9246,2.8159,2.6981,2.5559,2.3689,2.2597,2.1686,2.0873,2.1174,0.0,0.0,0.0,0.0,2.0602,1.9798,1.9258,1.9258,1.8871,1.7861,1.618,1.6713,1.6278,1.4709,1.5478,1.5688,1.532,1.5908,1.6008,1.5632,1.5996,1.6095,1.5908,1.6095,1.6293,1.6522,1.6522,1.6837,1.7353,1.7706,1.8263,1.8968,1.96,1.9858,1.9852,1.9647,2.0008,2.0618,2.1189,2.1866,2.2574,2.3316,2.3792,2.4137,2.4435,2.4639,2.4803,2.5042,2.5224,2.5399,2.5483,2.5288,2.498,2.4667,2.4386,2.4049,2.3537,2.2996,2.2575,2.2362,2.1483,2.047,1.9538,1.9574,1.9675,1.963,1.9701,1.9843,2.0171,2.0197,2.0231,2.0336,2.0311,2.0273,2.0205,2.0095,1.9977,1.9869,1.9889,1.9884,1.9825,1.9959,2.0433,2.1227,2.2148,2.2988,2.3719,2.4361,2.4328,2.3462,2.4663,2.5831,2.6324,2.8189,3.0162,3.116,3.2065,3.2863,3.3438,3.2681,3.1773,3.1204,3.0733,2.9935,2.8401,2.7628,2.6548,2.4622,2.3583,2.2663,2.1822,2.2286,0.0,0.0,0.0,0.0,2.1455,2.0815,2.0225,1.9823,1.9623,1.8647,1.6815,1.7517,1.7073,1.5344,1.6107,1.6293,1.5908,1.6324,1.6293,1.5908,1.6337,1.6281,1.5952,1.6527,1.668,1.6522,1.671,1.7118,1.7626,1.8157,1.876,1.9492,2.028,2.0766,2.1037,2.0814,2.1084,2.1661,2.2248,2.275,2.3231,2.3969,2.4383,2.4651,2.4847,2.5003,2.5132,2.5215,2.5356,2.544,2.5396,2.5372,2.5172,2.454,2.4403,2.4168,2.3316,2.2974,2.276,2.2462,2.173,2.1047,2.0682,2.0115,1.9752,1.9793,1.979,1.992,2.0269,2.0312,2.0292,2.0301,2.0294,2.0277,2.0234,2.0172,2.0068,1.9935,2.001,2.0056,2.0085,2.007,2.0527,2.1481,2.1972,2.2357,2.2644,2.2802,2.2455,2.4177,2.5529,2.6892,2.7503,2.9677,3.1808,3.2237,3.3194,3.4091,3.4499,3.3369,3.2195,0.0,0.0,3.0994,2.8661,2.8428,2.7834,2.5864,2.4493,2.3667,0.0,0.0,0.0,0.0,0.0,0.0,2.1606,0.0,2.1016,1.9949,1.9359,1.8555,1.7451,1.7426,1.7137,1.6522,1.6522,1.6522,1.6522,1.6522,1.6552,1.6552,1.6552,1.6552,1.6595,1.7076,1.7034,1.6637,1.7105,1.7666,1.821,1.8655,1.9468,2.0382,2.0894,2.1306,2.1655,2.1615,2.205,2.2675,2.3041,2.3533,2.4082,2.4422,2.4672,2.4866,2.5053,2.511,2.5177,2.5427,2.5421,2.5317,2.5201,2.5097,2.4983,2.482,2.4769,2.4659,2.4342,2.3752,2.3205,2.285,2.2281,2.2097,2.2832,2.1585,2.0421,1.9969,1.9847,1.9939,2.0326,2.0331,2.0311,2.0295,2.0289,2.0285,2.0285,2.0109,1.9992,1.9987,1.9959,2.0125,2.0518,2.0167,2.0177,2.0589,2.1048,2.0558,1.9211,1.9256,1.8965,2.6794,2.7286,2.7729,2.8345,2.9955,3.1431,3.1546,3.2602,3.3459,3.3131,3.1981,3.1126,0.0,0.0,0.0,3.0913,2.9939,0.0,2.785,2.5723,0.0,2.2916,0.0,2.3176,2.277,2.3376,0.0,0.0,2.1719,2.1355,2.1079,2.0137,1.9108,1.8028,1.8003,1.7513,1.6522,1.6522,1.6522,1.6522,1.6909,1.7118,1.7118,1.7118,1.7312,1.7666,1.7435,1.7463,1.7706,1.7827,1.843,1.9244,1.9339,1.9993,2.091,2.1576,2.2035,2.2444,2.3145,2.3168,2.2982,2.3593,2.4025,2.4377,2.4822,2.5014,2.5136,2.5284,2.5258,2.5213,2.538,2.5088,2.4745,2.4819,2.4512,2.4245,2.4407,2.4234,2.4062,2.4063,2.382,2.3389,2.2692,2.2647,2.2556,2.2171,2.173,2.1528,2.1644,2.0564,2.0158,2.1095,2.0658,2.03,2.0304,2.0217,2.0147,2.0153,2.0057,1.9894,1.9638,2.0143,2.0156,1.9649,1.9684,1.9484,1.9054,2.0173,1.8878,1.5383,1.4859,1.4119,2.7861,2.8165,2.8464,2.9185,3.0264,3.127,3.1612,3.2474,3.3064,3.2638,3.1665,0.0,0.0,0.0,0.0,0.0,0.0,0.0,2.9058,2.6611,2.4601,0.0,2.3653,0.0,2.24,2.3161,2.3341,0.0,2.202,2.1644,2.1154,2.0075,1.9083,1.8229,1.7965,1.7413,1.6522,1.671,1.671,1.6522,1.6795,1.7076,1.7312,1.7312,1.7585,1.8106,0.0,1.8171,1.8416,1.8646,1.9192,1.9893,2.0051,2.0686,2.1562,2.2152,2.2634,2.3099,2.3802,2.3895,2.3761,2.4207,2.4512,2.4745,2.4999,2.5158,2.5288,2.5273,2.5213,2.5154,2.5143,2.4772,2.4422,2.4392,2.4052,2.3731,2.3801,2.3521,2.3311,2.3365,2.317,2.2959,2.2821,2.2962,2.298,2.2681,2.2336,2.2426,2.3281,2.1601,2.0622,2.1421,2.0694,2.0161,2.0161,1.9936,1.9791,1.9791,1.9446,1.9298,1.9415,1.9361,1.9195,1.8959,1.8679,1.7959,1.6867,1.5229,1.3355,1.1348,0.875,0.794,2.8409,2.8722,2.9097,2.9913,3.0601,3.1225,3.1846,3.2368,3.2653,3.2394,0.0,3.1183,3.1468,0.0,3.3563,3.1427,0.0,3.1967,2.998,2.7565,2.5642,2.4624,2.4489,2.3881,2.2375,2.2924,2.3058,2.2274,2.2198,2.1744,2.0655,1.9623,1.8828,1.821,1.7688,1.7112,1.6522,1.7118,1.7118,1.6522,1.671,1.6993,1.7312,1.7463,1.7787,1.8263,0.0,0.0,1.9053,1.9555,2.0066,2.049,2.0831,2.1507,2.2319,2.2735,2.3209,2.3687,2.4097,2.4429,2.4692,2.481,2.4969,2.5122,2.5043,2.5174,2.5343,2.5148,2.5058,2.5011,2.4862,2.4501,2.4117,2.3969,2.3596,2.3168,2.2898,2.2479,2.2122,2.2156,2.2078,2.2228,2.2912,2.3141,2.33,2.3588,2.3073,2.3158,2.4523,2.2636,2.1294,2.1615,2.0766,2.0088,1.9925,1.9676,1.9472,1.9397,1.8788,1.8673,1.9148,1.8228,1.788,1.8268,1.732,1.6191,1.4841,0.8936,0.6141,0.6153,0.1988,0.1618,3.0471,3.0039,2.9641,3.0085,3.0752,3.1256,3.0953,3.1378,0.0,0.0,0.0,3.0261,3.0982,3.192,0.0,3.2981,0.0,0.0,0.0,0.0,2.7194,0.0,0.0,0.0,0.0,0.0,0.0,0.0,0.0,0.0,2.0039,1.9782,1.9183,1.8231,1.7617,1.7054,1.6522,1.7463,1.7463,1.6522,1.7867,1.8066,1.7353,1.8224,1.865,1.8779,0.0,0.0,2.0078,2.0567,2.1148,2.1778,2.1864,2.2436,2.3307,2.371,2.4018,2.4312,2.4771,2.4996,2.5095,2.5065,2.5188,2.5304,2.5135,2.5153,2.5221,2.5123,2.49,2.4726,2.4917,2.4185,2.3414,2.3554,2.274,2.174,2.1042,2.0226,1.9659,1.9847,2.0733,2.1616,2.2201,2.2788,2.3212,2.3277,2.3396,2.3658,2.4082,2.2933,2.2167,2.238,2.1606,2.0644,1.9582,1.99,1.9914,1.9356,1.9258,1.8985,1.849,1.8038,1.7543,1.7023,1.5979,1.5322,1.5026,0.7186,0.1043,-0.3392,-0.3417,-0.2192,3.1885,3.1621,3.1414,3.2066,3.154,3.0776,3.0417,0.0,0.0,0.0,2.9528,3.0251,3.1047,0.0,0.0,0.0,0.0,0.0,0.0,0.0,0.0,0.0,0.0,0.0,0.0,0.0,0.0,0.0,0.0,0.0,2.036,1.9674,1.8839,1.7774,1.7705,1.7463,1.6909,1.7422,1.7422,1.6909,1.7706,1.8106,1.8185,1.8939,1.9383,1.9671,0.0,0.0,2.1023,2.1602,2.2062,2.2451,2.2726,2.3213,2.3798,2.4139,2.4447,2.4745,2.5046,2.5134,2.5108,2.5108,2.518,2.5208,2.5013,2.4964,2.4954,2.4835,2.4676,2.4514,2.4362,2.3773,2.3124,2.2849,2.1549,2.0235,1.9611,1.9131,1.884,1.8928,1.9916,2.0942,2.1456,2.1824,2.219,2.2565,2.2745,2.3094,2.3676,2.3254,2.2805,2.2483,2.1832,2.0908,1.9664,1.9841,1.9681,1.8818,1.8538,1.813,1.7474,1.6542,1.5996,1.5874,1.1755,0.9333,0.8736,0.0133,-0.4401,-0.5051,-0.6065,-0.4802,3.3021,3.2964,3.2872,3.3604,3.2186,3.0315,2.9062,2.9023,0.0,0.0,2.8425,3.0303,3.1033,0.0,0.0,0.0,0.0,0.0,0.0,0.0,0.0,0.0,0.0,0.0,0.0,0.0,0.0,0.0,0.0,0.0,0.0,1.923,1.8179,1.7325,1.7706,1.7747,1.7312,1.7544,1.7585,1.7463,1.7706,1.8145,1.8727,1.9346,1.9814,2.0196,0.0,0.0,0.0,2.2426,2.277,2.2855,2.34,2.3836,2.4207,2.4459,2.4802,2.5117,2.5234,2.5122,2.4946,2.4926,2.4979,2.5004,2.4809,2.4731,2.47,2.4458,2.4355,2.4229,2.3783,2.331,2.2702,2.162,1.9731,1.8068,1.763,1.7461,1.7382,1.7487,1.8745,1.9913,2.0405,2.0765,2.1197,2.1782,2.191,2.2275,2.3099,2.3258,2.3055,2.2421,2.1944,2.1133,1.983,1.9911,1.9536,1.8375,1.7852,1.7348,1.6913,1.3887,1.22,1.2251,0.5996,0.2205,0.1142,-0.5994,-0.7802,-0.4683,-0.6912,-0.5876,3.4172,3.3449,3.271,3.2737,3.2054,3.0175,2.5534,0.0,0.0,2.4366,2.6782,2.9806,3.0308,3.0868,3.1362,0.0,0.0,0.0,0.0,0.0,0.0,0.0,0.0,0.0,0.0,0.0,0.0,0.0,0.0,0.0,0.0,1.8067,1.7406,1.7312,1.7353,1.7353,1.7312,1.8263,1.8496,1.8027,1.9006,1.9006,1.8224,1.9244,1.9681,1.9713,0.0,0.0,0.0,2.2712,2.3141,2.3212,2.3733,2.4279,2.4762,2.5034,2.5266,2.5457,2.5471,2.5182,2.4764,2.4473,2.4584,2.4799,2.4591,2.4528,2.4476,2.4137,2.3906,2.372,2.3551,2.2856,2.1637,1.9456,1.6717,1.4582,1.4147,1.3693,1.3492,1.3974,1.6191,1.8214,1.8745,2.0039,2.1023,2.1086,2.1364,2.1703,2.2173,2.247,2.2623,2.2504,2.2343,2.158,1.994,2.0415,2.0123,1.8482,1.8012,1.7692,1.7496,0.9484,0.4432,0.3138,-0.1178,-0.3741,-0.4456,-0.6006,-0.6413,-0.5748,-0.5696,-0.4446,3.4698,3.4357,3.3768,3.3641,3.1877,2.8845,2.3781,0.0,2.5769,2.2178,2.5008,2.8577,2.9975,3.0342,3.0597,0.0,0.0,0.0,0.0,0.0,0.0,0.0,0.0,0.0,0.0,0.0,0.0,0.0,0.0,0.0,0.0,1.8055,1.7626,1.7312,1.7312,1.7312,1.7312,1.7706,1.7987,1.8106,1.8855,1.9169,1.9095,2.0039,2.0465,2.0518,0.0,0.0,0.0,2.3165,2.35,2.357,2.4227,2.4618,2.4847,2.5236,2.5418,2.5449,2.5496,2.5255,2.4897,2.4758,2.4538,2.428,2.408,2.4154,2.4247,2.3905,2.3759,2.3548,2.2842,2.1341,1.9485,1.7468,1.5691,1.4271,1.3708,1.3761,1.4152,1.5033,1.6692,1.8212,1.909,1.9221,1.9286,1.9506,1.9916,2.0334,2.0733,2.1486,2.2228,2.279,2.2683,2.1951,2.0465,2.0081,1.9269,1.7775,1.7229,1.5879,1.351,0.6292,0.0215,-0.4335,-0.5818,-0.7351,-0.8981,-0.9319,-0.8359,-0.6251,-0.5233,-0.3629,3.4642,3.4587,3.4226,3.4112,3.203,2.7871,0.0,0.0,2.2392,1.6678,2.0487,2.5575,2.8018,2.8669,2.9047,0.0,0.0,3.0931,0.0,0.0,0.0,0.0,0.0,0.0,0.0,0.0,0.0,0.0,0.0,0.0,0.0,1.7826,1.7626,1.7076,1.7229,1.7312,1.7312,1.7463,1.7827,1.8341,1.8893,1.9332,1.9711,2.0465,2.0862,0.0,0.0,0.0,0.0,2.3522,2.3819,2.3864,2.4554,2.482,2.4905,2.535,2.5466,2.5403,2.5485,2.5244,2.4903,2.4822,2.4423,2.3968,2.3759,2.3795,2.3837,2.35,2.3259,2.2785,2.1587,1.9937,1.8148,1.6417,1.5128,1.4198,1.3752,1.3989,1.4563,1.5384,1.6599,1.7731,1.8565,1.8034,1.7692,1.8159,1.8521,1.8136,1.6398,1.6905,1.7372,1.7309,1.6739,1.6852,1.8031,1.6221,1.4146,1.2023,1.1551,1.0297,0.7922,0.1316,-0.5101,-1.1095,-1.0884,-1.1257,-1.2331,-1.142,-0.9416,-0.6513,-0.483,-0.2874,3.3942,3.3807,3.3677,3.3618,3.2636,2.7636,0.0,0.0,1.8717,0.6751,1.2268,2.033,2.3819,2.5155,2.6078,2.708,2.7644,0.0,0.0,0.0,0.0,0.0,0.0,0.0,0.0,0.0,0.0,0.0,0.0,0.0,0.0,0.0,1.7076,1.6522,1.7034,1.7312,1.7312,1.7827,1.838,1.8893,1.9442,1.969,1.9711,2.0124,0.0,0.0,0.0,0.0,0.0,2.3795,2.4116,2.4044,2.4582,2.4877,2.505,2.5389,2.5469,2.5418,2.5486,2.5155,2.4657,2.4395,2.4171,2.3968,2.3759,2.3459,2.3141,2.2797,2.2169,2.1287,1.9718,1.8979,1.8204,1.6677,1.4933,1.3663,1.3776,1.3705,1.3674,1.3786,1.5152,1.6325,1.6325,1.6338,1.6582,1.7308,1.7441,1.5031,0.8378,0.7539,0.657,0.3974,0.2392,0.4383,1.149,0.7773,0.3422,-0.0374,-0.0493,0.0094,0.1255,-0.6285,-1.2638,-1.7223,-1.7034,-1.6017,-1.4272,-1.1198,-0.8652,-0.6529,-0.4365,-0.2109,3.276,3.2754,3.242,3.2257,3.0697,2.6391,1.5714,0.0,1.6766,0.8849,1.2225,1.7701,2.1341,2.2983,2.4338,2.5974,2.6483,0.0,0.0,0.0,0.0,0.0,0.0,0.0,0.0,0.0,0.0,0.0,0.0,0.0,0.0,0.0,1.7827,1.6552,1.7034,1.7312,1.7312,1.8224,1.8727,1.8893,1.9442,1.969,1.9711,2.0431,0.0,0.0,0.0,0.0,0.0,2.3631,2.384,2.3846,2.4554,2.4848,2.4976,2.5309,2.5447,2.5453,2.5438,2.5286,2.5097,2.5008,2.4746,2.4464,2.4407,2.4152,2.3774,2.3189,2.231,2.1191,1.9703,1.8753,1.7807,1.636,1.5721,1.5224,1.4532,1.449,1.4807,1.5377,1.5921,1.4888,1.0454,0.8015,0.6362,0.5271,0.4306,0.3246,0.1904,0.2638,0.3377,0.3616,0.0016,-0.0197,0.5253,0.2693,0.0162,-0.1314,-0.3996,-0.4933,-0.3637,-1.0656,-1.4201,-1.337,-1.4234,-1.3978,-1.2522,-1.0152,-0.7647,-0.5031,-0.3329,-0.2171,0.0,3.1439,3.1188,3.0847,2.9212,0.0,0.0,0.0,1.4865,0.8301,1.0675,1.5001,1.8699,2.0527,2.2076,2.3871,2.4768,0.0,0.0,0.0,0.0,0.0,0.0,0.0,0.0,0.0,0.0,0.0,0.0,0.0,0.0,0.0,1.8341,1.7146,1.7626,1.7706,1.7312,1.838,1.8817,1.8612,1.9485,1.9945,1.998,0.0,0.0,0.0,0.0,0.0,0.0,2.3692,2.3939,2.4059,2.4586,2.4866,2.5004,2.5313,2.5467,2.5503,2.5484,2.5428,2.536,2.5299,2.4904,2.4447,2.4348,2.424,2.4041,2.3617,2.2599,2.1325,1.9941,1.9111,1.8257,1.6806,1.6607,1.5096,0.9244,0.7855,0.7698,0.7362,0.8037,0.7516,0.3822,0.1222,-0.1284,-0.4071,-0.4439,-0.5065,-0.6899,-0.6296,-0.5215,-0.3992,-0.7517,-0.8654,-0.5343,-0.5929,-0.7061,-0.841,-1.0625,-1.1429,-1.0445,-1.4471,-1.5744,-1.3703,-1.4113,-1.3672,-1.2349,-0.9394,-0.6699,-0.4371,-0.3169,-0.2454,0.0,2.9526,0.0,0.0,0.0,0.0,0.0,0.0,0.0,0.5862,0.8092,1.2486,1.6059,1.8032,1.9681,2.1212,0.0,0.0,0.0,0.0,0.0,0.0,0.0,0.0,0.0,0.0,0.0,0.0,0.0,0.0,0.0,0.0,0.0,1.8224,1.8727,1.8496,1.7435,1.8458,1.8727,1.8288,1.9641,2.0314,2.0382,0.0,0.0,0.0,0.0,0.0,0.0,2.3937,2.4303,2.4476,2.4716,2.4924,2.5139,2.5401,2.5495,2.5508,2.5554,2.5538,2.5464,2.5272,2.4685,2.3997,2.3688,2.3716,2.3809,2.3588,2.2497,2.1034,1.9386,1.8817,1.8199,1.646,1.6099,1.2637,-0.0046,-0.3809,-0.5535,-0.8279,-0.6787,-0.4817,-0.389,-0.4996,-0.728,-1.0923,-0.9674,-1.0526,-1.666,-1.7453,-1.7166,-1.6436,-1.8321,-1.9214,-1.8166,-1.6598,-1.6799,-1.9543,-1.8972,-1.8413,-1.8087,-1.7572,-1.7247,-1.7137,-1.5874,-1.4541,-1.3176,-0.8727,-0.5864,-0.4375,-0.3727,-0.301,2.2335,0.0,2.4614,2.4519,2.3859,2.1467,0.0,0.0,0.0,0.0,0.0,0.0,0.0,0.0,0.0,0.0,0.0,0.0,0.0,0.0,0.0,0.0,0.0,0.0,0.0,0.0,0.0,0.0,0.0,0.0,0.0,0.0,0.0,1.9332,1.9722,1.9528,1.8535,1.9169,1.9594,1.9798,2.0128,2.0483,2.0862,0.0,0.0,0.0,0.0,0.0,2.361,2.4016,2.4173,2.4173,2.4632,2.4924,2.5119,2.5278,2.5417,2.5488,2.5409,2.5425,2.5472,2.527,2.4422,2.3353,2.2683,2.2397,2.1831,1.9464,1.7774,1.5328,0.9392,0.8123,0.745,0.3807,0.3293,0.2834,-0.0081,-0.4948,-1.1246,-1.9751,-1.8978,-1.6825,-1.6581,-1.8004,-1.8685,-1.7296,-1.7233,-1.7463,-1.7804,-1.7895,-1.772,-1.7126,-1.8274,-1.8968,-1.8712,-1.8309,-1.8559,-1.9624,-1.8774,-1.8363,-1.8674,-1.8559,-1.7892,-1.6621,-1.3982,-1.167,-0.9837,-0.7653,-0.5878,-0.4453,-0.4291,-0.4125,1.8298,2.0893,2.2647,2.2793,2.1937,2.0213,1.6784,0.0,0.0,0.0,0.0,0.0,0.0,0.0,0.0,0.0,0.0,0.0,0.0,0.0,0.0,0.0,0.0,0.0,0.0,0.0,0.0,0.0,0.0,0.0,0.0,0.0,0.0,0.0,2.0193,1.9849,1.8893,1.9844,2.0193,1.9989,2.0601,2.1039,2.1275,0.0,0.0,0.0,0.0,0.0,2.3714,2.4074,2.421,2.4282,2.4648,2.4924,2.5129,2.5291,2.541,2.5464,2.5173,2.5116,2.5108,2.4621,2.3548,2.2266,2.1172,1.9399,1.7576,1.6885,1.5338,1.2638,0.7318,0.531,0.3415,-0.16,-0.348,-0.5134,-0.8807,-1.3064,-1.7803,-2.3228,-2.3007,-2.1756,-2.1265,-2.201,-2.1991,-1.9938,-1.9388,-1.8829,-1.7759,-1.7679,-1.7666,-1.7626,-1.8598,-1.9281,-1.9281,-1.9043,-1.9132,-1.969,-1.893,-1.8688,-1.9244,-1.9043,-1.7972,-1.6009,-1.3152,-1.0881,-0.9144,-0.741,-0.6041,-0.4948,-0.4625,-0.4519,1.5568,1.9028,2.178,2.1705,2.0564,1.9114,1.7798,0.0,0.0,0.0,0.0,0.0,0.0,0.0,0.0,0.0,0.0,0.0,0.0,0.0,0.0,0.0,0.0,0.0,0.0,0.0,0.0,0.0,0.0,0.0,0.0,0.0,0.0,0.0,2.0449,2.0093,1.9236,2.04,2.0634,1.9924,2.1038,2.1672,2.1774,2.2175,0.0,0.0,0.0,0.0,2.3795,2.4074,2.4339,2.4559,2.4731,2.4943,2.5149,2.5288,2.5355,2.5305,2.4774,2.4539,2.4326,2.3528,2.2221,2.0651,1.9124,1.5698,1.2563,1.3552,1.2269,0.9815,0.6154,0.3549,0.0399,-0.5351,-0.845,-1.2119,-1.9433,-2.2159,-2.3093,-2.2747,-2.2829,-2.2698,-2.1873,-2.1551,-2.1126,-2.0339,-1.886,-1.7689,-1.7247,-1.7342,-1.7625,-1.8087,-1.9051,-1.969,-1.969,-1.9207,-1.9132,-1.969,-1.9207,-1.9095,-1.9566,-1.8902,-1.7558,-1.5548,-1.2924,-1.0948,-0.968,-0.7623,-0.6145,-0.532,-0.4787,-0.4408,1.5249,1.7723,1.9263,1.7823,1.7213,1.6627,1.5137,0.0,0.0,0.0,0.0,0.0,0.0,0.0,0.0,0.0,0.0,0.0,0.0,0.0,0.0,0.0,0.0,0.0,0.0,0.0,0.0,0.0,0.0,0.0,0.0,0.0,0.0,0.0,0.0,2.1165,2.0682,2.0894,2.1118,2.129,2.1491,2.1919,2.2521,2.2608,2.2972,0.0,0.0,2.3816,2.4132,2.417,2.4428,2.476,2.479,2.5,2.5254,2.5113,2.4957,2.4717,2.3903,2.3293,2.2737,2.2069,2.0295,1.8065,1.5891,1.2738,0.9022,0.4642,0.3028,0.1012,-0.6065,-0.8802,-1.1085,-1.6417,-1.8034,-1.8947,-2.1045,-2.1934,-2.2447,-2.2929,-2.2652,-2.2417,-2.2712,-2.1504,-2.0235,-1.9502,-1.8612,-1.7866,-1.7368,-1.8078,-1.8674,-1.875,-1.9317,-1.969,-1.969,-1.9207,-1.9132,-1.969,-1.9207,-1.893,-1.9006,-1.7531,-1.6308,-1.5504,-1.2503,-1.0527,-0.968,-0.7623,-0.5919,-0.4594,-0.4505,-0.4125,1.6242,1.7676,1.8435,1.8238,1.801,1.7668,0.0,0.0,0.0,0.0,0.0,0.0,0.0,0.0,0.0,0.0,0.0,0.0,0.0,0.0,0.0,0.0,0.0,0.0,0.0,0.0,0.0,0.0,0.0,0.0,0.0,0.0,0.0,0.0,0.0,0.0,2.1691,2.1845,2.1816,2.1582,2.1869,2.2237,2.2695,2.2695,2.313,2.3866,0.0,2.3941,2.4339,2.4247,2.4375,2.4639,2.4639,2.4799,2.4968,2.4448,2.3909,2.3377,2.2751,2.216,2.155,2.0606,1.8447,1.5755,1.3354,0.9242,0.4584,0.0524,-0.0988,-0.2727,-0.8629,-1.1335,-1.3325,-1.6396,-1.806,-1.9153,-2.004,-2.1064,-2.1936,-2.2372,-2.1905,-2.145,-2.1397,-2.033,-1.92,-1.8323,-1.814,-1.8027,-1.7747,-1.8419,-1.8893,-1.8893,-1.9132,-1.9281,-1.9281,-1.9043,-1.8893,-1.8855,-1.8893,-1.8468,-1.7572,-1.6473,-1.5481,-1.4596,-1.2113,-1.0434,-0.968,-0.7623,-0.6032,-0.4984,-0.4673,-0.4294,1.7069,1.8044,1.853,1.9414,1.9444,0.0,0.0,0.0,0.0,0.0,0.0,0.0,0.0,0.0,0.0,0.0,0.0,0.0,0.0,0.0,0.0,0.0,0.0,0.0,0.0,0.0,0.0,0.0,0.0,0.0,0.0,0.0,0.0,0.0,0.0,0.0,2.2388,2.2599,2.2378,2.1764,2.2271,2.2634,2.2822,2.2961,2.3414,2.4118,2.3945,2.4117,2.4478,2.4284,2.4266,2.4389,2.4389,2.4295,2.4075,2.3391,2.2559,2.1758,2.1259,2.0665,1.9906,1.8745,1.6323,1.3286,1.0516,0.5891,0.0905,-0.244,-0.4046,-0.5571,-0.9004,-1.1563,-1.3564,-1.4699,-1.6542,-1.8276,-1.9176,-2.0396,-2.1334,-2.147,-2.0893,-2.0211,-1.9794,-1.9002,-1.8193,-1.7422,-1.7666,-1.7947,-1.8066,-1.8574,-1.8893,-1.8893,-1.8893,-1.8855,-1.8727,-1.8688,-1.8496,-1.7947,-1.8535,-1.8143,-1.6464,-1.5823,-1.4937,-1.3815,-1.1796,-1.0543,-0.9944,-0.7682,-0.6199,-0.5475,-0.4838,-0.4405,1.6818,1.8498,1.9709,1.9797,1.9678,0.0,1.9272,1.9256,0.0,1.9932,0.0,0.0,0.0,0.0,0.0,0.0,0.0,0.0,0.0,0.0,0.0,0.0,0.0,0.0,0.0,0.0,0.0,0.0,0.0,0.0,0.0,0.0,0.0,0.0,0.0,0.0,2.2686,2.2695,2.2546,2.2254,2.2857,2.3159,2.3189,2.3689,2.4118,2.4459,2.4442,2.4459,2.4478,2.4284,2.4135,2.4044,2.4044,2.3313,2.2255,2.1876,2.1052,1.9993,1.9263,1.8309,1.721,1.6056,1.352,1.027,0.6751,0.3074,-0.0954,-0.5751,-0.8159,-0.946,-1.0463,-1.2609,-1.4846,-1.5923,-1.7477,-1.9001,-2.0012,-2.0299,-2.0385,-2.0325,-1.9647,-1.8999,-1.889,-1.8076,-1.7381,-1.7312,-1.7353,-1.7544,-1.8027,-1.8574,-1.8893,-1.8893,-1.8893,-1.8688,-1.8224,-1.8185,-1.7947,-1.7394,-1.8341,-1.8143,-1.6464,-1.5823,-1.4937,-1.3815,-1.1796,-1.0762,-1.0704,-0.7947,-0.6239,-0.55,-0.4831,-0.4125,1.8279,1.9494,2.0231,2.1289,2.1485,0.0,0.0,2.0736,2.1288,2.1487,2.221,0.0,0.0,0.0,0.0,0.0,0.0,0.0,0.0,0.0,0.0,0.0,0.0,0.0,0.0,0.0,0.0,0.0,0.0,0.0,0.0,0.0,0.0,0.0,0.0,0.0,0.0,2.3117,2.3159,2.2857,2.3087,2.3189,2.3212,2.3751,2.4137,2.4381,2.4474,2.4559,2.4654,2.4098,2.386,2.3764,2.3312,2.216,2.0708,2.0635,2.0024,1.9082,1.8124,1.7032,1.577,1.4137,1.102,0.7341,0.4254,0.0477,-0.3449,-0.666,-0.894,-1.073,-1.226,-1.3918,-1.5472,-1.6599,-1.7891,-1.9051,-1.9788,-1.9899,-1.9763,-1.9462,-1.8522,-1.781,-1.7853,-1.6663,-1.5928,-1.6697,-1.6756,-1.6954,-1.7544,-1.8066,-1.8263,-1.7947,-1.7907,-1.7653,-1.7094,-1.7679,-1.772,-1.6815,-1.749,-1.7136,-1.5386,-1.5118,-1.4446,-1.3238,-1.1616,-1.0813,-1.0813,-0.7947,-0.647,-0.6131,-0.5003,-0.4349,1.9343,2.0153,2.0725,2.2248,0.0,0.0,2.2061,2.2296,2.2797,2.3165,2.4106,0.0,0.0,0.0,0.0,0.0,0.0,0.0,0.0,0.0,0.0,0.0,0.0,0.0,0.0,0.0,0.0,0.0,0.0,0.0,0.0,0.0,0.0,0.0,0.0,0.0,0.0,2.3459,2.3649,2.3522,2.3522,2.3459,2.3392,2.3987,2.4331,2.446,2.4554,2.467,2.4741,2.4003,2.3383,2.2856,2.2136,2.0795,1.9271,1.9144,1.8544,1.7625,1.649,1.5421,1.4191,1.1978,0.8691,0.5088,0.2027,-0.167,-0.5193,-0.7342,-0.932,-1.1258,-1.3253,-1.4505,-1.5516,-1.668,-1.7813,-1.8727,-1.9132,-1.9148,-1.897,-1.8482,-1.7411,-1.6645,-1.6718,-1.562,-1.4971,-1.5788,-1.5896,-1.6133,-1.6912,-1.7313,-1.7436,-1.7037,-1.6701,-1.6305,-1.5915,-1.676,-1.697,-1.6219,-1.6714,-1.6416,-1.505,-1.4789,-1.4201,-1.319,-1.1625,-1.0704,-1.0434,-0.7841,-0.6475,-0.6204,-0.5062,-0.4519,1.9606,2.0415,2.1236,0.0,0.0,0.0,2.4379,2.396,2.3712,2.4886,0.0,0.0,0.0,0.0,0.0,0.0,0.0,0.0,0.0,0.0,0.0,0.0,0.0,0.0,0.0,0.0,0.0,0.0,0.0,0.0,0.0,0.0,0.0,0.0,0.0,0.0,0.0,2.3692,2.3876,2.419,2.419,2.4016,2.3735,2.4454,2.4804,2.4804,2.4804,2.4804,2.4727,2.3984,2.274,2.1196,2.0476,1.9286,1.7917,1.7303,1.6448,1.5398,1.4125,1.328,1.228,0.9408,0.6561,0.3601,0.0,-0.3155,-0.5927,-0.8081,-0.9725,-1.1249,-1.3165,-1.4204,-1.5005,-1.6133,-1.7259,-1.8106,-1.8106,-1.8051,-1.7865,-1.7368,-1.6311,-1.5516,-1.5576,-1.5107,-1.4709,-1.4698,-1.4698,-1.5096,-1.625,-1.6378,-1.6378,-1.6378,-1.5353,-1.4698,-1.4709,-1.5231,-1.5588,-1.5588,-1.6139,-1.6194,-1.5632,-1.5017,-1.4376,-1.3768,-1.1796,-1.0434,-0.968,-0.757,-0.6199,-0.5487,-0.4787,-0.4463,2.1111,2.1961,0.0,2.4372,0.0,0.0,0.0,2.4633,0.0,0.0,0.0,0.0,0.0,0.0,0.0,0.0,0.0,0.0,0.0,0.0,0.0,0.0,0.0,0.0,0.0,0.0,0.0,0.0,0.0,0.0,0.0,0.0,0.0,0.0,0.0,0.0,0.0,0.0,2.4094,2.419,2.4339,2.4154,2.3714,2.4319,2.4554,2.446,2.4554,2.4554,2.4323,2.268,2.1043,1.9527,1.9301,1.8032,1.6353,1.6541,1.5612,1.4171,1.3328,1.196,1.0155,0.786,0.4805,0.1574,-0.109,-0.3944,-0.6514,-0.7652,-0.937,-1.1057,-1.2046,-1.3517,-1.5096,-1.6659,-1.7572,-1.7973,-1.7572,-1.7504,-1.7218,-1.6213,-1.5452,-1.4949,-1.496,-1.4107,-1.3705,-1.456,-1.4329,-1.4318,-1.5096,-1.5219,-1.5219,-1.5219,-1.4915,-1.4514,-1.4097,-1.4606,-1.4778,-1.4365,-1.4926,-1.5152,-1.4971,-1.4332,-1.348,-1.2395,-1.0367,-0.9193,-0.8978,-0.6367,-0.4922,-0.4703,-0.3448,-0.3178,2.3314,2.4035,0.0,2.657,2.6769,2.6517,2.6211,0.0,0.0,0.0,0.0,0.0,0.0,0.0,0.0,0.0,0.0,0.0,0.0,0.0,0.0,0.0,0.0,0.0,0.0,0.0,0.0,0.0,0.0,0.0,0.0,0.0,0.0,0.0,0.0,0.0,0.0,0.0,0.0,2.419,2.4321,2.4248,2.4022,2.4441,2.4538,2.4381,2.4316,2.3858,2.3004,2.1619,2.0035,1.8436,1.7995,1.6918,1.5588,1.5419,1.4528,1.3175,1.1987,1.0338,0.8346,0.5646,0.2941,0.0273,-0.1981,-0.447,-0.6696,-0.7128,-0.8947,-1.0956,-1.1563,-1.3032,-1.4687,-1.5959,-1.6844,-1.7218,-1.6384,-1.6213,-1.5997,-1.5318,-1.4538,-1.4071,-1.4283,-1.3304,-1.2832,-1.3836,-1.3873,-1.3909,-1.4283,-1.4329,-1.4329,-1.4329,-1.4107,-1.3836,-1.3467,-1.4014,-1.419,-1.3815,-1.4376,-1.4457,-1.3971,-1.3575,-1.3004,-1.219,-0.99,-0.8567,-0.8246,-0.5662,-0.4262,-0.3938,-0.2728,-0.2619,2.5791,0.0,0.0,2.8781,2.8846,0.0,0.0,0.0,0.0,0.0,0.0,0.0,0.0,0.0,0.0,0.0,0.0,0.0,0.0,0.0,0.0,0.0,0.0,0.0,0.0,0.0,0.0,0.0,0.0,0.0,0.0,0.0,0.0,0.0,0.0,0.0,0.0,0.0,0.0,0.0,2.4209,2.4321,2.4512,2.467,2.4639,2.4408,2.4007,2.2859,2.1226,2.0734,1.9486,1.7812,1.6735,1.6003,1.5365,1.4179,1.3273,1.2318,1.0285,0.8664,0.6844,0.3333,0.1151,-0.0494,-0.2662,-0.4827,-0.6588,-0.6588,-0.8626,-1.0906,-1.1472,-1.2706,-1.3909,-1.4433,-1.5386,-1.5959,-1.4869,-1.4596,-1.4608,-1.4549,-1.3705,-1.3152,-1.3637,-1.2706,-1.2129,-1.2774,-1.3372,-1.3732,-1.3732,-1.3732,-1.3732,-1.3732,-1.319,-1.2832,-1.2881,-1.3314,-1.3627,-1.3627,-1.4133,-1.3878,-1.2667,-1.2667,-1.2667,-1.2522,-0.9893,-0.8199,-0.7505,-0.5287,-0.3883,-0.3287,-0.2454,-0.2565,2.6674,2.7589,0.0,0.0,2.9547,0.0,0.0,0.0,0.0,0.0,0.0,0.0,0.0,0.0,0.0,0.0,0.0,0.0,0.0,0.0,0.0,0.0,0.0,0.0,0.0,0.0,0.0,0.0,0.0,0.0,0.0,0.0,0.0,0.0,0.0,0.0,2.419,2.419,2.419,0.0,2.4357,2.4461,2.4495,2.4375,2.4173,2.3842,2.3064,2.2027,2.0734,1.9652,1.8522,1.7313,1.6219,1.541,1.4732,1.349,1.2278,1.0998,0.9445,0.7635,0.5533,0.3014,0.0825,-0.1162,-0.2781,-0.4827,-0.6588,-0.6588,-0.8626,-1.0813,-1.0956,-1.2385,-1.3732,-1.3382,-1.419,-1.4869,-1.4143,-1.4365,-1.4411,-1.3478,-1.3467,-1.3515,-1.3152,-1.2861,-1.2725,-1.2881,-1.3017,-1.3104,-1.3104,-1.3104,-1.3104,-1.3104,-1.2442,-1.2295,-1.2832,-1.2482,-1.2248,-1.2248,-1.2346,-1.2043,-1.1258,-1.167,-1.1472,-1.0458,-0.8212,-0.6956,-0.6789,-0.4045,-0.2896,-0.3345,-0.1953,-0.2063,2.8647,0.0,0.0,3.1245,0.0,0.0,0.0,0.0,0.0,0.0,0.0,0.0,0.0,0.0,0.0,0.0,0.0,0.0,0.0,0.0,0.0,0.0,0.0,0.0,0.0,0.0,0.0,0.0,0.0,0.0,0.0,0.0,0.0,0.0,0.0,0.0,2.419,2.419,2.419,2.419,2.4303,2.4357,2.4339,2.4192,2.3764,2.3118,2.2245,2.1087,1.9721,1.8809,1.7839,1.6824,1.594,1.5231,1.456,1.3253,1.172,1.0061,0.8659,0.6513,0.4072,0.1869,-0.011,-0.189,-0.3398,-0.4886,-0.6126,-0.6342,-0.7959,-0.9657,-0.9864,-1.0906,-1.191,-1.1902,-1.3129,-1.4107,-1.3515,-1.361,-1.3658,-1.3017,-1.3152,-1.3286,-1.2978,-1.2881,-1.2774,-1.2452,-1.2666,-1.2881,-1.2881,-1.2881,-1.2881,-1.2881,-1.2559,-1.2501,-1.2881,-1.2236,-1.1814,-1.1814,-1.1516,-1.1015,-1.0364,-1.0594,-1.0501,-0.9814,-0.77,-0.6588,-0.6588,-0.3996,-0.2954,-0.3345,-0.2174,-0.2232,3.0341,0.0,3.1219,3.238,3.1507,0.0,0.0,0.0,0.0,0.0,0.0,0.0,0.0,0.0,0.0,0.0,0.0,0.0,0.0,0.0,0.0,0.0,0.0,0.0,0.0,0.0,0.0,0.0,0.0,0.0,0.0,0.0,0.0,0.0,0.0,2.4209,2.4266,2.4209,2.4209,2.4266,2.4266,2.4228,2.419,2.4004,2.3368,2.2419,2.1508,2.0184,1.8627,1.8087,1.7341,1.6423,1.5732,1.5096,1.4354,1.284,1.1098,0.932,0.7759,0.5604,0.3149,0.0883,-0.0831,-0.2282,-0.3819,-0.4816,-0.5604,-0.6051,-0.7209,-0.8398,-0.8889,-0.9422,-1.003,-1.0606,-1.1984,-1.3077,-1.2696,-1.257,-1.2569,-1.2666,-1.2822,-1.2881,-1.2881,-1.2881,-1.2666,-1.208,-1.2501,-1.2881,-1.2881,-1.2881,-1.2881,-1.2881,-1.2774,-1.2774,-1.2881,-1.2138,-1.1616,-1.1616,-1.0906,-1.0151,-0.9444,-0.934,-0.9235,-0.9235,-0.7486,-0.6588,-0.6588,-0.4388,-0.34,-0.3566,-0.2788,-0.2843,0.0,0.0,3.281,0.0,3.2119,0.0,0.0,0.0,0.0,0.0,0.0,0.0,0.0,0.0,0.0,0.0,0.0,0.0,0.0,0.0,0.0,0.0,0.0,0.0,0.0,0.0,0.0,0.0,0.0,0.0,0.0,0.0,2.419,2.419,2.419,0.0,2.4461,2.4284,2.4284,2.4461,2.4461,2.4375,2.419,2.3751,2.297,2.1858,2.0798,1.9471,1.8087,1.7585,1.7021,1.638,1.5242,1.4435,1.3554,1.1022,0.9585,0.8567,0.6499,0.5085,0.3868,0.1661,-0.0055,-0.1491,-0.2853,-0.4345,-0.5573,-0.5932,-0.713,-0.8446,-0.917,-0.9604,-0.9998,-1.0373,-1.0668,-1.0976,-1.1318,-1.1239,-1.1266,-1.1823,-1.2452,-1.2881,-1.2881,-1.2881,-1.2881,-1.2774,-1.2822,-1.2881,-1.2881,-1.2881,-1.2881,-1.2881,-1.2344,-1.2187,-1.2832,-1.1683,-1.0914,-1.0914,-0.9717,-0.8692,-0.7984,-0.7391,-0.7009,-0.7009,-0.6745,-0.6588,-0.6588,-0.4388,-0.3677,-0.4349,-0.3511,-0.3566,2.9119,3.1578,3.3197,0.0,0.0,0.0,0.0,0.0,0.0,0.0,0.0,0.0,0.0,0.0,0.0,0.0,0.0,0.0,0.0,0.0,0.0,0.0,0.0,0.0,0.0,0.0,0.0,0.0,0.0,0.0,0.0,2.4113,2.419,2.419,2.419,0.0,2.4495,2.4303,2.4303,2.4495,2.4393,2.4339,2.4357,2.3645,2.2779,2.1771,2.0349,1.9104,1.7972,1.7175,1.6527,1.5952,1.541,1.4378,1.2984,1.1014,0.935,0.7823,0.6126,0.4769,0.3542,0.168,0.0162,-0.1234,-0.2652,-0.3846,-0.4723,-0.5158,-0.5991,-0.6842,-0.7452,-0.7942,-0.8437,-0.9058,-0.9104,-0.9199,-0.9907,-1.0763,-1.1566,-1.2295,-1.2666,-1.2881,-1.2881,-1.2881,-1.2881,-1.2881,-1.2881,-1.2764,-1.2344,-1.2286,-1.2138,-1.1742,-1.1774,-1.1922,-1.2236,-1.1375,-1.0602,-1.0214,-0.8894,-0.7812,-0.7128,-0.675,-0.6588,-0.6588,-0.6199,-0.5982,-0.5982,-0.4615,-0.4181,-0.4519,-0.4125,-0.4181,0.0,0.0,3.2545,3.2582,0.0,0.0,0.0,0.0,0.0,0.0,0.0,0.0,0.0,0.0,0.0,0.0,0.0,0.0,0.0,0.0,0.0,0.0,0.0,0.0,0.0,0.0,0.0,0.0,0.0,0.0,2.417,2.419,2.419,2.419,2.419,2.4321,2.4559,2.4459,2.4444,2.4495,2.441,2.441,2.4459,2.3645,2.2783,2.181,2.025,1.8957,1.7814,1.6854,1.6126,1.552,1.4967,1.3822,1.228,1.0442,0.8694,0.7092,0.5624,0.4469,0.3338,0.1843,0.0523,-0.068,-0.2307,-0.3142,-0.3679,-0.4435,-0.4818,-0.5276,-0.6106,-0.6569,-0.7016,-0.788,-0.7978,-0.8126,-0.8934,-1.0382,-1.1724,-1.2255,-1.2666,-1.2881,-1.2881,-1.2881,-1.2881,-1.2881,-1.2725,-1.2403,-1.1864,-1.1665,-1.1366,-1.0864,-1.1266,-1.1566,-1.1566,-1.0746,-1.0026,-0.9482,-0.8,-0.6902,-0.6367,-0.615,-0.5987,-0.576,-0.521,-0.5156,-0.5487,-0.4618,-0.4239,-0.4184,-0.4012,-0.3901,0.0,2.9035,0.0,3.2121,0.0,0.0,0.0,0.0,0.0,0.0,0.0,0.0,0.0,0.0,0.0,0.0,0.0,0.0,0.0,0.0,0.0,0.0,0.0,0.0,0.0,0.0,0.0,0.0,0.0,0.0,2.417,2.419,2.419,2.419,2.419,2.4393,2.4775,2.4898,2.4804,2.4512,2.4685,2.467,2.4495,2.3795,2.2912,2.1838,2.0655,1.9082,1.7312,1.6646,1.6089,1.5395,1.3268,1.2195,1.1407,0.8345,0.6898,0.6237,0.4638,0.4134,0.3915,0.2448,0.1542,0.0624,-0.1263,-0.2053,-0.2574,-0.401,-0.4164,-0.4284,-0.6123,-0.6405,-0.6459,-0.735,-0.7702,-0.809,-0.8709,-0.9902,-1.0864,-1.0922,-1.1999,-1.2881,-1.2881,-1.2881,-1.2881,-1.2881,-1.2295,-1.1864,-1.1814,-1.1266,-1.0864,-1.0813,-1.0813,-1.0864,-1.0864,-0.9614,-0.8783,-0.8783,-0.6763,-0.5597,-0.5542,-0.4948,-0.4236,-0.3508,-0.3511,-0.4168,-0.5487,-0.4116,-0.34,-0.3345,-0.2621,-0.2341,0.0,0.0,0.0,0.0,0.0,0.0,0.0,0.0,0.0,0.0,0.0,0.0,0.0,0.0,0.0,0.0,0.0,0.0,0.0,0.0,0.0,0.0,0.0,0.0,0.0,0.0,0.0,0.0,0.0,0.0,2.417,2.419,2.419,2.419,2.4339,2.4528,2.4804,2.4924,2.4949,2.4818,2.4814,2.476,2.4651,2.3363,2.2475,2.1821,2.0178,1.8859,1.772,1.6468,1.5441,1.4534,1.3357,1.1886,1.0195,0.8212,0.6948,0.5933,0.4481,0.4056,0.3821,0.2454,0.161,0.0828,-0.0742,-0.1569,-0.2131,-0.3051,-0.3455,-0.385,-0.4928,-0.547,-0.6032,-0.7104,-0.756,-0.8069,-0.9207,-1.0167,-1.0914,-1.1366,-1.1873,-1.2187,-1.2187,-1.1841,-1.1683,-1.2138,-1.1972,-1.1665,-1.1216,-1.0965,-1.0466,-0.9614,-0.9917,-1.0167,-1.0167,-0.9266,-0.8515,-0.8029,-0.6445,-0.5328,-0.4897,-0.4625,-0.4125,-0.3345,-0.3345,-0.3398,-0.339,-0.2896,-0.2619,-0.2563,-0.2341,-0.2174,2.2995,0.0,0.0,0.0,0.0,0.0,0.0,0.0,0.0,0.0,0.0,0.0,0.0,0.0,0.0,0.0,0.0,0.0,0.0,0.0,0.0,0.0,0.0,0.0,0.0,0.0,0.0,0.0,0.0,0.0,2.419,2.419,2.4228,2.4303,2.4524,2.4712,2.4804,2.4993,2.5077,2.501,2.4917,2.4842,2.4737,2.3401,2.2335,2.1523,1.972,1.8602,1.7985,1.6293,1.5024,1.3979,1.2861,1.1276,0.9517,0.8056,0.6828,0.5753,0.4546,0.4041,0.372,0.2354,0.1687,0.1126,-0.0452,-0.1029,-0.1385,-0.2406,-0.2802,-0.3149,-0.4164,-0.4928,-0.5754,-0.6995,-0.74,-0.7869,-0.9155,-1.0012,-1.0661,-1.1316,-1.1466,-1.1466,-1.1466,-1.1116,-1.0965,-1.1416,-1.1266,-1.0965,-1.0517,-1.0269,-0.9762,-0.891,-0.9211,-0.9354,-0.9138,-0.8429,-0.7676,-0.6919,-0.5806,-0.4948,-0.4515,-0.4519,-0.4015,-0.2954,-0.2954,-0.2397,-0.1114,-0.1562,-0.184,-0.184,-0.1563,-0.1452,0.0,0.0,0.0,0.0,0.0,0.0,0.0,0.0,0.0,0.0,0.0,0.0,0.0,0.0,0.0,0.0,0.0,0.0,0.0,0.0,0.0,0.0,0.0,0.0,0.0,0.0,0.0,0.0,0.0,2.4209,2.4209,2.4209,2.4303,2.4512,2.4831,2.4937,2.4818,2.5138,2.5203,2.501,2.501,2.4911,2.4756,2.384,2.2562,2.098,1.9259,1.831,1.7879,1.6126,1.4879,1.3816,1.166,1.0347,0.9481,0.7667,0.6476,0.5591,0.4714,0.4153,0.3572,0.2258,0.1881,0.1646,-0.0272,-0.0448,-0.0359,-0.214,-0.2228,-0.2184,-0.3953,-0.4836,-0.5574,-0.6906,-0.7148,-0.7352,-0.8521,-0.9309,-0.9961,-1.0669,-1.0762,-1.0762,-1.0762,-1.0762,-1.0771,-1.0771,-1.0218,-0.9814,-0.9814,-0.9211,-0.8804,-0.8804,-0.8758,-0.848,-0.7777,-0.702,-0.6258,-0.5542,-0.4838,-0.446,-0.446,-0.446,-0.3735,-0.2174,-0.2174,-0.1114,0.1118,-0.0335,-0.1006,-0.1006,-0.028,0.0056,2.0343,0.0,0.0,0.0,0.0,0.0,0.0,0.0,0.0,0.0,0.0,0.0,0.0,0.0,0.0,0.0,0.0,0.0,0.0,0.0,0.0,0.0,0.0,0.0,0.0,0.0,0.0,0.0,0.0,2.4428,2.4428,2.4428,2.454,2.4858,2.4962,2.5053,2.516,2.5253,2.5274,2.5214,2.5077,2.4801,2.4372,2.253,2.113,2.0035,1.7654,1.6315,1.5711,1.4426,1.3517,1.2807,1.146,1.0395,0.9388,0.8077,0.7189,0.641,0.4923,0.4336,0.3969,0.2324,0.1844,0.1587,0.018,-0.0135,-0.018,-0.1118,-0.1607,-0.2156,-0.3602,-0.4092,-0.4513,-0.5581,-0.5803,-0.6335,-0.8306,-0.8501,-0.8613,-0.9858,-1.0064,-1.0064,-1.0064,-0.9658,-0.951,-1.0012,-0.9917,-0.9814,-0.9814,-0.9666,-0.9361,-0.8857,-0.8321,-0.7937,-0.7723,-0.6524,-0.5706,-0.5487,-0.4336,-0.3677,-0.368,-0.3121,-0.2397,-0.1396,-0.1396,-0.0558,0.1118,0.067,0.0781,0.1282,0.095,0.0783,0.0,0.0,0.0,0.0,0.0,0.0,2.7649,2.8489,0.0,0.0,0.0,0.0,0.0,0.0,0.0,0.0,0.0,0.0,0.0,0.0,0.0,0.0,0.0,0.0,0.0,0.0,0.0,0.0,2.4594,2.4623,2.4623,2.4682,2.479,2.4979,2.5088,2.5173,2.5303,2.534,2.534,2.5303,2.5031,2.4444,2.3537,2.1799,2.0104,1.8393,1.6347,1.4993,1.4093,1.2842,1.2285,1.2192,1.1562,1.0567,0.939,0.8521,0.7734,0.6933,0.5323,0.4701,0.4353,0.2684,0.2006,0.1607,0.0672,0.018,-0.0135,-0.0716,-0.134,-0.1982,-0.2814,-0.3181,-0.3594,-0.4652,-0.5058,-0.5687,-0.7448,-0.7545,-0.7658,-0.9065,-0.9131,-0.8817,-0.8495,-0.8137,-0.8096,-0.8823,-0.8659,-0.86,-0.8869,-0.8659,-0.8343,-0.7937,-0.7509,-0.7128,-0.6794,-0.5692,-0.4933,-0.4663,-0.3506,-0.2843,-0.2899,-0.2454,-0.1842,-0.1118,-0.1118,-0.0223,0.1563,0.1229,0.1452,0.2174,0.1452,0.1118,0.0,0.0,0.0,0.0,0.0,0.0,2.6922,2.8013,2.8735,0.0,0.0,0.0,0.0,0.0,0.0,0.0,0.0,0.0,0.0,0.0,0.0,0.0,0.0,0.0,0.0,0.0,0.0,2.4578,2.4712,2.4828,2.4842,2.4956,2.5003,2.5038,2.5215,2.5313,2.5312,2.5376,2.5368,2.5331,2.4988,2.4071,2.2642,2.1411,1.9337,1.6601,1.5216,1.3976,1.2873,1.1602,1.1383,1.1842,1.1619,1.0755,0.9518,0.8999,0.8273,0.7341,0.5972,0.5252,0.4696,0.3194,0.2273,0.1697,0.0984,0.0403,-0.0135,-0.0716,-0.1297,-0.1758,-0.1926,-0.2309,-0.2866,-0.3913,-0.4528,-0.5119,-0.6056,-0.6362,-0.6843,-0.7982,-0.7853,-0.7343,-0.6696,-0.6588,-0.6804,-0.745,-0.702,-0.6858,-0.7509,-0.702,-0.6588,-0.6588,-0.6529,-0.6199,-0.5429,-0.4707,-0.3993,-0.3287,-0.2508,-0.2063,-0.2063,-0.2009,-0.1675,-0.1006,-0.0894,0.0167,0.2174,0.1619,0.1675,0.2286,0.1563,0.1174,0.0,0.0,0.0,0.0,0.0,0.0,2.5794,2.7014,2.7676,0.0,0.0,0.0,0.0,0.0,0.0,0.0,0.0,0.0,0.0,0.0,0.0,0.0,0.0,0.0,0.0,0.0,2.6012,2.498,2.4937,2.503,2.5182,2.5077,2.5105,2.5324,2.5348,2.542,2.5465,2.5463,2.5463,2.5465,2.5174,2.4391,2.3107,2.0997,1.8731,1.6352,1.4386,1.2726,1.1446,1.1541,1.1627,1.164,1.0893,1.0391,1.0079,0.9558,0.8952,0.8263,0.7091,0.605,0.496,0.3243,0.2313,0.1607,0.0493,0.009,-0.0135,-0.0716,-0.0984,-0.1174,-0.1692,-0.1886,-0.206,-0.2395,-0.3004,-0.3547,-0.3893,-0.4867,-0.5642,-0.5291,-0.6072,-0.675,-0.6642,-0.6588,-0.6642,-0.6804,-0.6696,-0.6642,-0.6804,-0.6696,-0.6588,-0.6588,-0.6091,-0.5425,-0.4703,-0.3996,-0.3284,-0.2508,-0.173,-0.134,-0.134,-0.0727,-0.0336,-0.0224,0.0391,0.1173,0.2174,0.2732,0.301,0.3065,0.2343,0.1675,0.0,0.0,0.0,1.9834,0.0,0.0,0.0,2.594,2.7112,0.0,0.0,0.0,0.0,0.0,0.0,0.0,0.0,0.0,0.0,0.0,0.0,0.0,0.0,0.0,0.0,0.0,2.6195,2.5225,2.5152,2.5184,2.5284,2.5236,2.5262,2.5406,2.5434,2.5477,2.5489,2.5539,2.5539,2.5489,2.5299,2.4164,2.2202,2.0311,1.7805,1.4876,1.3237,1.1778,1.0591,1.0597,1.0557,1.0557,1.0604,1.0505,1.0244,0.9677,0.9232,0.8706,0.7419,0.6361,0.5222,0.3609,0.2487,0.1652,0.0716,0.0448,0.0315,-0.0276,-0.0231,-0.014,-0.0726,-0.1125,-0.1389,-0.152,-0.207,-0.257,-0.2703,-0.3332,-0.3718,-0.3385,-0.3883,-0.4656,-0.5441,-0.5555,-0.566,-0.5982,-0.5769,-0.566,-0.5982,-0.5433,-0.4992,-0.4992,-0.433,-0.3718,-0.3332,-0.2672,-0.2063,-0.1675,-0.095,-0.056,-0.056,-0.0224,0.0,0.0,0.0336,0.1118,0.2174,0.2232,0.2621,0.3345,0.2565,0.1616,0.0,0.0,0.0,0.0,0.0,2.1815,0.0,0.0,0.0,2.5372,0.0,0.0,0.0,0.0,0.0,0.0,0.0,0.0,0.0,0.0,0.0,0.0,0.0,0.0,0.0,0.0,2.6048,2.536,2.5303,2.5303,2.5303,2.5371,2.5413,2.5427,2.5473,2.5535,2.5543,2.5598,2.5598,2.5543,2.5414,2.4045,2.1572,1.9907,1.7233,1.3822,1.2283,1.1025,1.0031,0.9412,0.9156,0.9209,1.0302,1.0408,0.9961,0.9637,0.9178,0.8536,0.7412,0.6328,0.5214,0.3803,0.2487,0.134,0.0895,0.0806,0.0767,0.0187,0.0426,0.0768,0.015,-0.0355,-0.0771,-0.0851,-0.1394,-0.1838,-0.1777,-0.2009,-0.2174,-0.2009,-0.212,-0.2621,-0.3846,-0.407,-0.4288,-0.4992,-0.4618,-0.4453,-0.4992,-0.4058,-0.3287,-0.3178,-0.2565,-0.212,-0.2009,-0.1452,-0.1062,-0.0895,-0.0336,0.0,0.0,0.0,0.0,0.0,0.0,0.0727,0.2174,0.1619,0.1953,0.3176,0.2343,0.1282,0.0,0.0,0.0,0.0,1.8794,0.0,0.0,0.0,2.339,2.412,0.0,0.0,0.0,0.0,0.0,0.0,0.0,0.0,0.0,0.0,0.0,0.0,0.0,0.0,0.0,0.0,0.0,2.536,2.5303,2.5303,2.5303,2.5363,2.5421,2.5498,2.5554,2.5629,2.5682,2.5683,2.5683,2.5682,2.5609,2.4714,2.3063,2.0516,1.7911,1.5202,1.2261,1.0474,0.9509,0.8415,0.8,0.8074,0.9213,0.9359,0.8918,0.9359,0.8545,0.7202,0.7043,0.5942,0.4368,0.3193,0.1603,0.018,0.0135,0.0493,0.0762,0.0181,0.0418,0.0768,0.015,-0.0052,-0.0107,-0.0111,-0.0668,-0.1001,-0.0392,-0.1284,-0.2009,-0.1341,-0.173,-0.2232,-0.2454,-0.2454,-0.2732,-0.3508,-0.3566,-0.3511,-0.3564,-0.3453,-0.3121,-0.2397,-0.2232,-0.1952,-0.1284,-0.1174,-0.0839,-0.0168,-0.0056,0.0,0.0,0.0,0.0,0.0,0.0,0.0727,0.2174,0.212,0.2174,0.2341,0.1563,0.0783,0.0,0.0,0.0,0.0,0.0,0.0,0.0,0.0,2.2507,0.0,0.0,0.0,0.0,0.0,0.0,0.0,0.0,0.0,0.0,0.0,0.0,0.0,0.0,0.0,0.0,0.0,0.0,0.0,0.0,2.5354,2.5354,2.5415,2.5498,2.5558,2.5611,2.5662,2.5703,2.5703,2.5703,2.5684,2.5154,2.4058,2.2399,1.9875,1.7259,1.4585,1.1995,0.9973,0.8464,0.768,0.6745,0.5891,0.6706,0.7479,0.8179,0.8026,0.7583,0.6904,0.6187,0.5043,0.3632,0.2135,0.0895,0.0,0.0,0.0403,0.0765,0.0185,0.0424,0.0772,0.0154,0.0,0.0,0.0,-0.0224,-0.0392,-0.0056,-0.0504,-0.0838,-0.0504,-0.0727,-0.0951,-0.0951,-0.1619,-0.2341,-0.2676,-0.2676,-0.2676,-0.2676,-0.2286,-0.1953,-0.1619,-0.1174,-0.0783,-0.0504,-0.0448,-0.0336,0.0,0.0,0.0,0.0,0.0,0.0,0.0,0.0,0.0727,0.2174,0.1786,0.2009,0.2899,0.212,0.1116,1.7984,0.0,0.0,0.0,0.0,0.0,0.0,0.0,0.0,0.0,0.0,0.0,0.0,0.0,0.0,0.0,0.0,0.0,0.0,0.0,0.0,0.0,0.0,0.0,0.0,0.0,0.0,0.0,2.5526,0.0,2.5421,2.5498,2.5551,2.5601,2.5661,2.5703,2.5703,2.5703,2.5586,2.5332,2.4706,2.3469,2.1654,1.9251,1.6791,1.4259,1.1763,0.9605,0.7706,0.6716,0.5439,0.4148,0.4069,0.4905,0.6175,0.6181,0.6127,0.5908,0.4852,0.3738,0.2581,0.1313,0.0501,0.0,0.0,0.0415,0.0779,0.0189,0.0429,0.0772,0.0153,0.0,0.0,0.0,0.0,0.0,0.0,0.0,0.0,0.0,0.0,0.0,0.0,-0.0895,-0.1675,-0.1842,-0.1898,-0.1898,-0.1898,-0.1452,-0.1006,-0.0839,-0.0336,0.0,0.0,0.0,0.0,0.0,0.0,0.0,0.0,0.0,0.0,0.0,0.0224,0.0951,0.2174,0.1842,0.2399,0.368,0.2454,0.1338,0.0,0.0,0.0,0.0,0.0,0.0,0.0,0.0,1.9274,0.0,0.0,0.0,0.0,0.0,0.0,0.0,0.0,0.0,0.0,0.0,0.0,0.0,0.0,0.0,0.0,0.0,0.0,0.0,2.5945,0.0,2.5508,2.5558,2.5601,2.5601,2.5661,2.5703,2.5703,2.5703,2.5273,2.4434,2.4407,2.3409,2.1519,1.918,1.7018,1.4985,1.16,0.9243,0.7624,0.5386,0.4105,0.3365,0.168,0.1411,0.2192,0.3784,0.4069,0.3541,0.2967,0.2001,0.099,0.0938,0.0475,0.0,0.0,0.0441,0.0761,0.0191,0.0429,0.0762,0.0144,0.0,0.0,0.0,0.0,0.0,0.0,0.0,0.0,0.0,0.0,0.0,0.0,-0.0056,-0.0336,-0.1006,-0.1118,-0.1118,-0.1118,-0.1118,-0.0838,-0.0112,0.0,0.0,0.0,0.0,0.0,0.0,0.0,0.0,0.0,0.0,0.0,0.0,0.0727,0.1452,0.2174,0.2899,0.3677,0.4405,0.2176,0.1118,0.0,0.0,1.8116,1.7752,0.0,0.0,0.0,0.0,0.0,0.0,0.0,0.0,0.0,0.0,0.0,0.0,0.0,0.0,0.0,0.0,0.0,0.0,0.0,0.0,0.0,0.0,0.0,2.5976,2.5691,2.5564,0.0,2.5595,2.5597,2.5603,2.5664,2.5683,2.5634,2.5683,2.5253,2.4387,2.3543,2.2068,2.0003,1.7825,1.5692,1.3544,1.1131,0.898,0.7052,0.5167,0.3581,0.2224,0.0844,0.0444,0.0664,0.1231,0.1578,0.1622,0.0661,0.0044,-0.027,-0.0282,-0.014,0.0,0.0,0.0142,0.0275,0.0046,0.014,0.024,0.0049,0.0,0.0,0.0,0.0,0.0,0.0,0.0,0.0,0.0,0.0386,0.0722,0.0706,0.0716,0.0503,-0.028,-0.0392,-0.0392,-0.0392,0.0056,0.0447,0.0727,0.1174,0.1285,0.0783,0.028,0.0,0.0,0.0,0.0,0.0,0.0,0.0,0.0,0.0224,0.095,0.2174,0.2454,0.3231,0.446,0.3234,0.2621,1.7566,1.7639,0.0,0.0,1.8042,0.0,0.0,0.0,0.0,0.0,0.0,0.0,0.0,0.0,0.0,0.0,0.0,0.0,0.0,0.0,0.0,0.0,0.0,0.0,0.0,0.0,2.6909,2.6061,2.6069,2.5966,0.0,0.0,2.5624,2.5603,2.5661,2.5662,2.5601,2.5351,2.4736,2.3702,2.2262,2.0441,1.8289,1.639,1.4385,1.2244,1.0351,0.8407,0.6469,0.4785,0.319,0.1695,0.049,-0.0267,-0.0623,-0.0622,-0.0398,-0.0176,-0.093,-0.1203,-0.1174,-0.0955,-0.0616,-0.0278,-0.0049,0.0144,0.0275,0.0046,0.0139,0.0282,0.0048,0.0,0.0,0.0,0.0,0.0,0.0,0.0,0.0055,0.032,0.0765,0.1165,0.1464,0.1486,0.134,0.0838,0.0336,0.0168,0.0727,0.095,0.1174,0.1452,0.1898,0.2009,0.1507,0.0839,0.0392,0.0392,0.0168,0.0,0.0,0.0,0.0,0.0,0.0504,0.1118,0.1786,0.2343,0.2954,0.368,0.3511,0.34]}]]